[[{"header":{"parameterUnit":"m.s-1","parameterCategory":1,"la1":30.6,"la2":29.2853,"lo1":-89.7004,"lo2":-87.6739,"dy":0.0162,"dx":0.0183,"nx":112,"ny":82,"refTime":"2026-04-07T12:00:00:Z","depth":0,"parameterNumber":2,"parameterNumberName":"U-component_of_WINDS"},"data":[0.0,0.0,0.0,0.0,0.0,0.0,0.0,0.0,0.0,0.0,0.0,0.0,0.0,0.0,0.0,0.0,0.0,0.0,0.0,0.0,0.0,0.0,0.0,0.0,0.0,0.0,0.0,0.0,0.0,0.0,0.0,0.0,0.0,0.0,0.0,0.0,0.0,0.0,0.0,0.0,0.0,0.0,0.0,0.0,0.0,0.0,0.0,0.0,0.0,0.0,0.0,0.0,0.0,0.0,0.0,0.0,0.0,0.0,0.0,0.0,0.0,0.0,0.0,0.0,0.0,0.0,0.0,0.0,0.0,0.0,0.0,0.0,0.0,0.0,0.0,0.0,0.0,0.0,0.0,0.0,0.0,0.0,0.0,0.0,0.0,0.0,0.0,0.0,0.0,0.0,0.0,1.6172,1.7941,1.8914,1.8538,1.7203,1.6191,1.5742,0.0,0.0,0.0,0.0,0.0,0.0,0.0,0.0,0.0,0.0,0.0,0.0,0.0,0.0,0.0,0.0,0.0,0.0,0.0,0.0,0.0,0.0,0.0,0.0,0.0,0.0,0.0,0.0,0.0,0.0,0.0,0.0,0.0,0.0,0.0,0.0,0.0,0.0,0.0,0.0,0.0,0.0,0.0,0.0,0.0,0.0,0.0,0.0,0.0,0.0,0.0,0.0,0.0,0.0,0.0,0.0,0.0,0.0,0.0,0.0,0.0,0.0,0.0,0.0,0.0,0.0,0.0,0.0,0.0,0.0,0.0,0.0,0.0,0.0,0.0,0.0,0.0,0.0,0.0,0.0,0.0,0.0,0.0,0.0,0.0,0.0,0.0,0.0,0.0,0.0,0.0,0.0,0.0,0.0,0.0,0.0,0.0,0.0,0.0,0.0,0.0,0.0,0.0,0.0,1.4955,1.7725,1.8509,1.8896,1.8989,1.7914,1.6947,1.6319,0.0,0.0,0.0,0.0,0.0,0.0,0.0,0.0,0.0,0.0,0.0,0.0,0.0,0.0,0.0,0.0,0.0,0.0,0.0,0.0,0.0,0.0,0.0,0.0,0.0,0.0,0.0,0.0,0.0,0.0,0.0,0.0,0.0,0.0,0.0,0.0,0.0,0.0,0.0,0.0,0.0,0.0,0.0,0.0,0.0,0.0,0.0,0.0,0.0,0.0,0.0,0.0,0.0,0.0,0.0,0.0,0.0,0.0,0.0,0.0,0.0,0.0,0.0,0.0,0.0,0.0,0.0,0.0,0.0,0.0,0.0,0.0,0.0,0.0,0.0,0.0,0.0,0.0,0.0,0.0,0.0,0.0,0.0,0.0,0.0,0.0,0.0,0.0,0.0,0.0,0.0,0.0,0.0,0.0,0.0,0.0,0.0,0.0,0.0,0.0,0.0,0.0,0.0,1.3843,1.5279,1.8653,1.829,1.7866,1.7919,1.7198,1.6305,1.5219,1.3226,0.0,0.0,0.0,0.0,0.0,0.0,0.0,0.0,0.0,0.0,0.0,0.0,0.0,0.0,0.0,0.0,0.0,0.0,0.0,0.0,0.0,0.0,0.0,0.0,0.0,0.0,0.0,0.0,0.0,0.0,0.0,0.0,0.0,0.0,0.0,0.0,0.0,0.0,0.0,0.0,0.0,0.0,0.0,0.0,0.0,0.0,0.0,0.0,0.0,0.0,0.0,0.0,0.0,0.0,0.0,0.0,0.0,0.0,0.0,0.0,0.0,0.0,0.0,0.0,0.0,0.0,0.0,0.0,0.0,0.0,0.0,0.0,0.0,0.0,0.0,0.0,0.0,0.0,0.0,0.0,0.0,0.0,0.0,0.0,0.0,0.0,0.0,0.0,0.0,0.0,0.0,0.0,0.0,0.0,0.0,0.0,0.0,0.0,0.0,0.0,0.0,0.0,1.4881,1.5634,1.8091,1.7187,1.6527,1.682,1.5947,1.5177,1.467,1.2947,0.0,0.0,0.0,0.0,0.0,0.0,0.0,0.0,0.0,0.0,0.0,0.0,0.0,0.0,0.0,0.0,0.0,0.0,0.0,0.0,0.0,0.0,0.0,0.0,0.0,0.0,0.0,0.0,0.0,0.0,0.0,0.0,0.0,0.0,0.0,0.0,0.0,0.0,0.0,0.0,0.0,0.0,0.0,0.0,0.0,0.0,0.0,0.0,0.0,0.0,0.0,0.0,0.0,0.0,0.0,0.0,0.0,0.0,0.0,0.0,0.0,0.0,0.0,0.0,0.0,0.0,0.0,0.0,0.0,0.0,0.0,0.0,0.0,0.0,0.0,0.0,0.0,0.0,0.0,0.0,0.0,0.0,0.0,0.0,0.0,0.0,0.0,0.0,0.0,0.0,0.0,0.0,0.0,0.0,0.0,0.0,0.0,0.0,0.0,0.0,0.0,0.0,1.5022,1.5909,1.5052,1.4745,1.5163,1.659,1.4479,1.396,1.609,1.3242,0.0,0.0,0.0,0.0,0.0,0.0,0.0,0.0,0.0,0.0,0.0,0.0,0.0,0.0,0.0,0.0,0.0,0.0,0.0,0.0,0.0,0.0,0.0,0.0,0.0,0.0,0.0,0.0,0.0,0.0,0.0,0.0,0.0,0.0,0.0,0.0,0.0,0.0,0.0,0.0,0.0,0.0,0.0,0.0,0.0,0.0,0.0,0.0,0.0,0.0,0.0,0.0,0.0,0.0,0.0,0.0,0.0,0.0,0.0,0.0,0.0,0.0,0.0,0.0,0.0,0.0,0.0,0.0,0.0,0.0,0.0,0.0,0.0,0.0,0.0,0.0,0.0,0.0,0.0,0.0,0.0,0.0,0.0,0.0,0.0,0.0,0.0,0.0,0.0,0.0,0.0,0.0,0.0,0.0,0.0,0.0,0.0,0.0,0.0,0.0,0.0,0.0,1.2343,1.3258,0.0,1.3703,1.3192,1.3794,1.2802,1.2237,1.2401,0.0,0.0,0.0,0.0,0.0,0.0,0.0,0.0,0.0,0.0,0.0,0.0,0.0,0.0,0.0,0.0,0.0,0.0,0.0,0.0,0.0,0.0,0.0,0.0,0.0,0.0,0.0,0.0,0.0,0.0,0.0,0.0,0.0,0.0,0.0,0.0,0.0,0.0,0.0,0.0,0.0,0.0,0.0,0.0,0.0,0.0,0.0,0.0,0.0,0.0,0.0,0.0,0.0,0.0,0.0,0.0,0.0,0.0,0.0,0.0,0.0,0.0,0.0,0.0,0.0,0.0,0.0,0.0,0.0,0.0,0.0,0.0,0.0,0.0,0.0,0.0,0.0,0.0,0.0,0.0,0.0,0.0,0.0,0.0,0.0,0.0,0.0,0.0,0.0,0.0,0.0,0.0,0.0,0.0,0.0,0.0,0.0,0.0,0.0,0.0,0.0,0.0,1.0657,1.092,1.1643,0.0,1.2261,1.1593,1.2053,1.1319,1.0805,1.074,0.0,0.0,0.0,0.0,0.0,0.0,0.0,0.0,0.0,0.0,0.0,0.0,0.0,0.0,0.0,0.0,0.0,0.0,0.0,0.0,0.0,0.0,0.0,0.0,0.0,0.0,0.0,0.0,0.0,0.0,0.0,0.0,0.0,0.0,0.0,0.0,0.0,0.0,0.0,0.0,0.0,0.0,0.0,0.0,0.0,0.0,0.0,0.0,0.0,0.0,0.0,0.0,0.0,0.0,0.0,0.0,0.0,0.0,0.0,0.0,0.0,0.0,0.0,0.0,0.0,0.0,0.0,0.0,0.0,0.0,0.0,0.0,0.0,0.0,0.0,0.0,0.0,0.0,0.0,0.0,0.0,0.0,0.0,0.0,0.0,0.0,0.0,0.0,0.0,0.0,0.0,0.0,0.0,0.0,0.0,0.0,0.0,0.0,0.0,0.0,0.0,0.0,1.0353,1.1359,1.1638,1.0506,1.0172,1.055,1.1942,1.0078,0.9803,0.0,0.0,0.0,0.0,0.0,0.0,0.0,0.0,0.0,0.0,0.0,0.0,0.0,0.0,0.0,0.0,0.0,0.0,0.0,0.0,0.0,0.0,0.0,0.0,0.0,0.0,0.0,0.0,0.0,0.0,0.0,0.0,0.0,0.0,0.0,0.0,0.0,0.0,0.0,0.0,0.0,0.0,0.0,0.0,0.0,0.0,0.0,0.0,0.0,0.0,0.0,0.0,0.0,0.0,0.0,0.0,0.0,0.0,0.0,0.0,0.0,0.0,0.0,0.0,0.0,0.0,0.0,0.0,0.0,0.0,0.0,0.0,0.0,0.0,0.0,0.0,0.0,0.0,0.0,0.0,0.0,0.0,0.0,0.0,0.0,0.0,0.0,0.0,0.0,0.0,0.0,0.0,0.0,0.0,0.0,0.0,0.0,0.0,0.0,0.0,0.0,0.0,0.0,0.9349,1.0102,1.0543,1.0437,1.0324,1.0352,1.0601,0.9919,0.9521,0.9543,0.0,0.0,0.0,0.0,0.0,0.0,0.0,0.0,0.0,0.0,0.0,0.0,0.0,0.0,0.0,0.0,0.0,0.0,0.0,0.0,0.0,0.0,0.0,0.0,0.0,0.0,0.0,0.0,0.0,0.0,0.0,0.0,0.0,0.0,0.0,0.0,0.0,0.0,0.0,0.0,0.0,0.0,0.0,0.0,0.0,0.0,0.0,0.0,0.0,0.0,0.0,0.0,0.0,0.0,0.0,0.0,0.0,0.0,0.0,0.0,0.0,0.0,0.0,0.0,0.0,0.0,0.0,0.0,0.0,0.0,0.0,0.0,0.0,0.0,0.0,0.0,0.0,0.0,0.0,0.0,0.0,0.0,0.0,0.0,0.0,0.0,0.0,0.0,0.0,0.0,0.0,0.0,0.0,0.0,0.0,0.0,0.0,0.0,0.0,0.0,0.0,0.0,0.9139,0.9823,1.0329,1.0574,1.0552,1.0427,1.0188,0.9926,0.943,0.8518,0.0,0.0,0.0,0.0,0.0,0.0,0.0,0.0,0.0,0.0,0.0,0.0,0.0,0.0,0.0,0.0,0.0,0.0,0.0,0.0,0.0,0.0,0.0,0.0,0.0,0.0,0.0,0.0,0.0,0.0,0.0,0.0,0.0,0.0,0.0,0.0,0.0,0.0,0.0,0.0,0.0,0.0,0.0,0.0,0.0,0.0,0.0,0.0,0.0,0.0,0.0,0.0,0.0,0.0,0.0,0.0,0.0,0.0,0.0,0.0,0.0,0.0,0.0,0.0,0.0,0.0,0.0,0.0,0.0,0.0,0.0,0.0,0.0,0.0,0.0,0.0,0.0,0.0,0.0,0.0,0.0,0.0,0.0,0.0,0.0,0.0,0.0,0.0,0.0,0.0,0.0,0.0,0.0,0.0,0.0,0.0,0.0,0.0,0.0,0.0,0.0,0.0,0.9472,1.0205,1.0708,1.0911,1.0787,1.0619,1.0438,1.0095,0.9505,0.8718,0.0,0.0,0.0,0.0,0.0,0.0,0.0,0.0,0.0,0.0,0.0,0.0,0.0,0.0,0.0,0.0,0.0,0.0,0.0,0.0,0.0,0.0,0.0,0.0,0.0,0.0,0.0,0.0,0.0,0.0,0.0,0.0,0.0,0.0,0.0,0.0,0.0,0.0,0.0,0.0,0.0,0.0,0.0,0.0,0.0,0.0,0.0,0.0,0.0,0.0,0.0,0.0,0.0,0.0,0.0,0.0,0.0,0.0,0.0,0.0,1.2927,0.0,0.0,0.0,0.0,0.0,0.0,0.0,0.0,0.0,0.0,0.0,0.0,0.0,0.0,0.0,0.0,0.0,0.0,0.0,0.0,0.0,0.0,0.0,0.0,0.0,0.0,0.0,0.0,0.0,0.0,0.0,0.0,0.0,0.0,0.0,0.0,0.0,0.0,0.0,0.0,0.0,0.9496,1.0245,1.0791,1.1036,1.0954,1.0777,1.0636,1.0422,0.996,0.92,0.0,0.0,0.0,0.0,0.0,0.0,0.0,0.0,0.0,0.0,0.0,0.0,0.0,0.0,0.0,0.0,0.0,0.0,0.0,0.0,0.0,0.0,0.0,0.0,0.0,0.0,0.0,0.0,0.0,0.0,0.0,0.0,0.0,0.0,0.0,0.0,0.0,0.0,0.0,0.0,0.0,0.0,0.0,0.0,0.0,0.0,0.0,0.0,0.0,0.0,0.0,0.0,0.0,0.0,0.0,0.0,0.0,0.0,0.0,0.0,0.0,1.356,0.0,0.0,0.0,0.0,0.0,0.0,0.0,0.0,0.0,0.0,0.0,0.0,0.0,0.0,0.0,0.0,0.0,0.0,0.0,0.0,0.0,0.0,0.0,0.0,0.0,0.0,0.0,0.0,0.0,0.0,0.0,0.0,0.0,0.0,0.0,0.0,0.0,0.0,0.0,0.0,0.9775,1.0487,1.0982,1.1166,1.1128,1.1041,1.0879,1.0639,1.0234,0.9568,0.9379,0.0,0.0,0.0,0.0,0.0,0.0,0.0,0.0,0.0,0.0,0.0,0.0,0.0,0.0,0.0,0.0,0.0,0.0,0.0,0.0,0.0,0.0,0.0,0.0,0.0,0.0,0.0,0.0,0.0,0.0,0.0,0.0,0.0,0.0,0.0,0.0,0.0,0.0,0.0,0.0,0.0,0.0,0.0,0.0,0.0,0.0,0.0,0.0,0.0,0.0,0.0,0.0,0.0,1.1789,1.2217,1.2456,1.363,1.3779,1.315,1.3739,1.3745,1.3273,0.0,0.0,0.0,0.0,0.0,0.0,0.0,0.0,0.0,0.0,0.0,0.0,0.0,0.0,0.0,0.0,0.0,0.0,0.0,0.0,0.0,0.0,0.0,0.0,0.0,1.1799,1.1503,0.0,0.0,0.0,0.0,0.0,0.0,0.0,0.0,0.0,0.0,0.0,0.0,1.0173,1.0797,1.1215,1.1351,1.1374,1.1308,1.1172,1.0893,1.0454,0.9953,0.9402,0.8906,0.0,0.0,0.0,0.0,0.0,0.0,0.0,0.0,0.0,0.0,0.0,0.0,0.0,0.0,0.0,0.0,0.0,0.0,0.0,0.0,0.0,0.0,0.0,0.0,0.0,0.0,0.0,0.0,0.0,0.0,0.0,0.0,0.5969,0.6299,0.0,0.0,0.0,0.0,0.0,0.0,0.0,0.0,0.0,0.0,0.0,0.0,0.0,1.078,1.1747,1.19,1.2056,1.2221,1.2063,1.2034,1.2074,1.2375,1.2749,1.3116,1.3178,0.0,1.3479,1.2281,0.0,0.0,0.0,0.0,0.0,0.0,0.0,0.0,0.0,0.0,0.0,0.0,0.0,0.0,0.0,0.0,0.0,0.0,0.0,0.0,0.0,0.0,1.3011,1.2845,1.3151,1.333,0.0,1.0987,0.9513,0.9148,0.0,0.0,0.0,0.0,0.0,0.0,0.0,0.0,1.0621,1.1148,1.1537,1.1721,1.1603,1.1472,1.1455,1.1177,1.0867,1.0528,1.0102,0.9711,0.9347,0.9331,0.0,0.0,0.0,0.0,0.0,0.0,0.0,0.0,0.0,0.0,0.0,0.0,0.0,0.0,0.0,0.0,0.0,0.0,0.0,0.0,0.0,0.0,0.0,0.0,0.0,0.0,0.0,0.0,0.0,0.6465,0.6659,0.6628,0.6823,0.6909,0.0,0.0,0.0,0.0,0.0,0.0,0.0,0.0,0.0,0.9849,1.0949,1.201,1.3013,1.3248,1.3511,1.3671,1.2955,1.2667,1.2797,1.2852,1.3039,1.3357,1.3284,1.3464,1.3724,1.2638,1.2208,1.2177,0.0,0.0,0.0,0.0,1.1877,1.2288,1.2773,1.3051,0.0,0.0,0.0,0.0,0.0,0.0,0.0,0.0,0.0,0.0,0.0,0.0,0.0,1.4513,1.462,1.4573,1.432,1.3134,1.1765,0.0,0.9878,0.931,0.8514,0.0,0.0,0.0,0.0,0.0,1.0842,1.1271,1.1623,1.1803,1.1726,1.1661,1.1661,1.1438,1.1248,1.1013,1.0623,1.0255,0.9904,0.9679,0.9196,0.0,0.0,0.0,0.0,0.0,0.0,0.0,0.0,0.0,0.0,0.0,0.0,0.0,0.0,0.0,0.0,0.0,0.0,0.0,0.0,0.0,0.0,0.0,0.0,0.0,0.0,0.0,0.0,0.6791,0.7007,0.6928,0.7182,0.7279,0.0,0.0,0.0,0.0,0.0,0.0,0.8301,0.8644,0.9248,1.0268,1.1531,1.253,1.3333,1.3551,1.366,1.3751,1.2796,1.2476,1.2606,1.2606,1.2868,1.3264,1.3121,1.3435,1.3922,1.3239,1.272,1.236,1.2432,1.2334,1.2227,1.3042,1.3526,1.3908,1.4597,1.4957,1.5025,1.4599,0.0,1.377,1.2691,0.0,0.0,0.0,0.0,1.3329,1.419,0.0,1.5031,1.5792,1.5698,1.551,1.5458,1.4839,1.3751,0.0,1.1176,1.0578,0.9639,0.0,0.0,0.0,0.0,1.0611,1.1184,1.1516,1.1775,1.1895,1.1879,1.1862,1.1862,1.1667,1.1537,1.1373,1.1118,1.0766,1.0449,1.0057,0.9631,0.9134,0.0,0.0,0.0,0.0,0.0,0.0,0.0,0.0,0.0,0.0,0.0,0.0,0.0,0.0,0.0,0.0,0.0,0.0,0.0,0.0,0.0,0.0,0.0,0.0,0.0,0.0,0.0,0.0,0.0,0.6953,0.668,0.0,0.0,0.0,0.0,0.8141,0.8694,0.904,0.9129,0.9468,0.9986,1.0721,1.126,1.1673,1.189,1.1858,1.1654,1.1253,1.0623,1.0417,1.0565,1.0565,1.1166,1.2255,1.2251,1.284,1.3828,1.3712,1.3711,1.3813,1.4232,1.4351,1.442,1.4866,1.5425,1.5913,1.5867,1.5935,1.6056,1.6307,1.5716,1.4881,1.4475,1.4025,0.0,0.0,1.4431,1.4969,1.5255,1.556,1.5881,1.6029,1.6076,1.6076,1.6042,1.5574,1.4744,0.0,1.2449,1.1659,1.1168,0.0,1.041,1.0821,1.0941,1.1195,1.1857,1.1965,1.202,1.2187,1.2047,1.1982,1.1982,1.1868,1.1748,1.1578,1.1556,1.1388,1.1074,1.0922,1.0509,0.9748,0.9396,0.0,0.0,0.0,0.0,0.0,0.0,0.0,0.0,0.0,0.0,0.0,0.0,0.0,0.0,0.0,0.0,0.0,0.0,0.0,0.0,0.0,0.0,0.0,0.0,0.0,0.0,0.0,0.0,0.7967,0.8156,0.0,0.8163,0.8401,0.8669,0.8846,0.9105,0.9457,0.9778,0.9895,1.0171,1.0606,1.1517,1.2082,1.2204,1.2496,1.2693,1.2682,1.202,1.1789,1.1952,1.1952,1.2181,1.2564,1.2564,1.3147,1.4124,1.4129,1.3899,1.3667,1.421,1.4631,1.4975,1.5666,1.6318,1.6951,1.6992,1.7107,1.7195,1.7012,1.6442,1.5791,1.5588,1.5411,1.5276,1.5275,1.5493,1.575,1.6049,1.6205,1.6347,1.6598,1.6727,1.672,1.6429,1.6273,1.5932,1.5134,1.388,1.2855,1.2354,1.1807,1.1422,1.15,1.1421,1.1516,1.193,1.2069,1.2198,1.2323,1.2225,1.2107,1.2107,1.1998,1.1879,1.1759,1.1632,1.1509,1.1226,1.1101,1.0802,1.0307,0.9862,0.931,0.0,0.0,0.0,0.0,0.0,0.0,0.0,0.0,0.0,0.0,0.0,0.0,0.0,0.0,0.0,0.0,0.0,0.0,0.0,0.0,0.0,0.0,0.0,0.0,0.0,0.854,0.8738,0.8982,0.9095,0.909,0.8867,0.9139,0.9347,0.9423,0.9604,0.9881,1.024,1.0289,1.042,1.0657,1.144,1.1812,1.1631,1.1996,1.2125,1.2162,1.162,1.1472,1.1592,1.1592,1.1803,1.2171,1.2171,1.2777,1.3781,1.3885,1.3616,1.3309,1.4271,1.4868,1.5241,1.5954,1.6783,1.7582,1.7684,1.7758,1.7738,1.7446,1.708,1.6727,1.6517,1.649,1.649,1.6343,1.6357,1.6429,1.6625,1.668,1.6727,1.6931,1.7053,1.7039,1.6741,1.6588,1.6446,1.6144,1.4977,1.3894,1.3513,1.2938,1.2509,1.2331,1.2304,1.2363,1.2488,1.2471,1.2489,1.2572,1.2363,1.2219,1.2219,1.2165,1.2102,1.1879,1.1735,1.1571,1.1324,1.1214,1.1039,1.0748,1.0252,0.9754,0.923,0.0,0.0,0.0,0.0,0.0,0.0,0.0,0.0,0.0,0.0,0.0,0.0,0.0,0.0,0.0,0.0,0.0,0.0,0.0,0.0,0.0,0.0,0.0,0.9586,0.9134,0.904,0.9925,0.9365,0.9051,0.9294,0.971,0.9915,0.9919,1.0216,1.0445,1.0624,1.0766,1.0849,1.1024,1.1024,1.0778,1.0225,1.015,0.9859,0.9359,0.928,0.9253,0.9253,0.9253,0.9843,1.0898,1.0898,1.1576,1.2711,1.282,1.2853,1.2948,1.4535,1.517,1.5214,1.5898,1.689,1.7956,1.7956,1.7792,1.7609,1.7609,1.7609,1.7548,1.7297,1.7311,1.7372,1.708,1.7005,1.7012,1.7012,1.7005,1.6992,1.6992,1.6992,1.6985,1.6985,1.6639,1.6374,1.6503,1.5658,1.4838,1.4601,1.4125,1.3655,1.3386,1.3523,0.0,1.3464,1.314,1.2886,1.2892,1.2508,1.2225,1.2225,1.2378,1.2374,1.2017,1.1933,1.1707,1.1313,1.1314,1.1217,1.1016,1.067,1.0239,0.9723,0.0,0.0,0.0,0.0,0.0,0.0,0.0,0.0,0.0,0.0,0.0,0.0,0.0,0.0,0.0,0.0,0.0,0.0,0.0,0.0,0.0,0.5991,0.6164,0.9161,0.9477,0.9578,1.0011,0.9957,0.9936,1.0151,1.0208,1.0298,1.0424,1.0563,1.0807,1.0996,1.0971,1.1004,1.1118,1.1057,1.0922,1.0778,1.0746,1.0729,1.0692,1.0672,1.0692,1.0743,1.0743,1.0909,1.1184,1.1184,1.1832,1.2858,1.281,1.2806,1.2815,1.3499,1.3978,1.4425,1.5607,1.7072,1.8575,1.8575,1.8355,1.8089,1.8089,1.7982,1.7772,1.7582,1.7623,1.7704,1.7521,1.7541,1.7677,1.7677,1.746,1.7297,1.7297,1.7216,1.7107,1.7005,1.6965,1.6897,1.6669,1.6229,1.5864,1.5669,1.5074,1.4431,1.3967,0.0,0.0,1.2735,1.262,1.258,1.2621,1.2741,1.2732,1.235,1.2548,1.2391,0.0,1.1577,1.1401,1.1313,1.1225,1.1141,1.1075,1.0713,1.0376,0.0,0.0,0.0,0.0,0.0,0.0,0.0,0.0,0.0,0.0,0.0,0.0,0.0,0.0,0.0,0.0,0.0,0.0,0.0,0.0,0.0,0.0,0.4392,0.4386,0.6752,0.7128,0.7238,0.7568,0.835,0.8941,0.9086,1.0033,1.0657,1.0722,1.0816,1.0951,1.1209,1.111,1.1118,1.1216,1.1204,1.1192,1.1192,1.1237,1.1278,1.1389,1.1389,1.141,1.1404,1.1404,1.1384,0.0,1.1339,1.1704,1.225,1.2192,1.2161,0.0,0.0,0.0,0.0,0.0,1.6846,1.7876,1.8407,1.8464,1.8321,1.8321,1.8199,1.8023,1.7806,1.7792,1.7826,1.7609,1.7616,1.7684,1.7684,1.7548,1.7439,1.7446,1.7351,1.7188,1.7168,1.708,1.6971,1.687,0.0,0.0,1.6463,1.585,1.5149,1.4687,1.4417,1.4078,1.3494,1.344,1.339,1.328,1.3419,1.3343,1.2813,1.2957,0.0,0.0,0.0,1.1431,1.1232,1.1123,0.0,0.0,0.0,0.0,0.0,0.0,0.0,0.0,1.041,1.0678,0.0,0.0,0.0,0.0,0.0,0.0,0.0,0.0,0.0,0.0,0.0,0.0,0.0,0.0,0.0,0.0,0.2997,0.2729,0.3273,0.2994,0.311,0.3924,0.5624,0.6695,0.6703,0.8806,1.0128,1.0072,1.0128,1.0207,1.0352,0.0,0.0,0.0,0.0,1.0546,1.0546,1.0674,1.0712,1.0712,1.0712,1.0712,1.0712,1.0712,1.0614,1.0546,1.0847,1.0915,1.0903,1.1189,1.1339,1.1431,1.2127,1.2522,1.3024,1.5225,1.6218,1.6611,1.7763,0.0,0.0,1.8278,1.8221,1.8091,1.7947,1.797,1.786,1.7595,1.7521,1.7521,1.7521,1.7494,1.7507,1.7595,1.7439,1.7263,1.7412,1.7068,1.6817,1.7005,1.689,1.677,1.6958,1.6446,1.5832,1.5457,1.5654,1.5553,1.4825,1.4777,1.4688,1.4324,0.0,0.0,1.3472,1.3524,1.3162,1.2149,1.1933,1.1581,1.1163,1.1197,1.1444,1.1885,1.1945,1.1958,1.1969,1.2095,1.2074,1.1922,1.1039,1.112,0.0,0.0,0.0,0.0,0.0,0.0,0.0,0.0,0.0,0.0,0.0,0.0,0.0,0.0,0.0,0.1321,-0.0201,-0.101,0.0387,-0.1066,-0.0793,0.3129,0.3939,0.4245,0.4273,0.466,0.4943,0.5025,0.5034,0.5116,0.5218,0.5193,0.5153,0.5162,0.5199,0.5163,0.5163,0.5232,0.5232,0.5232,0.0,0.0,0.5232,0.5232,0.5229,0.5283,0.7444,0.8331,0.8499,1.0535,1.1363,1.1377,1.162,1.2364,1.332,1.3818,1.5237,1.6917,1.7145,1.7177,1.7174,1.8141,1.7662,1.6941,1.7958,1.8233,0.0,1.8158,1.8145,1.8145,1.8145,1.7968,1.7792,1.7868,1.7595,1.7419,1.7514,1.7385,1.7297,1.7331,1.7121,1.6944,1.6978,1.6653,1.6182,1.5557,1.5325,1.5015,1.434,1.4323,1.4404,1.433,1.4655,1.4692,1.4146,1.4024,1.3632,1.2857,1.2173,1.1698,1.1423,1.1692,1.1857,1.1976,1.207,1.2209,1.2286,1.236,1.2547,1.2808,1.216,1.2259,0.0,0.0,0.0,0.0,0.0,0.0,0.0,0.0,0.0,0.0,0.0,0.0679,0.0042,0.0,-0.1192,-0.0969,-0.2117,-0.2788,-0.2035,-0.2907,-0.275,-0.0404,0.0985,0.1743,0.1743,0.2902,0.3657,0.3599,0.3627,0.365,0.3723,0.3694,0.3711,0.3711,0.3738,0.3755,0.3755,0.3765,0.3776,0.3776,0.3776,0.3776,0.3776,0.3776,0.3776,0.3893,0.5172,0.5705,0.5806,0.7047,0.7564,0.7543,0.7694,0.9669,1.2503,1.3154,1.4145,1.5293,1.594,1.6067,1.6023,1.6663,1.6698,1.6642,1.7289,1.7864,1.8321,1.8321,1.8321,1.8321,1.8321,1.8145,1.8002,1.8077,1.7806,1.7575,1.7717,1.7582,1.7446,1.7467,1.7412,1.729,1.7216,1.7012,1.6678,1.6199,1.5929,1.5634,1.5082,1.5239,1.5315,1.5133,1.5535,1.5623,1.5183,1.4762,1.4347,1.3951,1.3404,1.3063,1.2981,1.2872,1.2811,1.2873,1.2704,1.2678,1.2797,1.2917,1.3102,1.3336,1.3202,1.3282,0.0,0.0,0.0,0.0,0.0,0.0,0.0,0.1282,0.103,0.0161,-0.0548,-0.1061,-0.104,-0.2001,-0.2791,-0.2871,-0.3241,-0.3562,-0.366,-0.3656,-0.3663,-0.3712,-0.1928,-0.0762,-0.0816,0.1113,0.2287,0.216,0.2186,0.2262,0.2206,0.2222,0.2232,0.2232,0.2248,0.2319,0.2319,0.2332,0.2402,0.2402,0.2402,0.2402,0.2402,0.2402,0.2402,0.2402,0.2893,0.3375,0.3843,0.3843,0.3843,0.3846,0.3868,0.6388,1.0132,1.1756,1.279,1.3496,1.404,1.4145,1.4104,1.4379,1.4825,1.5427,1.6443,1.7333,1.8021,1.8298,1.8335,1.8265,1.8287,1.8179,1.8124,1.8247,1.7947,1.7772,1.7914,1.7738,1.7582,1.767,1.7615,1.7554,1.7487,1.7338,1.7127,1.675,1.6567,1.6359,1.6067,1.629,1.6373,1.6106,1.6303,1.6379,1.6009,1.548,1.5047,1.4834,1.4601,1.4453,1.4428,1.4075,1.3916,1.3995,1.3695,1.3625,1.3691,1.3714,1.3771,1.3876,1.3982,1.408,0.1849,0.1064,0.0327,0.0347,0.0359,0.034,0.0,0.0174,0.0133,0.0046,-0.0869,-0.1608,-0.1622,-0.2574,-0.3413,-0.339,-0.3513,-0.3568,-0.3582,-0.366,-0.3677,-0.3684,-0.348,-0.3331,-0.3352,-0.3119,-0.2951,-0.2971,-0.2979,-0.299,-0.3069,-0.3033,-0.3044,-0.3044,-0.3069,-0.3018,-0.3018,-0.3021,-0.3023,-0.3023,-0.3023,-0.3023,-0.3023,-0.3023,-0.3023,-0.29,-0.0555,0.1725,0.3874,0.3874,0.3874,0.3874,0.3877,0.424,0.5026,0.7552,1.0635,1.3247,1.0996,1.0204,1.0311,1.1294,1.0966,1.0994,1.5498,1.6889,1.7072,1.8161,1.8366,1.8287,1.8145,1.8111,1.8091,1.8111,1.8077,1.8091,1.8233,1.8145,1.7989,1.786,1.7738,1.7595,1.7575,1.7494,1.7196,1.6763,1.6567,1.6479,1.6442,1.6479,1.6527,1.6579,1.656,1.6328,1.5957,1.5738,1.5398,1.4919,1.4822,1.4687,1.4564,1.4741,1.4886,1.5014,1.5218,1.5366,1.5445,1.5036,1.4833,1.4851,1.4431,1.4276,0.0729,0.0326,0.0,0.0,0.0,0.0,0.0,0.0,0.0,0.0,-0.0666,-0.1368,-0.1701,-0.2452,-0.3175,-0.3544,-0.3621,-0.3643,-0.366,-0.3656,-0.3652,-0.3652,-0.3351,-0.3321,-0.3685,-0.3761,-0.3786,-0.3813,-0.3831,-0.3855,-0.3883,-0.3914,-0.387,-0.387,-0.3881,-0.3888,-0.3888,-0.3967,-0.3967,-0.3888,-0.3967,-0.3978,-0.3974,-0.3894,-0.3888,-0.3826,-0.2715,-0.1664,-0.0616,-0.0616,-0.0616,-0.0616,-0.0616,0.0308,0.1971,0.4617,0.6573,0.7778,0.6673,0.6214,0.6231,0.6753,0.6997,0.7831,1.141,1.3445,1.5044,1.6984,1.8043,1.8565,1.8498,1.8409,1.8321,1.8247,1.8158,1.8091,1.8057,1.8077,1.8036,1.7956,1.788,1.7846,1.7629,1.7541,1.7406,1.7128,1.7087,1.7046,1.7046,1.7046,1.7066,1.7081,1.7108,1.7096,1.6889,1.6969,1.6875,1.6661,1.653,1.6419,1.6361,1.6154,1.6083,1.6141,1.5958,1.5924,1.5931,1.5753,1.5464,1.5122,1.4976,1.4764,0.0,0.0,0.0,0.0,0.0,0.0,0.0,0.0,0.0,0.0,-0.0479,-0.1082,-0.1698,-0.2286,-0.2944,-0.3595,-0.366,-0.3659,-0.3656,-0.3472,-0.3401,-0.3555,-0.297,-0.2768,-0.3354,-0.3334,-0.3371,-0.3515,-0.3604,-0.3692,-0.3904,-0.387,-0.3888,-0.3888,-0.3888,-0.3888,-0.3888,-0.397,-0.397,-0.3888,-0.397,-0.3988,-0.3994,-0.397,-0.3901,-0.3898,-0.3892,-0.3888,-0.3888,-0.3888,-0.3888,-0.3888,-0.3898,-0.2781,-0.0863,0.105,0.2653,0.3815,0.3077,0.2823,0.2747,0.2742,0.3322,0.4542,0.7389,1.008,1.2556,1.4751,1.68,1.8273,1.8187,1.8068,1.7973,1.8224,1.7947,1.7672,1.7893,1.8023,1.8057,1.7948,1.8023,1.8036,1.7805,1.7771,1.7737,1.7629,1.7595,1.7609,1.7439,1.7406,1.7412,1.7426,1.75,1.7575,1.7534,1.7684,1.7738,1.7738,1.765,1.7534,1.7534,1.7186,1.6994,1.6994,1.6746,1.6588,1.6588,1.6434,1.6089,1.5707,1.563,1.5381,0.0,0.0,0.0,0.0,0.0,0.0,0.0,0.0,0.0,0.0,-0.0492,-0.1107,-0.1662,-0.2374,-0.2973,-0.3488,-0.3667,-0.3692,-0.3604,-0.3108,-0.2937,-0.3444,-0.2514,-0.2085,-0.2669,-0.2266,-0.2247,-0.2859,-0.2944,-0.3206,-0.3843,-0.387,-0.3888,-0.3888,-0.3888,-0.3888,-0.3888,-0.3888,-0.3888,-0.3888,-0.3888,-0.3967,-0.3994,-0.3994,-0.3994,-0.3992,-0.3901,-0.3888,-0.3888,-0.3888,-0.3888,-0.3892,-0.3981,-0.3912,-0.3768,-0.3794,-0.0496,0.3508,0.0985,0.0123,0.0123,0.0061,0.0061,0.079,0.4514,0.7504,0.9847,1.1096,1.4188,1.6966,1.6716,1.6597,1.6802,1.7857,1.7188,1.6684,1.786,1.8091,1.8091,1.8091,1.8091,1.8145,1.8267,1.8301,1.8247,1.8091,1.8199,1.807,1.7494,1.7494,1.7534,1.7439,1.75,1.7534,1.7439,1.7433,1.7433,1.7433,1.7433,1.7426,1.7426,1.7514,1.7595,1.7595,1.7737,1.786,1.786,1.7252,1.6982,1.6926,1.6373,1.6236,0.0,0.0,0.0,0.0,0.0,0.0,0.0,0.0,0.0,0.0,-0.0162,-0.0482,-0.1071,-0.1409,-0.1754,-0.2314,-0.2423,-0.2408,-0.2412,-0.2247,-0.2291,-0.2855,-0.2274,-0.1888,-0.2087,-0.2007,0.0,-0.2202,-0.2642,-0.3028,-0.3293,-0.3686,-0.3888,-0.3888,-0.3888,-0.3888,-0.3888,-0.397,-0.397,-0.3888,-0.397,-0.3974,-0.3905,-0.3985,-0.3994,-0.3994,-0.3901,-0.3898,-0.3981,-0.3981,-0.3981,-0.3981,-0.3992,-0.3988,-0.3978,-0.3967,-0.2781,-0.1418,-0.2283,-0.2591,-0.2589,-0.2644,-0.2632,-0.2072,0.091,0.4224,0.7444,0.9544,1.2888,1.5821,1.5722,1.5632,1.5652,1.5823,1.5514,1.5524,1.6528,1.6851,1.7094,1.7851,1.8023,1.8111,1.8158,1.8165,1.8145,1.8091,1.8124,1.8091,1.7894,1.7914,1.788,1.7738,1.7758,1.7812,1.786,1.786,1.7914,1.8002,1.8023,1.7968,1.786,1.7914,1.7894,1.7792,1.7846,1.7915,1.7915,1.7694,1.7369,1.6988,1.6958,1.6796,0.0,0.0137,0.0332,0.03,0.0466,0.0636,0.0644,0.0651,0.0656,0.0599,0.0588,0.0315,-0.0467,-0.0623,-0.0892,-0.1666,-0.1815,-0.1801,-0.179,-0.1622,-0.1668,-0.225,-0.182,-0.1542,-0.18,-0.1817,-0.1848,-0.1888,-0.2509,-0.3014,-0.328,-0.3683,-0.3888,-0.3888,-0.3888,-0.3888,-0.3888,-0.397,-0.3974,-0.3967,-0.3994,-0.4005,-0.3998,-0.4019,-0.4023,-0.4009,-0.3929,-0.3988,-0.3994,-0.4005,-0.4012,-0.4012,-0.4023,-0.4019,-0.4009,-0.4003,-0.3929,-0.3916,-0.3894,-0.3888,-0.3888,-0.3888,-0.3874,-0.3615,-0.1959,0.0914,0.4183,0.6789,1.0275,1.3431,1.4288,1.4523,1.4553,1.469,1.4364,1.4352,1.5383,1.5954,1.6497,1.7192,1.7784,1.8111,1.8158,1.8124,1.8111,1.8158,1.8124,1.8091,1.8091,1.8036,1.8023,1.8023,1.7989,1.7989,1.8091,1.8091,1.8111,1.8158,1.8158,1.8111,1.8023,1.8002,1.7989,1.7948,1.7948,1.8024,1.8023,1.8077,1.7936,1.755,1.7734,1.7618,0.0,0.0428,0.0879,0.0891,0.1334,0.177,0.1799,0.1805,0.1745,0.1673,0.1591,0.1245,0.0101,-0.015,-0.0502,-0.1512,-0.1708,-0.1756,-0.1659,-0.1208,-0.1087,-0.1689,-0.1294,-0.1181,-0.1742,-0.1867,-0.1888,-0.1919,0.0,-0.3171,-0.3798,-0.3857,-0.3888,-0.3888,-0.3888,-0.3888,-0.3888,-0.3888,-0.3905,-0.3992,-0.4026,-0.4054,-0.4082,-0.4082,-0.4068,-0.398,-0.3978,-0.4026,-0.4003,-0.403,-0.398,-0.398,-0.4075,-0.4068,-0.3984,-0.4072,-0.4065,-0.3971,-0.3912,-0.3892,-0.3892,-0.3888,-0.3888,-0.3888,-0.3888,-0.2098,0.0493,0.3016,0.6489,1.0076,1.2412,1.3108,1.3478,1.4411,1.3726,1.3179,1.4328,1.5356,1.6071,1.6298,1.7248,1.8123,1.8265,1.8233,1.8199,1.8321,1.8233,1.8124,1.8091,1.7968,1.7989,1.8267,1.8165,1.8091,1.8091,1.8091,1.8057,1.797,1.797,1.797,1.797,1.7956,1.8024,1.8124,1.8124,1.8199,1.8335,1.8477,1.8494,1.8494,1.8508,1.864,0.0,0.01,0.0313,0.0802,0.1033,0.1262,0.1696,0.1751,0.1625,0.1203,0.1051,0.0814,0.0092,-0.0047,0.0,0.0201,0.0212,0.0168,0.0233,-0.0059,-0.0466,-0.1031,-0.1838,-0.2181,-0.1813,-0.2682,-0.3051,0.0,-0.2776,-0.2992,-0.3135,-0.3612,-0.3888,-0.3888,-0.3888,-0.3888,-0.3888,-0.397,-0.3978,-0.3898,-0.3953,-0.4034,-0.4019,-0.4041,-0.4061,-0.4072,-0.405,-0.4048,-0.4065,-0.4072,-0.4075,-0.4075,-0.4082,-0.4082,-0.4072,-0.4058,-0.3984,-0.3974,-0.396,-0.4003,-0.3981,-0.3894,-0.3888,-0.3888,-0.3888,-0.2098,0.0123,0.0801,0.4547,0.8454,0.9056,1.0622,1.2044,1.2241,1.1964,1.199,1.3131,1.3538,1.3999,1.4906,1.622,1.7512,1.848,1.8796,1.885,1.8674,1.8708,1.8599,1.8145,1.8057,1.8023,1.7989,1.7948,1.7968,1.8077,1.8199,1.8335,1.8575,1.8589,1.8643,1.8694,1.8477,1.8423,1.8643,1.8477,1.8498,1.8654,1.8694,1.8708,1.8708,1.8918,1.9061,0.0,0.0209,0.0484,0.0817,0.1098,0.1368,0.1703,0.1792,0.1651,0.1302,0.1198,0.0973,0.0463,0.0346,0.0453,0.0813,0.0874,0.0989,0.1273,0.0526,-0.0117,-0.0463,-0.1857,-0.2665,-0.2287,-0.3108,-0.3596,-0.3276,-0.3256,-0.3292,-0.3316,-0.3673,-0.3888,-0.3888,-0.3901,-0.397,-0.397,-0.3988,-0.3992,-0.3929,-0.4037,-0.4058,-0.4054,-0.4072,-0.4082,-0.4086,0.0,-0.4082,-0.4086,-0.4099,-0.4106,-0.4106,-0.4106,-0.4106,-0.4103,-0.4086,-0.4015,-0.4015,-0.4065,-0.405,-0.4026,-0.3985,-0.3898,-0.3888,-0.3888,-0.29,-0.1479,-0.0308,0.2156,0.4982,0.7225,0.8905,1.0262,1.1267,1.151,1.1627,1.2234,1.2713,1.3339,1.4443,1.5855,1.7077,1.7781,1.854,1.8959,1.8841,1.883,1.8762,1.843,1.8389,1.8409,1.8443,1.8389,1.8389,1.8477,1.8565,1.8654,1.8762,1.882,1.8854,1.8884,1.8728,1.8708,1.8871,1.8776,1.8816,1.8959,1.9027,1.9094,1.9228,1.9325,1.9434,0.0,0.0376,0.0816,0.0885,0.1321,0.1779,0.1847,0.1899,0.1874,0.17,0.1596,0.1346,0.0851,0.0724,0.0771,0.0964,0.104,0.1278,0.1769,0.0811,0.0116,0.0,-0.1633,-0.2792,-0.2828,-0.3367,-0.3744,-0.3775,-0.3806,-0.3835,-0.3922,-0.3918,-0.3892,-0.3894,-0.3981,-0.3994,-0.3994,-0.3998,-0.4012,-0.3971,-0.4068,-0.4099,-0.4124,-0.4128,-0.4117,-0.4093,0.0,0.0,-0.4093,-0.4121,-0.4131,-0.4131,-0.4131,-0.4131,-0.4131,-0.4131,-0.4131,-0.4128,-0.4099,-0.409,-0.4075,-0.4016,-0.3978,-0.3894,-0.3888,-0.3888,-0.3456,-0.1173,-0.0247,0.1109,0.6101,0.7626,0.8524,1.1114,1.1698,1.1666,1.1592,1.2342,1.332,1.4463,1.5736,1.6677,1.6859,1.804,1.8929,1.8909,1.8929,1.8943,1.8943,1.8875,1.8871,1.9115,1.9027,1.8959,1.8959,1.8972,1.8938,1.883,1.8875,1.8888,1.8943,1.8909,1.8905,1.9081,1.9081,1.9149,1.9291,1.9447,1.959,1.9773,1.9773,1.9848,0.0,0.0054,0.0277,0.0782,0.1321,0.1825,0.2185,0.236,0.2208,0.167,0.1199,0.0869,0.0666,0.0659,0.0836,0.1338,0.1838,0.2134,0.1897,0.1221,0.0584,0.0059,-0.1646,-0.282,-0.2817,-0.3408,-0.3775,-0.3806,-0.3835,-0.3866,-0.3893,-0.3929,-0.3898,-0.3988,-0.3992,-0.3994,-0.3994,-0.4019,-0.4023,-0.4003,-0.4058,-0.409,-0.4093,-0.4121,-0.4128,-0.4124,-0.4128,0.0,-0.4124,-0.4128,-0.4131,-0.4131,-0.4131,-0.4131,-0.4131,-0.4131,-0.4131,-0.4131,-0.4124,-0.4106,-0.4075,-0.4016,-0.3992,-0.3981,-0.3894,-0.3888,-0.383,-0.3421,-0.1735,0.0678,0.3784,0.6126,0.8363,1.1103,1.1698,1.1604,1.1666,1.1785,1.2266,1.3654,1.4921,1.6132,1.7223,1.8579,1.9468,1.9325,1.9434,1.9562,1.9562,1.912,1.8841,1.883,1.8875,1.8854,1.8854,1.8918,1.9027,1.9115,1.9128,1.9237,1.9501,1.9257,1.9257,1.9596,1.9596,1.9671,1.9752,1.9908,1.9997,2.0031,2.0031,2.0031,0.0,0.022,0.0558,0.0836,0.1313,0.1686,0.1619,0.1607,0.1445,0.084,0.0538,0.0379,0.0306,0.0328,0.0513,0.1105,0.1661,0.2107,0.2296,0.1392,0.0567,0.0059,-0.1649,-0.2946,-0.33,-0.3594,-0.3788,-0.3835,-0.3911,-0.3873,-0.3904,-0.387,-0.3901,-0.3994,-0.3981,-0.3978,-0.3994,-0.4009,-0.4016,-0.4019,-0.4065,-0.4093,-0.411,-0.4124,-0.4131,-0.4131,-0.4131,0.0,-0.4131,-0.4131,-0.4131,-0.4131,-0.4131,-0.4131,-0.4131,-0.4131,-0.4131,-0.4131,-0.4131,-0.4121,-0.4103,-0.4058,-0.403,-0.4016,-0.394,-0.3923,-0.3981,-0.4009,-0.2054,0.0617,0.3231,0.5789,0.841,1.1134,1.1698,1.1657,1.1751,1.1731,1.1893,1.2552,1.3776,1.5049,1.6325,1.7721,1.8827,1.9488,1.9671,1.9725,1.9725,1.9528,1.9371,1.9296,1.9296,1.9296,1.9296,1.9359,1.9447,1.9447,1.9501,1.9624,1.9827,1.9624,1.9657,1.9888,1.9888,1.9888,1.9875,1.9942,2.0031,2.0098,2.0098,2.0187,-0.0054,0.0331,0.0727,0.0888,0.1299,0.1544,0.111,0.0983,0.0784,0.0273,0.0065,0.0032,0.0127,0.0137,0.0297,0.0743,0.1277,0.1776,0.2225,0.1387,0.0442,-0.0117,-0.1648,-0.2946,-0.3712,-0.3772,-0.3793,-0.3904,-0.3862,-0.3883,-0.3911,-0.3874,-0.3901,-0.3994,-0.397,-0.397,-0.3994,-0.3994,-0.4009,-0.3978,-0.4065,-0.4097,-0.4131,-0.4131,-0.4131,-0.4131,-0.4131,0.0,0.0,-0.4128,-0.4128,-0.4121,-0.4128,-0.4131,-0.4131,-0.4131,-0.4131,-0.4131,-0.4124,-0.4124,-0.4063,-0.3905,-0.3941,-0.4048,-0.398,-0.4023,-0.3949,-0.3851,-0.2254,0.0,0.2748,0.5337,0.7989,1.1012,1.1759,1.1804,1.1878,1.1886,1.1886,1.1866,1.2903,1.4127,1.5133,1.6677,1.81,1.9117,1.959,1.9752,1.9773,1.9841,1.9875,1.9827,1.9814,1.9814,1.9814,1.9854,1.9875,1.9766,1.9854,1.9922,1.9922,1.9888,1.9929,2.0051,2.0085,2.0051,1.9922,1.9976,2.0098,2.0241,2.0241,2.0383,-0.0107,0.0055,0.0222,0.0776,0.1228,0.1512,0.144,0.146,0.1268,0.0753,0.0287,0.0123,0.048,0.0597,0.0635,0.0628,0.1167,0.1489,0.1125,0.0957,0.044,-0.0695,-0.1524,-0.2475,-0.3653,-0.3772,-0.3786,-0.3817,-0.3869,-0.3914,-0.3881,-0.3888,-0.3901,-0.3994,-0.3992,-0.3992,-0.3994,-0.3994,-0.4009,-0.3978,-0.398,-0.4011,-0.4131,-0.4131,-0.4131,-0.4131,-0.4131,0.0,0.0,-0.4121,-0.4114,-0.4093,-0.4121,-0.4131,-0.4131,-0.4131,-0.4131,-0.4128,-0.4099,-0.4106,-0.3999,-0.3392,-0.3572,-0.4075,-0.4048,-0.3974,-0.3917,-0.3308,-0.298,-0.1955,0.127,0.357,0.622,1.0709,1.1939,1.2066,1.2078,1.2078,1.2045,1.1959,1.3005,1.3901,1.3989,1.6138,1.7899,1.7892,1.9143,2.001,1.9875,1.9976,2.0085,2.0064,2.0064,2.0064,2.0064,2.0064,2.0064,2.0064,2.0064,2.0085,2.0085,1.9942,1.9936,1.9888,2.0031,2.0098,2.0085,2.0349,2.056,2.0716,2.0716,2.0804,-0.0529,0.0272,0.1105,0.1313,0.2008,0.2396,0.1756,0.1549,0.1252,0.0431,0.0125,0.0061,0.0219,0.0256,0.0266,0.025,0.0667,0.107,0.1221,0.1234,0.0753,-0.0438,-0.1071,-0.2018,-0.3646,-0.3772,-0.3793,-0.3838,-0.3898,-0.3874,-0.3888,-0.3888,-0.3894,-0.3967,-0.3967,-0.3967,-0.3967,-0.3967,-0.3985,-0.4012,-0.4012,-0.4037,-0.4011,-0.4011,-0.4011,-0.4015,-0.4097,0.0,0.0,-0.4099,-0.4106,-0.4114,-0.4106,-0.4103,-0.4106,-0.4124,-0.4121,-0.4039,-0.3661,-0.3476,-0.3418,-0.2701,-0.2699,-0.2889,-0.2882,-0.2806,-0.2737,-0.2564,-0.1273,0.0316,0.1591,0.4588,0.8061,1.1169,1.1931,1.1939,1.1939,1.198,1.2004,1.2034,1.2445,1.3339,1.4918,1.6118,1.7326,1.888,1.9714,2.0085,2.001,2.0139,2.0207,2.0119,2.0098,2.0098,2.0098,2.0098,2.0064,1.9976,2.0051,2.0098,2.0098,2.0139,2.0187,2.0275,2.0417,2.0451,2.0363,2.058,2.0716,2.077,2.077,2.0858,-0.0778,0.0376,0.1585,0.1673,0.2234,0.2585,0.1872,0.1465,0.1007,0.0161,0.0,0.0,0.0,0.0,0.0,0.0,0.0342,0.0694,0.0998,0.1138,0.0749,-0.0416,-0.0863,-0.1669,-0.3344,-0.3688,-0.3855,-0.3916,-0.3898,-0.387,-0.3888,-0.3888,-0.3888,-0.3888,-0.3888,-0.3888,-0.3888,-0.3888,-0.3963,-0.3994,-0.3994,-0.4012,-0.3978,-0.3978,-0.3978,-0.3978,0.0,0.0,0.0,-0.4072,-0.4086,-0.4103,-0.409,-0.3958,-0.3833,-0.3798,-0.3667,-0.3459,-0.2956,-0.277,-0.271,-0.1995,-0.1804,-0.1742,-0.1549,-0.1737,-0.1987,-0.1804,-0.0256,0.1652,0.2804,0.5562,0.8719,1.1412,1.1992,1.1959,1.1992,1.2045,1.2141,1.2045,1.2098,1.2693,1.4607,1.5634,1.6761,1.861,1.9641,2.0187,2.0051,2.0241,2.0329,2.0187,2.0207,2.0187,2.0098,2.0139,2.0139,2.0064,2.0207,2.0315,2.0363,2.0438,2.0505,2.0614,2.0716,2.0716,2.0614,2.077,2.0858,2.0899,2.0899,2.098,-0.0803,0.0104,0.1013,0.1546,0.1666,0.1631,0.1693,0.1182,0.0583,0.0094,0.0,0.0,0.0,0.0,0.0,0.0,0.0345,0.0449,0.0084,0.0352,0.0232,-0.0761,-0.0878,-0.1428,-0.2708,-0.3396,-0.3855,-0.3916,-0.392,0.0,-0.3885,-0.3888,-0.3888,-0.3888,-0.3888,-0.3888,-0.3888,-0.3888,-0.3963,-0.3994,-0.3994,-0.4012,-0.3978,-0.3978,-0.3978,0.0,0.0,0.0,0.0,-0.3978,-0.3978,-0.398,-0.4075,-0.3703,-0.313,-0.309,-0.271,-0.2127,-0.2047,-0.2053,-0.1998,-0.128,-0.1026,-0.0903,-0.0194,-0.0968,-0.1936,-0.1226,-0.0516,0.0965,0.4917,0.5987,0.7067,1.1209,1.217,1.2253,1.2351,1.2372,1.2339,1.2245,1.217,1.22,1.2169,1.4438,1.619,1.5967,1.8554,2.032,1.9929,2.0261,2.0422,2.0286,2.0388,2.0417,2.0119,2.0241,2.032,2.0462,2.0682,2.0824,2.098,2.0845,2.077,2.077,2.077,2.077,2.077,2.0933,2.1068,2.1211,2.1211,2.1285,-0.1478,-0.0514,0.0526,0.0702,0.1182,0.1515,0.122,0.0924,0.0555,0.0095,0.0,0.0,0.0,0.0,0.0128,0.0483,0.0637,0.089,0.1389,0.1327,0.0898,0.01,-0.1298,-0.2565,-0.3406,-0.3702,-0.3817,-0.3916,-0.388,-0.3907,-0.3885,-0.3888,-0.3888,-0.3888,-0.3888,-0.3888,-0.3888,-0.3929,-0.3932,-0.3901,-0.345,-0.3271,-0.3293,-0.2858,0.0,0.0,0.0,0.0,0.0,-0.2631,-0.2639,-0.2714,-0.2704,-0.2522,-0.2345,-0.2427,-0.2241,-0.1987,-0.1478,-0.1353,-0.1226,-0.0515,-0.0322,-0.0258,-0.0065,-0.0323,-0.071,-0.0968,0.045,0.2557,0.4717,0.6663,0.8724,1.1501,1.2098,1.2057,1.2149,1.2149,1.2086,1.2057,1.2098,1.2446,1.3295,1.5063,1.657,1.749,1.9247,2.0422,2.0349,2.0388,2.0462,2.0471,2.0442,2.0442,2.0354,2.0388,2.0422,2.0476,2.0682,2.079,2.0845,2.0892,2.0878,2.077,2.0967,2.0967,2.077,2.1123,2.1319,2.1367,2.1367,2.1387,-0.1356,-0.0605,0.031,0.0304,0.0719,0.1016,0.0752,0.0537,0.034,0.0063,0.0,0.0,0.0,0.0,0.0095,0.044,0.0765,0.1019,0.127,0.1333,0.1019,0.005,-0.1518,-0.2692,-0.3351,-0.3644,-0.3813,-0.3842,-0.3631,-0.3535,-0.3502,-0.3502,-0.3502,-0.3502,-0.3573,-0.3579,-0.3579,-0.3318,-0.3195,-0.3209,-0.2754,-0.2573,-0.2591,-0.2215,0.0,0.0,0.0,0.0,0.0,-0.199,-0.1997,-0.2074,-0.2,-0.1818,-0.1642,-0.1655,-0.1471,-0.1218,-0.077,-0.0643,-0.0578,-0.0129,0.0,0.0,0.0,0.0,-0.0129,-0.0836,0.0192,0.2046,0.4446,0.6259,0.8252,1.1337,1.2025,1.1984,1.2045,1.2066,1.2078,1.2169,1.216,1.2449,1.3335,1.4652,1.6088,1.7483,1.8448,1.9318,2.0275,2.0051,2.002,2.0476,2.0584,2.0716,2.0716,2.0661,2.0648,2.0716,2.0858,2.0933,2.0933,2.1034,2.1021,2.0858,2.1034,2.1068,2.0933,2.1279,2.1375,2.1375,2.1375,2.1375,0.0,-0.0205,0.0253,0.0252,0.0242,0.0268,0.0292,0.0138,0.0,0.0,0.0,0.0,0.0,0.0,0.0,0.0064,0.0669,0.0929,0.0195,0.0703,0.0672,-0.0756,-0.1485,-0.214,-0.2754,-0.3416,-0.3786,-0.3813,-0.33,-0.2964,-0.2986,-0.2986,-0.2986,-0.2986,-0.2949,-0.2959,-0.3021,-0.2342,-0.1972,-0.1974,-0.196,-0.1899,-0.1913,-0.1899,0.0,0.0,0.0,0.0,0.0,-0.1855,-0.1859,-0.187,-0.187,-0.1504,-0.0948,-0.0954,-0.0513,0.0,0.0,0.0,0.0,0.0,0.0,0.0,-0.0064,-0.0064,-0.0193,-0.0895,-0.0961,0.0064,0.398,0.5098,0.6295,1.1019,1.2033,1.2025,1.2192,1.217,1.2245,1.2339,1.2351,1.2351,1.2351,1.3505,1.4843,1.6131,1.6456,1.739,1.9752,1.9267,1.9118,2.0282,2.0773,2.1001,2.1034,2.0892,2.0858,2.1001,2.1143,2.1231,2.1211,2.1231,2.1157,2.1001,2.1001,2.1068,2.1231,2.1353,2.1421,2.1375,2.1375,2.1375,-0.0161,0.0,-0.0392,-0.0314,-0.0104,0.0068,0.0,0.0033,0.0,0.0,0.0,0.0,0.0,0.0,0.0128,0.053,0.0767,0.0951,0.1107,0.0962,0.0408,-0.0788,-0.1493,-0.2147,-0.2758,-0.3415,-0.3786,-0.3813,-0.3645,-0.3602,-0.3688,-0.3688,-0.3688,-0.3688,-0.2681,-0.2387,-0.2936,-0.2265,-0.1963,-0.1974,-0.1409,-0.1164,-0.1235,-0.0678,0.0,0.0,0.0,0.0,-0.0495,-0.0494,-0.0494,-0.0495,-0.0495,-0.0374,-0.0252,-0.0253,-0.0128,0.0,0.0,0.0,0.0,0.0,0.0,-0.0064,-0.064,-0.0768,-0.0896,-0.1597,-0.0634,0.1067,0.3564,0.5745,0.8071,1.1326,1.2078,1.2098,1.2149,1.218,1.2139,1.216,1.216,1.216,1.216,1.3357,1.4423,1.4794,1.5833,1.678,1.7394,1.8302,1.9012,1.9412,2.0364,2.1089,2.1319,2.1197,2.1123,2.1157,2.1299,2.1333,2.1211,2.1319,2.1265,2.1001,2.1001,2.1123,2.1321,2.1299,2.1319,2.1375,2.1375,2.1375,0.0,-0.0282,-0.0531,-0.0524,-0.0362,-0.0232,-0.0227,-0.0096,0.0,0.0,0.0,0.0,0.0,0.0,0.0097,0.0389,0.0586,0.0778,0.1048,0.0684,0.0054,-0.0809,-0.1521,-0.2119,-0.274,-0.3433,-0.3779,-0.3795,-0.3511,-0.3346,-0.3418,-0.3418,-0.3418,-0.3418,-0.271,-0.2364,-0.244,-0.1531,-0.1045,-0.1049,-0.0674,-0.049,-0.0556,-0.0184,0.0,0.0,0.0,0.0,0.0,0.0,0.0,0.0,0.0,0.0,0.0,0.0,0.0,0.0,0.0,0.0,0.0,0.0,0.0,-0.0128,-0.0766,-0.1212,-0.1594,-0.2288,-0.1708,-0.0126,0.3121,0.507,0.7172,1.1145,1.2098,1.2119,1.2213,1.2192,1.218,1.2266,1.2286,1.2298,1.2339,1.3018,1.3783,1.4474,1.4665,1.5243,1.6592,1.7462,1.8237,1.9018,2.0286,2.1197,2.1355,2.1301,2.1319,2.1319,2.1387,2.1367,2.1211,2.1299,2.1231,2.1001,2.1068,2.1177,2.1333,2.1387,2.1462,2.155,2.1618,2.1638,-0.0087,-0.0248,-0.0427,-0.0424,-0.043,-0.0434,-0.0427,-0.0191,0.0,0.0,0.0,0.0,0.0,0.0,-0.0033,-0.0104,0.0146,0.0401,0.0516,0.0204,-0.0218,-0.0803,-0.1509,-0.2111,-0.2738,-0.3433,-0.3772,-0.3772,-0.3262,-0.2976,-0.2976,-0.2976,-0.2976,-0.2976,-0.2859,-0.258,-0.2068,-0.0798,-0.0123,-0.0123,-0.0061,0.0,0.0,0.0,0.0,0.0,0.0,0.0,0.0,0.0,0.0,0.0,0.0,0.0,0.0,0.0,0.0,0.0,0.0,0.0,0.0,0.0,0.0,-0.0127,-0.0957,-0.153,-0.2164,-0.2977,-0.3172,-0.2222,0.2315,0.3718,0.5277,1.0314,1.1832,1.218,1.2274,1.2235,1.2339,1.2498,1.2527,1.2547,1.2621,1.2568,1.3052,1.4363,1.3476,1.3529,1.5903,1.6574,1.7361,1.8659,2.0232,2.1279,2.1421,2.1375,2.1389,2.1409,2.1389,2.1321,2.1245,2.1231,2.1157,2.1068,2.119,2.1245,2.1245,2.153,2.1672,2.1672,2.1815,2.1882,-0.0421,-0.0286,-0.0065,-0.0062,-0.0064,-0.0066,-0.0064,-0.0032,0.0,0.0,0.0,0.0,0.0,0.0,-0.0143,-0.0602,-0.0617,-0.041,0.0051,0.0053,-0.022,-0.0816,-0.1468,-0.2124,-0.274,-0.3433,-0.3772,-0.3772,-0.3716,-0.366,-0.366,-0.366,-0.366,-0.366,-0.3089,-0.2746,-0.2633,-0.1397,-0.0734,-0.0734,-0.0246,0.0,0.0,0.0,0.0,0.0,0.0,0.0,0.0,0.0,0.0,0.0,0.0,0.0,0.0,0.0,0.0,0.0,0.0,0.0,0.0,0.0,0.0,-0.0253,-0.1529,-0.197,-0.2278,-0.3562,-0.3875,-0.3159,-0.0252,0.2341,0.4972,0.8074,1.0641,1.2466,1.2547,1.2572,1.258,1.2613,1.2613,1.2621,1.2568,1.2568,1.2678,1.2812,1.2797,1.2863,1.3253,1.5552,1.7252,1.7474,1.9703,2.1279,2.1421,2.1375,2.1496,2.1638,2.1509,2.1421,2.1341,2.1279,2.1265,2.1367,2.1387,2.1341,2.1341,2.1584,2.1672,2.1672,2.1815,2.1882,-0.0233,-0.0154,0.0,0.0,0.0,0.0,0.0,0.0,0.0,0.0,0.0,0.0,0.0,0.0,-0.0077,-0.0337,-0.0369,-0.0298,-0.0053,-0.0273,-0.0566,-0.088,-0.1774,-0.2495,-0.2802,-0.3433,-0.3653,-0.33,-0.3241,0.0,-0.3241,-0.3241,-0.3417,-0.3772,-0.3489,-0.3317,-0.3317,-0.2398,-0.1574,-0.0916,-0.0613,-0.0307,0.0,0.0,0.0,0.0,0.0,0.0,0.0,0.0,0.0,0.0,0.0,0.0,0.0,0.0,0.0,0.0,0.0,0.0,0.0,0.0,-0.0252,-0.0762,-0.1785,-0.2362,-0.2813,-0.3785,-0.4075,-0.3035,0.121,0.3267,0.5354,0.9554,1.1563,1.258,1.2621,1.2601,1.2592,1.2686,1.2666,1.26,1.276,1.278,1.2768,1.2727,1.2792,1.2833,1.2792,1.5256,1.7103,1.7163,1.959,2.1279,2.1421,2.1509,2.1638,2.1774,2.1652,2.1597,2.1672,2.1455,2.1441,2.1672,2.1597,2.1597,2.1686,2.1828,2.1916,2.1916,2.2059,2.2127,-0.0116,-0.0061,-0.0032,-0.0132,-0.0069,0.0,0.0,0.0,0.0,0.0,0.0,0.0,0.0,-0.0115,-0.0126,0.0,-0.01,-0.0159,0.0,-0.0393,-0.081,-0.1117,-0.1837,-0.2497,-0.2794,-0.3134,-0.3123,-0.2652,0.0,0.0,-0.2593,-0.2593,-0.2887,-0.3535,-0.3594,-0.3653,-0.3772,-0.3262,-0.2456,-0.1335,-0.1036,-0.0673,-0.0185,-0.0061,0.0,0.0,0.0,0.0,0.0,0.0,0.0,0.0,0.0,0.0,0.0,0.0,0.0,0.0,0.0,0.0,0.0,-0.0188,-0.0569,-0.1149,-0.2046,-0.2694,-0.3219,-0.3935,-0.4033,-0.3053,0.1223,0.3305,0.5344,0.9648,1.1642,1.2568,1.2568,1.258,1.258,1.2739,1.2719,1.2719,1.2874,1.2907,1.2895,1.2874,1.2895,1.2895,1.2874,1.4958,1.6668,1.7157,1.9381,2.0997,2.1517,2.1672,2.1794,2.1971,2.1815,2.1774,2.1882,2.1672,2.1652,2.1882,2.1774,2.1774,2.1882,2.2038,2.2113,2.2113,2.2269,2.2268,-0.0441,-0.0286,-0.0096,-0.0473,-0.0275,0.0,0.0,0.0,0.0,0.0,0.0,0.0,0.0,-0.0387,-0.0562,-0.0101,-0.042,-0.0546,-0.0057,-0.0057,-0.0521,-0.1705,-0.1356,-0.1474,-0.2712,-0.2356,-0.2003,-0.1944,0.0,0.0,-0.1944,-0.1944,-0.2238,-0.2828,-0.2887,-0.3182,-0.3772,-0.3775,-0.3377,-0.2628,-0.1454,-0.0855,-0.0794,-0.0246,0.0,0.0,0.0,0.0,0.0,0.0,0.0,0.0,0.0,0.0,0.0,0.0,0.0,0.0,0.0,0.0,-0.0125,-0.0698,-0.0956,-0.1278,-0.264,-0.3082,-0.3264,-0.3931,-0.4128,-0.3999,-0.3707,0.0325,0.4366,0.4727,0.8808,1.2568,1.2568,1.2568,1.2654,1.2748,1.276,1.2792,1.2886,1.2907,1.2874,1.2792,1.2854,1.2874,1.2792,1.4182,1.5691,1.704,1.8678,2.0265,2.1902,2.1937,2.1991,2.222,2.2025,2.1862,2.1882,2.1862,2.1862,2.1882,2.1862,2.1862,2.1882,2.2038,2.2113,2.2113,2.2269,2.2268,-0.0182,-0.0125,-0.0033,-0.0174,-0.0108,0.0,0.0,0.0,0.0,0.0,0.0,0.0,0.0,-0.0185,-0.0245,-0.0052,-0.0163,-0.0225,0.0,-0.0349,-0.0761,-0.1236,-0.1414,-0.1708,-0.2179,-0.2062,-0.1708,-0.1296,0.0,0.0,-0.1296,-0.1296,-0.159,-0.2238,-0.2593,-0.2938,-0.3159,-0.3585,-0.365,-0.3349,-0.21,-0.1276,-0.0855,-0.0246,0.0,0.0,0.0,0.0,0.0,0.0,0.0,0.0,0.0,-0.0249,-0.0559,-0.0125,-0.025,-0.0562,-0.0126,-0.0252,-0.0692,-0.089,-0.1595,-0.2429,-0.2961,-0.3415,-0.3798,-0.4084,-0.4155,-0.3772,-0.1963,0.131,0.4656,0.6474,0.983,1.2568,1.2568,1.2592,1.2601,1.2739,1.2727,1.2727,1.2886,1.2907,1.2919,1.2939,1.2919,1.2919,1.2939,1.4241,1.5671,1.7148,1.9493,2.1273,2.2024,2.2059,2.2113,2.2323,2.2059,2.1971,2.216,2.1903,2.1882,2.216,2.1991,2.1971,2.216,2.2215,2.2249,2.2249,2.2303,2.2268,0.0,0.0,0.0,0.0,0.0,0.0,0.0,0.0,0.0,0.0,0.0,0.0,0.0,0.0,0.0,0.0,0.0,0.0,0.0,-0.0351,-0.0705,-0.0884,-0.1119,-0.1355,-0.159,-0.1411,-0.1115,-0.0646,0.0,0.0,0.0,-0.0588,-0.0943,-0.159,-0.2003,-0.2291,-0.2513,-0.2996,-0.3173,-0.3097,-0.2323,-0.1689,-0.1217,-0.0368,0.0,0.0,0.0,0.0,0.0,0.0,0.0,0.0,0.0,-0.0436,-0.0931,-0.0251,-0.044,-0.0878,-0.0253,-0.0443,-0.1015,-0.1277,-0.2113,-0.3141,-0.3351,-0.3744,-0.4135,-0.4155,-0.4173,-0.3731,-0.1776,0.1445,0.4661,0.6612,0.9864,1.2547,1.2547,1.2527,1.2547,1.2699,1.2699,1.2727,1.2874,1.2907,1.2927,1.2993,1.2948,1.2927,1.2993,1.4309,1.5958,1.7948,2.0402,2.1916,2.2025,2.2004,2.2038,2.2181,2.2004,2.2025,2.2323,2.2038,2.2004,2.22,2.2059,2.2059,2.2269,2.2269,2.2289,2.2268,2.2268,2.2268,0.0,0.0,0.0,0.0,0.0,0.0,0.0,0.0,0.0,0.0,0.0,0.0,0.0,0.0,0.0,0.0,0.0,0.0,0.0,0.0,-0.0233,-0.0824,-0.0353,-0.0236,-0.0825,-0.0351,0.0,0.0,0.0,0.0,0.0,0.0,-0.0295,-0.0884,-0.0884,-0.1237,-0.1885,-0.1885,-0.1885,-0.1885,-0.1901,-0.1916,-0.187,-0.0608,0.0,0.0,0.0,0.0,0.0,0.0,0.0,0.0,0.0,-0.0437,-0.0937,-0.0252,-0.0442,-0.0884,-0.0255,-0.0447,-0.115,-0.1866,-0.2581,-0.3227,-0.3873,-0.4131,-0.4131,-0.4131,-0.4173,-0.4218,-0.4218,-0.0065,0.4039,0.4003,0.8262,1.2372,1.2372,1.2445,1.2527,1.2613,1.2707,1.2801,1.2886,1.2907,1.2907,1.2907,1.2907,1.2907,1.2907,1.4331,1.6461,1.9423,2.1063,2.1882,2.1882,2.176,2.174,2.1882,2.1882,2.2025,2.2323,2.2268,2.2269,2.2113,2.2113,2.2113,2.2113,2.2113,2.2201,2.2268,2.2268,2.2268,0.0,0.0,0.0,0.0,0.0,0.0,0.0,0.0,0.0,0.0,0.0,0.0,0.0,0.0,0.0,0.0,0.0,0.0,0.0,0.0,-0.0059,-0.0236,-0.0118,-0.0059,-0.0236,-0.0117,0.0,0.0,0.0,0.0,0.0,0.0,-0.0059,-0.0236,-0.0707,-0.0999,-0.1168,-0.1645,-0.188,-0.1811,-0.1421,-0.1432,-0.1855,-0.1031,-0.0611,-0.0613,-0.0184,0.0,0.0,0.0,-0.0309,-0.068,-0.0685,-0.143,-0.2295,-0.1138,-0.1141,-0.158,-0.0961,-0.1154,-0.1852,-0.2575,-0.328,-0.3847,-0.4059,-0.4131,-0.4135,-0.4155,-0.4173,-0.4197,-0.424,-0.1584,0.164,0.355,0.6792,0.9976,1.1991,1.2445,1.2527,1.2613,1.2707,1.2801,1.2886,1.2907,1.2927,1.2993,1.3001,1.3042,1.3168,1.4448,1.5752,1.6687,1.8945,2.0453,2.0453,2.1308,2.1882,2.2038,2.2038,2.2038,2.2025,2.2127,2.216,2.2113,2.2113,2.216,2.2269,2.2269,2.2289,2.2268,2.2268,2.222,0.0,0.0,0.0,0.0,0.0,0.0,0.0,0.0,0.0,0.0,0.0,0.0,0.0,0.0,0.0,0.0,0.0,0.0,0.0,0.0,0.0,0.0,0.0,0.0,0.0,0.0,0.0,0.0,0.0,0.0,0.0,0.0,0.0,0.0,-0.0353,-0.0529,-0.0526,-0.094,-0.1116,-0.1111,-0.0945,-0.1127,-0.1484,-0.0844,-0.0548,-0.0549,-0.0185,0.0,0.0,0.0,-0.037,-0.0989,-0.0996,-0.1802,-0.2846,-0.1772,-0.1841,-0.2276,-0.1669,-0.1866,-0.2502,-0.2963,-0.3538,-0.4106,-0.4124,-0.4131,-0.4135,-0.4152,-0.4166,-0.4184,-0.4233,-0.3047,-0.0793,0.3092,0.6148,0.8959,1.1806,1.2445,1.2527,1.2613,1.2707,1.2801,1.2886,1.2907,1.2927,1.298,1.2954,1.3303,1.4053,1.4912,1.565,1.6256,1.8343,1.9677,1.9615,2.0893,2.1774,2.1937,2.1991,2.195,2.1815,2.2004,2.2079,2.2025,2.2025,2.2093,2.2249,2.2249,2.222,2.2268,2.2268,2.2289,0.0,0.0,0.0,0.0,0.0,0.0,0.0,0.0,0.0,0.0,0.0,0.0,0.0,0.0,0.0,0.0,0.0,0.0,0.0,0.0,0.0,0.0,0.0,0.0,0.0,0.0,0.0,0.0,0.0,0.0,0.0,0.0,0.0,0.0,0.0,0.0,0.0,0.0,0.0,0.0,-0.053,-0.0825,-0.0825,-0.0359,-0.0121,-0.0061,0.0,0.0,0.0,0.0,-0.0432,-0.1112,-0.1119,-0.1924,-0.3031,-0.2339,-0.2474,-0.2908,-0.2373,-0.2579,-0.3098,-0.3163,-0.3615,-0.4131,-0.4131,-0.4131,-0.4131,-0.4131,-0.4148,-0.4177,-0.4211,-0.424,-0.2924,0.2374,0.5759,0.8581,1.1427,1.226,1.2539,1.2621,1.2719,1.2813,1.2895,1.2907,1.2907,1.2919,1.3001,1.3553,1.5016,1.5221,1.5694,1.6983,1.8432,1.9262,1.9135,2.0538,2.155,2.1706,2.1828,2.1848,2.1726,2.1971,2.2038,2.1882,2.1903,2.1971,2.2127,2.2127,2.2201,2.2268,2.2268,2.2268,0.0,0.0,0.0,0.0,0.0,0.0,0.0,0.0,0.0,0.0,0.0,0.0,0.0,0.0,0.0,0.0,0.0,0.0,0.0,0.0,0.0,0.0,0.0,0.0,0.0,0.0,0.0,0.0,0.0,0.0,0.0,0.0,0.0,0.0,0.0,0.0,0.0,0.0,0.0,0.0,-0.0118,-0.0177,-0.0236,-0.1071,-0.1204,-0.0671,-0.0185,0.0,0.0,0.0,-0.0679,-0.1789,-0.1792,-0.2596,-0.3647,-0.2998,-0.2894,-0.2972,-0.2934,-0.2954,-0.3163,-0.3744,-0.4002,-0.4131,-0.4131,-0.4131,-0.4131,-0.4131,-0.4135,-0.4152,-0.4204,-0.4222,-0.3372,0.0,0.2902,0.5694,0.8516,1.0904,1.2613,1.2568,1.2768,1.2886,1.2907,1.2907,1.2927,1.3001,1.3086,1.3309,1.3683,1.3697,1.3783,1.4056,1.6336,1.7824,1.7796,2.0234,2.1848,2.2004,2.2038,2.2038,2.2025,2.2079,2.2038,2.1882,2.2004,2.2127,2.2289,2.2289,2.2303,2.2268,2.2268,2.2269,0.0,0.0,0.0,0.0,0.0,0.0,0.0,0.0,0.0,0.0,0.0,0.0,0.0,0.0,0.0,0.0,0.0,0.0,0.0,0.0,0.0,0.0,0.0,0.0,0.0,0.0,0.0,0.0,0.0,0.0,0.0,0.0,0.0,0.0,0.0,0.0,0.0,0.0,0.0,0.0,0.0,-0.0177,-0.0471,-0.1129,-0.1203,-0.0855,-0.0552,-0.0246,0.0,-0.037,-0.105,-0.2036,-0.2344,-0.3085,-0.3892,-0.361,-0.345,-0.3475,-0.3566,-0.3593,-0.3615,-0.4002,-0.4131,-0.4131,-0.4131,-0.4131,-0.4131,-0.4131,-0.4131,-0.4146,-0.4204,-0.4218,-0.3833,-0.247,0.0995,0.4789,0.7623,1.051,1.258,1.2621,1.2748,1.2854,1.2895,1.2907,1.2927,1.2968,1.3054,1.3127,1.3168,1.314,1.3127,1.3168,1.5007,1.6301,1.6409,1.9069,2.0853,2.1005,2.1709,2.2113,2.2113,2.2113,2.2079,2.1991,2.2072,2.2181,2.2268,2.2268,2.2268,2.2268,2.2268,2.2234,0.0,0.0,0.0,0.0,0.0,0.0,0.0,0.0,0.0,0.0,0.0,0.0,0.0,0.0,0.0,0.0,0.0,0.0,0.0,0.0,0.0,0.0,0.0,0.0,0.0,0.0,0.0,0.0,0.0,0.0,0.0,0.0,0.0,0.0,0.0,0.0,0.0,0.0,0.0,0.0,0.0,-0.0294,-0.0882,-0.0889,-0.0959,-0.1095,-0.1098,-0.0796,-0.037,-0.0925,-0.1544,-0.2221,-0.2776,-0.3394,-0.3892,-0.3985,-0.4016,-0.398,-0.4075,-0.4106,-0.4131,-0.4131,-0.4131,-0.4131,-0.4131,-0.4131,-0.4131,-0.4131,-0.4131,-0.4146,-0.4204,-0.4218,-0.4233,-0.4296,-0.0399,0.3944,0.6278,0.9406,1.1854,1.185,1.2393,1.2821,1.2895,1.2907,1.2907,1.2907,1.298,1.2974,1.2974,1.2974,1.3074,1.316,1.4322,1.5234,1.5694,1.8105,1.9843,2.0276,2.1455,2.2147,2.2113,2.2113,2.2093,2.2079,2.2079,2.216,2.2268,2.2303,2.2254,2.2268,2.2268,2.2268,0.0,0.0,0.0,0.0,0.0,0.0,0.0,0.0,0.0,0.0,0.0,0.0,0.0,0.0,0.0,0.0,0.0,0.0,0.0,0.0,0.0,0.0,0.0,0.0,0.0,0.0,0.0,0.0,0.0,0.0,0.0,0.0,0.0,0.0,0.0,0.0,0.0,0.0,0.0,0.0,0.0,-0.0293,-0.0875,-0.0882,-0.1245,-0.1795,-0.1759,-0.1711,-0.1651,-0.1784,-0.2283,-0.29,-0.2961,-0.3394,-0.3892,-0.3985,-0.4016,-0.398,-0.4075,-0.4106,-0.4131,-0.4131,-0.4131,-0.4131,-0.4131,-0.4131,-0.4131,-0.4131,-0.4131,-0.4146,-0.4204,-0.4218,-0.4233,-0.4296,-0.1872,0.0531,0.0929,0.5238,0.902,0.9029,1.1153,1.2895,1.2907,1.2907,1.2907,1.2907,1.298,1.2974,1.2974,1.2974,1.3074,1.316,1.4507,1.5903,1.7331,1.9018,2.0601,2.1895,2.2165,2.2249,2.2113,2.2113,2.2038,2.1916,2.1916,2.2059,2.2268,2.2201,2.2215,2.2268,2.2268,2.2268,0.0,0.0,0.0,0.0,0.0,0.0,0.0,0.0,0.0,0.0,0.0,0.0,0.0,0.0,0.0,0.0,0.0,0.0,0.0,0.0,0.0,0.0,0.0,0.0,0.0,0.0,0.0,0.0,0.0,0.0,0.0,0.0,0.0,0.0,0.0,0.0,0.0,0.0,0.0,0.0,0.0,-0.0117,-0.0405,-0.1113,-0.1598,-0.1908,-0.1922,-0.1877,-0.1953,-0.2326,-0.2705,-0.3023,-0.3394,-0.3641,-0.3892,-0.3985,-0.4016,-0.398,-0.4075,-0.4106,-0.4131,-0.4131,-0.4131,-0.4131,-0.4131,-0.4131,-0.4131,-0.4131,-0.4131,-0.4146,-0.4204,-0.4218,-0.4233,-0.4296,-0.3358,-0.2478,-0.2478,0.3333,0.8986,1.0624,1.2009,1.2907,1.2907,1.2907,1.2907,1.2907,1.2939,1.2968,1.2968,1.2968,1.3355,1.4311,1.4956,1.6039,1.7724,1.9173,2.037,2.1004,2.1773,2.2181,2.2113,2.2025,2.195,2.1882,2.1882,2.195,2.2079,2.2025,2.2025,2.2079,2.2079,2.2079,0.0,0.0,0.0,0.0,0.0,0.0,0.0,0.0,0.0,0.0,0.0,0.0,0.0,0.0,0.0,0.0,0.0,0.0,0.0,0.0,0.0,0.0,0.0,0.0,0.0,0.0,0.0,0.0,0.0,0.0,0.0,0.0,0.0,0.0,0.0,0.0,0.0,0.0,-0.0059,-0.0232,-0.0234,-0.0292,-0.0518,-0.1456,-0.194,-0.2134,-0.2321,-0.2405,-0.2435,-0.2925,-0.3186,-0.3271,-0.3703,-0.3888,-0.3892,-0.3992,-0.4019,-0.3984,-0.4086,-0.4114,-0.4131,-0.4131,-0.4131,-0.4131,-0.4131,-0.4131,-0.4131,-0.4131,-0.4135,-0.4152,-0.4204,-0.4225,-0.4242,-0.4296,-0.4309,-0.4107,-0.3366,0.241,0.8279,1.1206,1.2434,1.2907,1.2907,1.2907,1.2907,1.2907,1.2907,1.2907,1.2907,1.2907,1.3502,1.516,1.532,1.6126,1.8185,1.9291,2.0102,2.0551,2.1497,2.2038,2.2004,2.1882,2.1815,2.1774,2.1774,2.1815,2.1882,2.1848,2.1862,2.1937,2.1903,2.1903,0.0,0.0,0.0,0.0,0.0,0.0,0.0,0.0,0.0,0.0,0.0,0.0,0.0,0.0,0.0,0.0,0.0,0.0,0.0,0.0,0.0,0.0,0.0,0.0,0.0,0.0,0.0,0.0,0.0,0.0,0.0,0.0,0.0,0.0,0.0,0.0,0.0,0.0,-0.0292,-0.0863,-0.0871,-0.1159,-0.1725,-0.1784,-0.2139,-0.28,-0.3437,-0.3715,-0.3802,-0.3833,-0.3861,-0.3826,-0.3888,-0.3888,-0.3894,-0.3953,-0.3978,-0.3984,-0.4106,-0.4131,-0.4131,-0.4131,-0.4131,-0.4131,-0.4131,-0.4131,-0.4131,-0.4131,-0.4148,-0.4177,-0.4211,-0.424,-0.4271,-0.4302,-0.4309,-0.3568,-0.0806,0.2283,0.5371,0.8256,1.1013,1.2907,1.2907,1.2907,1.2907,1.2907,1.2907,1.2907,1.2907,1.2907,1.3481,1.5065,1.52,1.6394,1.9374,1.9651,2.033,2.1706,2.1896,2.1828,2.1706,2.1686,2.1618,2.1455,2.1455,2.1597,2.1882,2.174,2.1828,2.2093,2.195,2.195,0.0,0.0,0.0,0.0,0.0,0.0,0.0,0.0,0.0,0.0,0.0,0.0,0.0,0.0,0.0,0.0,0.0,0.0,0.0,0.0,0.0,0.0,0.0,0.0,0.0,0.0,0.0,0.0,0.0,0.0,0.0,0.0,0.0,0.0,0.0,0.0,0.0,-0.0412,-0.0703,-0.0927,-0.1279,-0.1622,-0.1897,-0.2242,-0.2542,-0.2852,-0.3457,-0.3795,-0.3922,-0.3891,-0.3922,-0.3888,-0.3888,-0.3888,-0.3892,-0.3994,-0.4023,-0.3984,-0.409,-0.4114,-0.4131,-0.4131,-0.4131,-0.4131,-0.4131,-0.4131,-0.4131,-0.4131,-0.4152,-0.418,-0.4211,-0.424,-0.4271,-0.4302,-0.4309,-0.404,-0.2959,0.0941,0.5173,0.8055,1.0946,1.2907,1.2907,1.2907,1.2927,1.2993,1.2993,1.3013,1.3066,1.3832,1.4984,1.6502,1.6654,1.7813,2.0853,2.0311,2.0385,2.1815,2.1794,2.1726,2.1672,2.1584,2.1496,2.1375,2.1375,2.1496,2.1597,2.155,2.1584,2.1619,2.1618,2.1564,0.0,0.0,0.0,0.0,0.0,0.0,0.0,0.0,0.0,0.0,0.0,0.0,0.0,0.0,0.0,0.0,0.0,0.0,0.0,0.0,0.0,0.0,0.0,0.0,0.0,0.0,0.0,0.0,0.0,0.0,0.0,0.0,0.0,0.0,0.0,0.0,0.0,-0.0587,-0.0995,-0.1222,-0.1794,-0.2244,-0.2463,-0.2856,-0.3042,-0.3131,-0.3547,-0.3775,-0.392,-0.388,-0.3911,-0.3888,-0.3888,-0.3888,-0.3892,-0.3985,-0.4016,-0.398,-0.4075,-0.4106,-0.4131,-0.4131,-0.4131,-0.4131,-0.4131,-0.4131,-0.4135,-0.4142,-0.4166,-0.4193,-0.4225,-0.4257,-0.4285,-0.4305,-0.4309,-0.4309,-0.4309,0.0202,0.4837,0.6783,1.0279,1.2919,1.2948,1.2948,1.2968,1.2966,1.2974,1.3054,1.3074,1.3912,1.497,1.6518,1.7068,1.8328,2.0839,2.0583,2.0718,2.1673,2.1652,2.1597,2.1597,2.1496,2.1375,2.1375,2.1375,2.1375,2.1375,2.1375,2.1409,2.1509,2.1455,2.1375,0.0,0.0,0.0,0.0,0.0,0.0,0.0,0.0,0.0,0.0,0.0,0.0,0.0,0.0,0.0,0.0,0.0,0.0,0.0,0.0,0.0,0.0,0.0,0.0,0.0,0.0,0.0,0.0,0.0,0.0,0.0,0.0,0.0,0.0,0.0,0.0,0.0,-0.0643,-0.1222,-0.1862,-0.246,-0.301,-0.3579,-0.3604,-0.3625,-0.3684,-0.3712,-0.3775,-0.392,-0.392,-0.3898,-0.3888,-0.3888,-0.3888,-0.3892,-0.3981,-0.4012,-0.398,-0.4075,-0.4103,-0.4131,-0.4131,-0.4131,-0.4131,-0.4131,-0.4131,-0.4137,-0.4166,-0.4193,-0.4225,-0.4257,-0.4289,-0.4309,-0.4309,-0.4309,-0.4309,-0.4309,0.0202,0.4298,0.4298,0.8932,1.2939,1.3021,1.2974,1.2974,1.2974,1.2974,1.3013,1.2927,1.2907,1.3518,1.4919,1.6307,1.7773,1.9237,2.0572,2.1302,2.1375,2.1375,2.1375,2.1375,2.1375,2.1375,2.1375,2.1375,2.1375,2.1375,2.1375,2.1509,2.1719,2.1509,2.1375,0.0,0.0,0.0,0.0,0.0,0.0,0.0,0.0,0.0,0.0,0.0,0.0,0.0,0.0,0.0,0.0,0.0,0.0,0.0,0.0,0.0,0.0,0.0,0.0,0.0,0.0,0.0,0.0,0.0,0.0,0.0,0.0,0.0,0.0,0.0,-0.0236,-0.0648,-0.1227,-0.1862,-0.2503,-0.3091,-0.3475,-0.3667,-0.3614,-0.3636,-0.3712,-0.3699,-0.3757,-0.392,-0.3883,-0.3914,-0.3888,-0.3888,-0.3888,-0.3888,-0.3898,-0.3932,-0.3978,-0.405,-0.4086,-0.4131,-0.4131,-0.4131,-0.4131,-0.4131,-0.4146,-0.4162,-0.417,-0.4211,-0.4257,-0.4289,-0.4302,-0.4309,-0.4309,-0.4309,-0.4309,-0.4309,0.0202,0.4298,0.4298,0.8932,1.2919,1.2939,1.2948,1.2968,1.2966,1.2974,1.3054,1.3095,1.3989,1.5085,1.6493,1.6019,1.704,2.0499,1.931,1.9237,2.1236,2.1375,2.1375,2.1375,2.1375,2.1375,2.1375,2.1375,2.1375,2.1375,2.1375,2.1455,2.1509,2.1455,2.1375,0.0,0.0,0.0,0.0,0.0,0.0,0.0,0.0,0.0,0.0,0.0,0.0,0.0,0.0,0.0,0.0,0.0,0.0,0.0,0.0,0.0,0.0,-0.0221,-0.0387,-0.0391,-0.0392,-0.0395,-0.04,-0.0115,0.0,0.0,0.0,0.0,0.0,0.0,-0.0295,-0.0884,-0.1514,-0.2143,-0.2778,-0.3316,-0.3645,-0.366,-0.3625,-0.3652,-0.3726,-0.3694,-0.3748,-0.392,-0.3876,-0.3911,-0.3888,-0.3888,-0.3888,-0.3888,-0.3901,-0.3936,-0.398,-0.4054,-0.409,-0.4131,-0.4131,-0.4131,-0.4131,-0.4131,-0.4142,-0.4159,-0.4184,-0.4236,-0.4289,-0.4305,-0.4309,-0.4309,-0.4309,-0.4309,-0.4309,-0.4309,0.0202,0.4298,0.4298,0.8932,1.2919,1.296,1.296,1.298,1.2966,1.3074,1.3086,1.3066,1.3829,1.4643,1.5408,1.5753,1.6987,1.9456,1.9268,1.963,2.1302,2.1375,2.1375,2.1375,2.1375,2.1375,2.1375,2.1375,2.1375,2.1375,2.1375,2.1375,2.1375,2.1375,2.1409,0.0,0.0,0.0,0.0,0.0,0.0,0.0,0.0,0.0,0.0,0.0,0.0,0.0,0.0,0.0,0.0,0.0,0.0,0.0,0.0,0.0,0.0,-0.0493,-0.0824,-0.0775,-0.0836,-0.0899,-0.0906,-0.0403,-0.0058,0.0,0.0,0.0,0.0,0.0,-0.0353,-0.1001,-0.1508,-0.2127,-0.282,-0.3367,-0.3579,-0.3579,-0.3579,-0.361,-0.3719,-0.3692,-0.3748,-0.3916,-0.3916,-0.3891,-0.3888,-0.3888,-0.3888,-0.3892,-0.3985,-0.4016,-0.398,-0.4075,-0.4106,-0.4131,-0.4131,-0.4131,-0.4131,-0.4131,-0.4135,-0.4152,-0.4211,-0.4267,-0.4309,-0.4309,-0.4309,-0.4309,-0.4309,-0.404,-0.3838,-0.3838,0.0739,0.477,0.477,0.92,1.2927,1.3013,1.2966,1.2966,1.2966,1.3095,1.3095,1.2939,1.3066,1.3208,1.3269,1.5543,1.7218,1.7493,1.9784,2.1236,2.1375,2.1375,2.1375,2.1375,2.1375,2.1375,2.1375,2.1375,2.1375,2.1375,2.1375,2.1375,2.1375,2.1375,2.153,0.0,0.0,0.0,0.0,0.0,0.0,0.0,0.0,0.0,0.0,0.0,0.0,0.0,0.0,0.0,0.0,0.0,0.0,0.0,0.0,0.0,0.0,-0.011,-0.0166,-0.0166,-0.0607,-0.0883,-0.089,-0.0792,-0.0517,0.0,0.0,0.0,0.0,0.0,-0.053,-0.1708,-0.174,-0.2366,-0.3483,-0.3549,-0.3579,-0.3579,-0.3579,-0.3656,-0.3688,-0.3684,-0.3737,-0.3824,-0.3824,-0.3873,-0.3888,-0.3888,-0.3888,-0.3892,-0.3985,-0.4016,-0.398,-0.4075,-0.4106,-0.4131,-0.4131,-0.4131,-0.4131,-0.4131,-0.4162,-0.4215,-0.4274,-0.4298,-0.4309,-0.4309,-0.4309,-0.4309,-0.4309,-0.2556,-0.0806,-0.0806,0.3694,0.7787,0.7787,1.055,1.2919,1.2927,1.2939,1.2939,1.2939,1.3013,1.3054,1.3021,1.3107,1.3642,1.4716,1.532,1.6545,1.8772,1.9456,2.018,2.1302,2.1375,2.1375,2.1375,2.1375,2.1375,2.1375,2.1375,2.1375,2.1375,2.1375,2.1375,2.1375,2.1375,2.153,0.0,0.0,0.0,0.0,0.0,0.0,0.0,0.0,0.0,0.0,0.0,0.0,0.0,0.0,0.0,0.0,0.0,0.0,0.0,0.0,0.0,0.0,-0.0269,-0.0433,-0.0435,-0.0707,-0.0876,-0.0891,-0.0621,-0.0456,-0.046,-0.0174,0.0,0.0,0.0,-0.0589,-0.1885,-0.1862,-0.2435,-0.3726,-0.3694,-0.3674,-0.366,-0.3674,-0.3688,-0.3701,-0.3701,-0.3754,-0.3838,-0.3838,-0.3883,-0.3888,-0.387,-0.3874,-0.3894,-0.4003,-0.4026,-0.3984,-0.4093,-0.4117,-0.4131,-0.4131,-0.4131,-0.4131,-0.4131,-0.4173,-0.4225,-0.4257,-0.4285,-0.4309,-0.4309,-0.4309,-0.4309,-0.4309,-0.2085,0.0,0.0,0.4497,0.8594,0.8594,1.0946,1.2907,1.2907,1.2907,1.2907,1.2907,1.298,1.2974,1.2974,1.316,1.3787,1.5228,1.5946,1.7164,1.9333,2.0021,2.0639,2.1375,2.1375,2.1375,2.1375,2.1375,2.1375,2.1375,2.1375,2.1375,2.1375,2.1375,2.1375,2.1375,2.1509,2.1638,0.0,0.0,0.0,0.0,0.0,0.0,0.0,0.0,0.0,0.0,0.0,0.0,0.0,0.0,0.0,0.0,0.0,0.0,0.0,0.0,0.0,0.0,-0.0523,-0.0843,-0.074,-0.0848,-0.0915,-0.0889,-0.0556,-0.0448,-0.0738,-0.0402,-0.0116,0.0,0.0,-0.0587,-0.188,-0.1811,-0.2444,-0.3726,-0.3719,-0.3705,-0.3681,-0.3705,-0.3715,-0.3719,-0.3723,-0.3775,-0.3851,-0.3851,-0.3887,-0.3877,-0.3922,-0.3929,-0.3894,-0.3956,-0.3978,-0.3984,-0.4046,-0.4131,-0.4131,-0.4131,-0.4131,-0.4131,-0.4137,-0.4177,-0.4218,-0.4225,-0.4267,-0.4309,-0.4309,-0.4309,-0.4309,-0.4309,-0.1681,0.0806,0.0806,0.5371,0.9401,0.9401,1.1284,1.2907,1.2907,1.2907,1.2907,1.2907,1.298,1.3113,1.3376,1.3608,1.4273,1.5785,1.7051,1.8343,1.9565,2.0741,2.1375,2.1375,2.1375,2.1375,2.1375,2.1375,2.1375,2.1375,2.1375,2.1375,2.1375,2.1409,2.1496,2.1496,2.1618,2.176,0.0,0.0,0.0,0.0,0.0,0.0,0.0,0.0,0.0,0.0,0.0,0.0,0.0,0.0,0.0,0.0,0.0,0.0,0.0,0.0,0.0,0.0,-0.0462,-0.0627,0.0,-0.0604,-0.0917,-0.0918,-0.1257,-0.111,-0.017,-0.0565,-0.0569,0.0,0.0,-0.0582,-0.1806,-0.1804,-0.2444,-0.3726,-0.3699,-0.3684,-0.3681,-0.3684,-0.3684,-0.3688,-0.3715,-0.3761,-0.382,-0.382,-0.3855,-0.3911,-0.3874,-0.3885,-0.3894,-0.3956,-0.3978,-0.3984,-0.4046,-0.4131,-0.4131,-0.4131,-0.4131,-0.4135,-0.4159,-0.4191,-0.4225,-0.4249,-0.4285,-0.4309,-0.4309,-0.4309,-0.4309,-0.4309,-0.0134,0.3828,0.3828,0.8331,1.2434,1.2434,1.2702,1.2907,1.2907,1.2907,1.2907,1.2907,1.298,1.3443,1.48,1.5108,1.579,1.7299,1.8627,1.9497,1.9701,2.0741,2.1375,2.1375,2.1375,2.1375,2.1375,2.1375,2.1375,2.1375,2.1375,2.1375,2.1375,2.1584,2.1652,2.1652,2.1672,2.1815,0.0,0.0,0.0,0.0,0.0,0.0,0.0,0.0,0.0,0.0,0.0,0.0,0.0,0.0,0.0,0.0,0.0,0.0,0.0,0.0,0.0,0.0,0.0,0.0,0.0,0.0,0.0,0.0,-0.1239,-0.1041,-0.0546,-0.1113,-0.113,-0.0516,-0.0521,-0.1108,-0.2343,-0.2052,-0.2522,-0.375,-0.3739,-0.3716,-0.3681,-0.3716,-0.3716,-0.3684,-0.375,-0.3803,-0.3842,-0.3859,-0.3893,-0.387,-0.3885,-0.3888,-0.3894,-0.3956,-0.3978,-0.3984,-0.4046,-0.4131,-0.4131,-0.4131,-0.4131,-0.4135,-0.4146,-0.417,-0.4193,-0.4208,-0.4247,-0.4281,-0.4281,-0.4296,-0.4309,-0.4309,0.0134,0.4298,0.4298,0.8862,1.2907,1.2907,1.3572,1.4103,1.4103,1.3438,1.2907,1.2907,1.3606,1.4389,1.5119,1.6018,1.7124,1.8684,1.927,1.9867,2.0804,2.1223,2.1375,2.1375,2.1375,2.1375,2.1375,2.1375,2.1375,2.1375,2.153,2.1584,2.1584,2.1726,2.1848,2.1937,2.1937,2.1991,-0.0406,0.0,0.0,0.0,0.0,0.0,0.0,0.0,0.0,0.0,0.0,0.0,0.0,0.0,0.0,0.0,0.0,0.0,0.0,0.0,0.0,0.0,0.0,0.0,0.0,0.0,0.0,0.0,0.0,-0.1012,-0.091,-0.1588,-0.1732,-0.114,-0.1153,-0.1689,-0.2817,-0.2354,-0.2708,-0.3757,-0.3757,-0.3737,-0.3694,-0.3739,-0.3737,-0.3699,-0.3771,-0.3824,-0.392,-0.3883,-0.3914,-0.3888,-0.3888,-0.3888,-0.3894,-0.3956,-0.3978,-0.3984,-0.4046,-0.4131,-0.4131,-0.4131,-0.4131,-0.4131,-0.4131,-0.4152,-0.4173,-0.4173,-0.4218,-0.4331,-0.4331,-0.4285,-0.4309,-0.4309,0.0134,0.4298,0.4298,0.8862,1.3041,1.3371,1.4308,1.511,1.5506,1.4771,1.4103,1.4103,1.4972,1.5798,1.6286,1.7275,1.8538,2.0107,2.0112,2.0464,2.1598,2.153,2.1375,2.1375,2.1375,2.1375,2.1375,2.1375,2.1375,2.1375,2.1597,2.1672,2.1672,2.1848,2.2004,2.2113,2.2113,2.2127,0.0,0.0,0.0,-0.078,0.0,0.0,0.0,0.0,0.0,0.0,0.0,0.0,0.0,0.0,0.0,0.0,0.0,0.0,0.0,0.0,0.0,0.0,0.0,0.0,0.0,0.0,0.0,0.0,-0.1017,0.0,-0.0923,-0.1885,-0.2241,-0.1779,-0.1783,-0.208,-0.2794,-0.2758,-0.3112,-0.3726,-0.3726,-0.3726,-0.3726,-0.3726,-0.3726,-0.3726,-0.3757,-0.3866,-0.392,-0.392,-0.3898,-0.3888,-0.3888,-0.3888,-0.3894,-0.3956,-0.3978,-0.3984,-0.4046,-0.4131,-0.4131,-0.4131,-0.4131,-0.4131,-0.4131,-0.4152,-0.4173,-0.4173,-0.4218,-0.4331,-0.4331,-0.4285,-0.4309,-0.4309,0.0134,0.4298,0.4298,0.8862,1.3304,1.47,1.4972,1.5434,1.6902,1.7107,1.704,1.704,1.7107,1.7635,1.8983,1.9298,1.9982,2.1478,2.1605,2.1672,2.1672,2.153,2.1375,2.1375,2.1375,2.1375,2.1375,2.1375,2.1375,2.1375,2.1597,2.1672,2.1672,2.1971,2.2113,2.2113,2.2113,2.2201,0.0,0.0,-0.1401,-0.132,0.0,0.0,0.0,0.0,0.0,0.0,0.0,0.0,0.0,0.0,0.0,0.0,0.0,0.0,0.0,0.0,0.0,0.0,0.0,0.0,0.0,0.0,0.0,0.0,-0.0902,0.0,0.0,-0.1722,-0.2361,-0.1865,-0.2219,-0.2763,-0.346,-0.3002,-0.3119,-0.3757,-0.3757,-0.3748,-0.3726,-0.3748,-0.3744,-0.373,-0.3799,-0.3902,-0.3922,-0.39,-0.387,-0.3888,-0.3888,-0.3888,-0.3894,-0.3956,-0.3978,-0.3984,-0.4046,-0.4117,-0.4103,-0.4124,-0.4131,-0.4131,-0.4131,-0.4137,-0.4146,-0.4146,-0.4173,-0.4208,-0.4229,-0.4257,-0.4285,-0.4305,0.0134,0.4568,0.55,1.0196,1.4704,1.6168,1.724,1.7979,1.8506,1.9376,1.9376,1.7446,1.7979,1.8778,1.9237,2.0146,2.0977,2.1443,2.1509,2.1509,2.1509,2.1409,2.1375,2.1375,2.1375,2.1375,2.1375,2.1375,2.1496,2.1584,2.174,2.1862,2.1971,2.216,2.22,2.22,2.22,2.2289,-0.2249,-0.2167,0.0,-0.1967,-0.1578,0.0,-0.1144,0.0,0.0,0.0,0.0,0.0,0.0,0.0,0.0,0.0,0.0,0.0,0.0,0.0,0.0,0.0,0.0,0.0,0.0,0.0,-0.0162,-0.0481,-0.0736,-0.0718,0.0,0.0,-0.2477,-0.2222,-0.2764,-0.3278,-0.3772,-0.3358,-0.3358,-0.3772,-0.3772,-0.3761,-0.3744,-0.3761,-0.3761,-0.3748,-0.3803,-0.3898,-0.3922,-0.39,-0.3929,-0.3888,-0.3888,-0.3888,-0.3894,-0.3956,-0.3984,-0.4061,-0.4099,-0.4103,-0.409,-0.4121,-0.4131,-0.4131,-0.4131,-0.4131,-0.4131,-0.4131,-0.4152,-0.418,-0.4211,-0.424,-0.4071,-0.3022,0.0874,0.4966,0.7375,1.1671,1.5573,1.7568,1.8711,1.9443,1.9974,2.0778,2.0778,1.8965,1.9443,2.0041,2.0041,2.0844,2.1375,2.1375,2.1375,2.1375,2.1375,2.1375,2.1375,2.1375,2.1375,2.1375,2.1375,2.1496,2.1564,2.1672,2.1862,2.2004,2.2113,2.22,2.2268,2.2268,2.2268,2.2268]},{"header":{"parameterUnit":"m.s-1","parameterCategory":1,"la1":30.6,"la2":29.2853,"lo1":-89.7004,"lo2":-87.6739,"dy":0.0162,"dx":0.0183,"nx":112,"ny":82,"refTime":"2026-04-07T12:00:00:Z","depth":0,"parameterNumber":3,"parameterNumberName":"V-component_of_WINDS"},"data":[0.0,0.0,0.0,0.0,0.0,0.0,0.0,0.0,0.0,0.0,0.0,0.0,0.0,0.0,0.0,0.0,0.0,0.0,0.0,0.0,0.0,0.0,0.0,0.0,0.0,0.0,0.0,0.0,0.0,0.0,0.0,0.0,0.0,0.0,0.0,0.0,0.0,0.0,0.0,0.0,0.0,0.0,0.0,0.0,0.0,0.0,0.0,0.0,0.0,0.0,0.0,0.0,0.0,0.0,0.0,0.0,0.0,0.0,0.0,0.0,0.0,0.0,0.0,0.0,0.0,0.0,0.0,0.0,0.0,0.0,0.0,0.0,0.0,0.0,0.0,0.0,0.0,0.0,0.0,0.0,0.0,0.0,0.0,0.0,0.0,0.0,0.0,0.0,0.0,0.0,0.0,5.526,6.2312,6.6097,6.4782,6.4341,6.069,5.2617,0.0,0.0,0.0,0.0,0.0,0.0,0.0,0.0,0.0,0.0,0.0,0.0,0.0,0.0,0.0,0.0,0.0,0.0,0.0,0.0,0.0,0.0,0.0,0.0,0.0,0.0,0.0,0.0,0.0,0.0,0.0,0.0,0.0,0.0,0.0,0.0,0.0,0.0,0.0,0.0,0.0,0.0,0.0,0.0,0.0,0.0,0.0,0.0,0.0,0.0,0.0,0.0,0.0,0.0,0.0,0.0,0.0,0.0,0.0,0.0,0.0,0.0,0.0,0.0,0.0,0.0,0.0,0.0,0.0,0.0,0.0,0.0,0.0,0.0,0.0,0.0,0.0,0.0,0.0,0.0,0.0,0.0,0.0,0.0,0.0,0.0,0.0,0.0,0.0,0.0,0.0,0.0,0.0,0.0,0.0,0.0,0.0,0.0,0.0,0.0,0.0,0.0,0.0,0.0,5.0284,6.1561,6.4547,6.5899,6.636,6.3254,5.9102,5.4116,0.0,0.0,0.0,0.0,0.0,0.0,0.0,0.0,0.0,0.0,0.0,0.0,0.0,0.0,0.0,0.0,0.0,0.0,0.0,0.0,0.0,0.0,0.0,0.0,0.0,0.0,0.0,0.0,0.0,0.0,0.0,0.0,0.0,0.0,0.0,0.0,0.0,0.0,0.0,0.0,0.0,0.0,0.0,0.0,0.0,0.0,0.0,0.0,0.0,0.0,0.0,0.0,0.0,0.0,0.0,0.0,0.0,0.0,0.0,0.0,0.0,0.0,0.0,0.0,0.0,0.0,0.0,0.0,0.0,0.0,0.0,0.0,0.0,0.0,0.0,0.0,0.0,0.0,0.0,0.0,0.0,0.0,0.0,0.0,0.0,0.0,0.0,0.0,0.0,0.0,0.0,0.0,0.0,0.0,0.0,0.0,0.0,0.0,0.0,0.0,0.0,0.0,0.0,5.0885,5.6162,6.5318,6.6799,6.7116,6.7021,6.4464,6.0457,5.476,5.0685,0.0,0.0,0.0,0.0,0.0,0.0,0.0,0.0,0.0,0.0,0.0,0.0,0.0,0.0,0.0,0.0,0.0,0.0,0.0,0.0,0.0,0.0,0.0,0.0,0.0,0.0,0.0,0.0,0.0,0.0,0.0,0.0,0.0,0.0,0.0,0.0,0.0,0.0,0.0,0.0,0.0,0.0,0.0,0.0,0.0,0.0,0.0,0.0,0.0,0.0,0.0,0.0,0.0,0.0,0.0,0.0,0.0,0.0,0.0,0.0,0.0,0.0,0.0,0.0,0.0,0.0,0.0,0.0,0.0,0.0,0.0,0.0,0.0,0.0,0.0,0.0,0.0,0.0,0.0,0.0,0.0,0.0,0.0,0.0,0.0,0.0,0.0,0.0,0.0,0.0,0.0,0.0,0.0,0.0,0.0,0.0,0.0,0.0,0.0,0.0,0.0,0.0,5.8327,6.2125,6.7662,6.83,6.8021,6.7305,6.4865,6.0871,5.4869,4.9951,0.0,0.0,0.0,0.0,0.0,0.0,0.0,0.0,0.0,0.0,0.0,0.0,0.0,0.0,0.0,0.0,0.0,0.0,0.0,0.0,0.0,0.0,0.0,0.0,0.0,0.0,0.0,0.0,0.0,0.0,0.0,0.0,0.0,0.0,0.0,0.0,0.0,0.0,0.0,0.0,0.0,0.0,0.0,0.0,0.0,0.0,0.0,0.0,0.0,0.0,0.0,0.0,0.0,0.0,0.0,0.0,0.0,0.0,0.0,0.0,0.0,0.0,0.0,0.0,0.0,0.0,0.0,0.0,0.0,0.0,0.0,0.0,0.0,0.0,0.0,0.0,0.0,0.0,0.0,0.0,0.0,0.0,0.0,0.0,0.0,0.0,0.0,0.0,0.0,0.0,0.0,0.0,0.0,0.0,0.0,0.0,0.0,0.0,0.0,0.0,0.0,0.0,5.942,6.5478,6.8602,6.8269,6.7697,6.7322,6.2405,5.7871,5.4429,4.7647,0.0,0.0,0.0,0.0,0.0,0.0,0.0,0.0,0.0,0.0,0.0,0.0,0.0,0.0,0.0,0.0,0.0,0.0,0.0,0.0,0.0,0.0,0.0,0.0,0.0,0.0,0.0,0.0,0.0,0.0,0.0,0.0,0.0,0.0,0.0,0.0,0.0,0.0,0.0,0.0,0.0,0.0,0.0,0.0,0.0,0.0,0.0,0.0,0.0,0.0,0.0,0.0,0.0,0.0,0.0,0.0,0.0,0.0,0.0,0.0,0.0,0.0,0.0,0.0,0.0,0.0,0.0,0.0,0.0,0.0,0.0,0.0,0.0,0.0,0.0,0.0,0.0,0.0,0.0,0.0,0.0,0.0,0.0,0.0,0.0,0.0,0.0,0.0,0.0,0.0,0.0,0.0,0.0,0.0,0.0,0.0,0.0,0.0,0.0,0.0,0.0,0.0,5.9834,6.5348,0.0,6.9283,6.8666,6.799,6.5479,6.1171,5.4666,0.0,0.0,0.0,0.0,0.0,0.0,0.0,0.0,0.0,0.0,0.0,0.0,0.0,0.0,0.0,0.0,0.0,0.0,0.0,0.0,0.0,0.0,0.0,0.0,0.0,0.0,0.0,0.0,0.0,0.0,0.0,0.0,0.0,0.0,0.0,0.0,0.0,0.0,0.0,0.0,0.0,0.0,0.0,0.0,0.0,0.0,0.0,0.0,0.0,0.0,0.0,0.0,0.0,0.0,0.0,0.0,0.0,0.0,0.0,0.0,0.0,0.0,0.0,0.0,0.0,0.0,0.0,0.0,0.0,0.0,0.0,0.0,0.0,0.0,0.0,0.0,0.0,0.0,0.0,0.0,0.0,0.0,0.0,0.0,0.0,0.0,0.0,0.0,0.0,0.0,0.0,0.0,0.0,0.0,0.0,0.0,0.0,0.0,0.0,0.0,0.0,0.0,5.547,6.1538,6.6885,0.0,7.0663,6.9746,6.8796,6.6742,6.2272,5.4618,0.0,0.0,0.0,0.0,0.0,0.0,0.0,0.0,0.0,0.0,0.0,0.0,0.0,0.0,0.0,0.0,0.0,0.0,0.0,0.0,0.0,0.0,0.0,0.0,0.0,0.0,0.0,0.0,0.0,0.0,0.0,0.0,0.0,0.0,0.0,0.0,0.0,0.0,0.0,0.0,0.0,0.0,0.0,0.0,0.0,0.0,0.0,0.0,0.0,0.0,0.0,0.0,0.0,0.0,0.0,0.0,0.0,0.0,0.0,0.0,0.0,0.0,0.0,0.0,0.0,0.0,0.0,0.0,0.0,0.0,0.0,0.0,0.0,0.0,0.0,0.0,0.0,0.0,0.0,0.0,0.0,0.0,0.0,0.0,0.0,0.0,0.0,0.0,0.0,0.0,0.0,0.0,0.0,0.0,0.0,0.0,0.0,0.0,0.0,0.0,0.0,0.0,5.7434,6.4833,7.0728,7.359,7.2375,7.0859,6.9727,6.5242,5.9985,0.0,0.0,0.0,0.0,0.0,0.0,0.0,0.0,0.0,0.0,0.0,0.0,0.0,0.0,0.0,0.0,0.0,0.0,0.0,0.0,0.0,0.0,0.0,0.0,0.0,0.0,0.0,0.0,0.0,0.0,0.0,0.0,0.0,0.0,0.0,0.0,0.0,0.0,0.0,0.0,0.0,0.0,0.0,0.0,0.0,0.0,0.0,0.0,0.0,0.0,0.0,0.0,0.0,0.0,0.0,0.0,0.0,0.0,0.0,0.0,0.0,0.0,0.0,0.0,0.0,0.0,0.0,0.0,0.0,0.0,0.0,0.0,0.0,0.0,0.0,0.0,0.0,0.0,0.0,0.0,0.0,0.0,0.0,0.0,0.0,0.0,0.0,0.0,0.0,0.0,0.0,0.0,0.0,0.0,0.0,0.0,0.0,0.0,0.0,0.0,0.0,0.0,0.0,5.7803,6.5633,7.1611,7.3678,7.3458,7.2507,7.0931,6.8938,6.3943,5.4998,0.0,0.0,0.0,0.0,0.0,0.0,0.0,0.0,0.0,0.0,0.0,0.0,0.0,0.0,0.0,0.0,0.0,0.0,0.0,0.0,0.0,0.0,0.0,0.0,0.0,0.0,0.0,0.0,0.0,0.0,0.0,0.0,0.0,0.0,0.0,0.0,0.0,0.0,0.0,0.0,0.0,0.0,0.0,0.0,0.0,0.0,0.0,0.0,0.0,0.0,0.0,0.0,0.0,0.0,0.0,0.0,0.0,0.0,0.0,0.0,0.0,0.0,0.0,0.0,0.0,0.0,0.0,0.0,0.0,0.0,0.0,0.0,0.0,0.0,0.0,0.0,0.0,0.0,0.0,0.0,0.0,0.0,0.0,0.0,0.0,0.0,0.0,0.0,0.0,0.0,0.0,0.0,0.0,0.0,0.0,0.0,0.0,0.0,0.0,0.0,0.0,0.0,5.9379,6.7492,7.3496,7.5237,7.5082,7.4193,7.2491,7.091,6.6049,5.6786,0.0,0.0,0.0,0.0,0.0,0.0,0.0,0.0,0.0,0.0,0.0,0.0,0.0,0.0,0.0,0.0,0.0,0.0,0.0,0.0,0.0,0.0,0.0,0.0,0.0,0.0,0.0,0.0,0.0,0.0,0.0,0.0,0.0,0.0,0.0,0.0,0.0,0.0,0.0,0.0,0.0,0.0,0.0,0.0,0.0,0.0,0.0,0.0,0.0,0.0,0.0,0.0,0.0,0.0,0.0,0.0,0.0,0.0,0.0,0.0,0.0,0.0,0.0,0.0,0.0,0.0,0.0,0.0,0.0,0.0,0.0,0.0,0.0,0.0,0.0,0.0,0.0,0.0,0.0,0.0,0.0,0.0,0.0,0.0,0.0,0.0,0.0,0.0,0.0,0.0,0.0,0.0,0.0,0.0,0.0,0.0,0.0,0.0,0.0,0.0,0.0,0.0,6.1541,6.9844,7.5889,7.7635,7.7061,7.5862,7.427,7.1833,6.7103,5.9442,0.0,0.0,0.0,0.0,0.0,0.0,0.0,0.0,0.0,0.0,0.0,0.0,0.0,0.0,0.0,0.0,0.0,0.0,0.0,0.0,0.0,0.0,0.0,0.0,0.0,0.0,0.0,0.0,0.0,0.0,0.0,0.0,0.0,0.0,0.0,0.0,0.0,0.0,0.0,0.0,0.0,0.0,0.0,0.0,0.0,0.0,0.0,0.0,0.0,0.0,0.0,0.0,0.0,0.0,0.0,0.0,0.0,0.0,0.0,0.0,5.2333,0.0,0.0,0.0,0.0,0.0,0.0,0.0,0.0,0.0,0.0,0.0,0.0,0.0,0.0,0.0,0.0,0.0,0.0,0.0,0.0,0.0,0.0,0.0,0.0,0.0,0.0,0.0,0.0,0.0,0.0,0.0,0.0,0.0,0.0,0.0,0.0,0.0,0.0,0.0,0.0,0.0,6.1695,7.0391,7.6784,7.8525,7.7945,7.6984,7.5978,7.4154,7.0037,6.2964,0.0,0.0,0.0,0.0,0.0,0.0,0.0,0.0,0.0,0.0,0.0,0.0,0.0,0.0,0.0,0.0,0.0,0.0,0.0,0.0,0.0,0.0,0.0,0.0,0.0,0.0,0.0,0.0,0.0,0.0,0.0,0.0,0.0,0.0,0.0,0.0,0.0,0.0,0.0,0.0,0.0,0.0,0.0,0.0,0.0,0.0,0.0,0.0,0.0,0.0,0.0,0.0,0.0,0.0,0.0,0.0,0.0,0.0,0.0,0.0,0.0,5.6481,0.0,0.0,0.0,0.0,0.0,0.0,0.0,0.0,0.0,0.0,0.0,0.0,0.0,0.0,0.0,0.0,0.0,0.0,0.0,0.0,0.0,0.0,0.0,0.0,0.0,0.0,0.0,0.0,0.0,0.0,0.0,0.0,0.0,0.0,0.0,0.0,0.0,0.0,0.0,0.0,6.351,7.2053,7.8138,7.9453,7.9183,7.8564,7.7719,7.5701,7.2247,6.7016,6.1832,0.0,0.0,0.0,0.0,0.0,0.0,0.0,0.0,0.0,0.0,0.0,0.0,0.0,0.0,0.0,0.0,0.0,0.0,0.0,0.0,0.0,0.0,0.0,0.0,0.0,0.0,0.0,0.0,0.0,0.0,0.0,0.0,0.0,0.0,0.0,0.0,0.0,0.0,0.0,0.0,0.0,0.0,0.0,0.0,0.0,0.0,0.0,0.0,0.0,0.0,0.0,0.0,0.0,6.9515,7.0869,7.2254,7.2877,7.4121,7.5543,7.0271,6.7561,6.654,0.0,0.0,0.0,0.0,0.0,0.0,0.0,0.0,0.0,0.0,0.0,0.0,0.0,0.0,0.0,0.0,0.0,0.0,0.0,0.0,0.0,0.0,0.0,0.0,0.0,6.9117,6.8969,0.0,0.0,0.0,0.0,0.0,0.0,0.0,0.0,0.0,0.0,0.0,0.0,6.6097,7.4179,7.9801,8.0769,8.0608,8.0143,7.9492,7.7204,7.4386,7.1103,6.5856,6.0954,0.0,0.0,0.0,0.0,0.0,0.0,0.0,0.0,0.0,0.0,0.0,0.0,0.0,0.0,0.0,0.0,0.0,0.0,0.0,0.0,0.0,0.0,0.0,0.0,0.0,0.0,0.0,0.0,0.0,0.0,0.0,0.0,5.0665,5.3222,0.0,0.0,0.0,0.0,0.0,0.0,0.0,0.0,0.0,0.0,0.0,0.0,0.0,6.7583,7.0908,7.4089,7.6121,7.7163,8.1021,8.2999,8.327,8.4055,8.4986,8.5839,8.5,0.0,7.207,6.943,0.0,0.0,0.0,0.0,0.0,0.0,0.0,0.0,0.0,0.0,0.0,0.0,0.0,0.0,0.0,0.0,0.0,0.0,0.0,0.0,0.0,0.0,7.7232,7.5992,7.6534,7.6821,0.0,6.6323,5.8212,5.5224,0.0,0.0,0.0,0.0,0.0,0.0,0.0,0.0,6.8755,7.6299,8.1768,8.3399,8.2232,8.1304,8.1188,7.9531,7.7326,7.4612,7.1595,6.8021,6.3732,5.9547,0.0,0.0,0.0,0.0,0.0,0.0,0.0,0.0,0.0,0.0,0.0,0.0,0.0,0.0,0.0,0.0,0.0,0.0,0.0,0.0,0.0,0.0,0.0,0.0,0.0,0.0,0.0,0.0,0.0,5.2179,5.6523,5.574,5.8195,5.7831,0.0,0.0,0.0,0.0,0.0,0.0,0.0,0.0,0.0,7.3877,7.5223,7.775,8.1586,8.3645,8.5304,8.6623,8.8668,9.013,9.1058,9.1445,9.205,9.2833,9.233,8.9422,8.4557,7.8679,7.4197,7.0638,0.0,0.0,0.0,0.0,6.7359,6.9468,7.2437,7.4014,0.0,0.0,0.0,0.0,0.0,0.0,0.0,0.0,0.0,0.0,0.0,0.0,0.0,8.391,8.5081,8.5089,8.2794,7.7449,7.1262,0.0,6.1714,5.8166,5.228,0.0,0.0,0.0,0.0,0.0,7.2277,7.8334,8.2703,8.3979,8.3438,8.2973,8.2973,8.1387,7.9718,7.8055,7.5585,7.2678,6.9375,6.5499,6.1306,0.0,0.0,0.0,0.0,0.0,0.0,0.0,0.0,0.0,0.0,0.0,0.0,0.0,0.0,0.0,0.0,0.0,0.0,0.0,0.0,0.0,0.0,0.0,0.0,0.0,0.0,0.0,0.0,5.7373,6.1202,5.9087,6.3344,6.3883,0.0,0.0,0.0,0.0,0.0,0.0,7.1472,7.4067,7.7772,8.2882,8.4727,8.7427,9.1257,9.1699,9.2789,9.4473,9.441,9.5162,9.6563,9.6563,9.6923,9.7461,9.681,9.5978,9.4566,8.7283,8.2343,7.9158,7.6338,7.4454,7.3561,7.5166,7.6707,7.8623,8.2785,8.4824,8.5209,8.3062,0.0,7.8092,7.1975,0.0,0.0,0.0,0.0,7.5592,8.0477,0.0,8.5247,8.9278,9.0762,9.0556,8.7948,8.5796,8.19,0.0,7.0566,6.7022,6.0012,0.0,0.0,0.0,0.0,7.2627,7.6254,8.0666,8.3786,8.4637,8.4521,8.4405,8.4405,8.3012,8.1768,8.0923,7.9105,7.6906,7.4347,7.1562,6.7993,6.3487,0.0,0.0,0.0,0.0,0.0,0.0,0.0,0.0,0.0,0.0,0.0,0.0,0.0,0.0,0.0,0.0,0.0,0.0,0.0,0.0,0.0,0.0,0.0,0.0,0.0,0.0,0.0,0.0,0.0,6.5805,7.0583,0.0,0.0,0.0,0.0,6.8463,7.3118,7.7836,8.2111,8.4746,8.8501,9.3646,9.3819,9.5067,9.7717,9.7012,9.7548,9.9247,9.8491,9.8592,9.9479,9.9479,9.9453,9.9364,9.9325,9.8778,9.7619,9.3847,9.0727,8.8143,8.7087,8.6632,8.6462,8.5673,8.7478,9.0248,8.9701,9.0086,9.1056,9.2479,8.9133,8.4124,8.2093,7.9792,0.0,0.0,8.1585,8.4624,8.6517,8.8248,8.9778,9.0902,9.1171,9.1171,9.0979,8.8325,8.4425,0.0,7.6177,7.3613,7.0765,0.0,6.9656,7.0305,7.2934,7.6332,8.0538,8.3483,8.5526,8.6371,8.572,8.5256,8.5256,8.4443,8.3592,8.2709,8.2554,8.1355,7.8796,7.7713,7.4773,6.9633,6.5304,0.0,0.0,0.0,0.0,0.0,0.0,0.0,0.0,0.0,0.0,0.0,0.0,0.0,0.0,0.0,0.0,0.0,0.0,0.0,0.0,0.0,0.0,0.0,0.0,0.0,0.0,0.0,0.0,7.2021,7.6794,0.0,7.3061,7.5196,7.721,7.8016,8.231,8.6791,9.1117,9.2205,9.4297,9.7825,9.7761,9.8401,9.9843,9.9531,10.0215,10.1909,10.1084,10.1505,10.2902,10.2902,10.2914,10.2789,10.2789,10.2008,10.0496,9.9746,9.6978,9.3183,9.3338,9.3036,9.2586,9.3303,9.4658,9.6134,9.6365,9.7019,9.7519,9.648,9.3249,8.9556,8.8402,8.7401,8.6632,8.6355,8.7585,8.9325,9.1018,9.1902,9.271,9.4134,9.4864,9.4826,9.3172,9.2287,9.0642,8.6657,8.2116,7.8129,7.5599,7.5884,7.5863,7.3915,7.7285,8.0982,8.3567,8.5204,8.6448,8.7338,8.6642,8.6145,8.6145,8.5372,8.4521,8.367,8.3096,8.189,7.9879,7.8989,7.6862,7.3342,6.9617,6.4211,0.0,0.0,0.0,0.0,0.0,0.0,0.0,0.0,0.0,0.0,0.0,0.0,0.0,0.0,0.0,0.0,0.0,0.0,0.0,0.0,0.0,0.0,0.0,0.0,0.0,6.987,7.559,7.7332,8.2626,8.4709,8.0961,8.3446,8.5781,8.6912,9.0429,9.4013,9.7432,9.7898,9.9141,10.1394,10.1388,10.1699,10.2585,10.2307,10.2921,10.4214,10.349,10.3703,10.479,10.479,10.4609,10.4292,10.4292,10.359,10.2515,10.3289,10.171,9.8598,9.8424,9.8019,9.7606,9.864,9.9294,9.9712,10.0289,10.0712,10.0596,9.8942,9.6865,9.4864,9.3672,9.3518,9.3518,9.2394,9.247,9.3172,9.4287,9.4595,9.4864,9.6019,9.6711,9.6634,9.4941,9.4373,9.3566,9.1556,8.716,8.3025,8.0752,8.14,8.1269,7.8411,8.1419,8.4293,8.5144,8.6014,8.6801,8.7381,8.6938,8.6603,8.6603,8.5545,8.4765,8.4521,8.2845,8.1369,8.026,7.8855,7.7025,7.4699,7.0706,6.6002,6.0629,0.0,0.0,0.0,0.0,0.0,0.0,0.0,0.0,0.0,0.0,0.0,0.0,0.0,0.0,0.0,0.0,0.0,0.0,0.0,0.0,0.0,0.0,0.0,6.9025,7.5071,8.0116,8.194,8.8176,9.1389,8.889,9.2382,9.4834,9.4873,9.7199,9.9374,10.1084,10.1894,10.322,10.4891,10.4891,10.5309,10.6188,10.5411,10.5399,10.6307,10.5412,10.5101,10.5101,10.5101,10.4616,10.3686,10.3686,10.3613,10.3519,10.4411,10.4682,10.4513,10.2608,10.1884,10.1799,10.1813,10.1613,10.151,10.151,10.0904,10.0183,10.0183,10.0183,9.9837,9.8096,9.8173,9.8519,9.6865,9.6442,9.648,9.648,9.6442,9.6365,9.6365,9.6365,9.6326,9.6326,9.4364,9.2864,9.3595,9.1125,8.8372,8.6669,8.6431,8.5914,8.4216,8.5381,0.0,8.5311,8.5994,8.6546,8.6584,8.6601,8.6642,8.6642,8.5041,8.4371,8.5172,8.1987,8.0126,8.0182,7.7735,7.5618,7.3989,6.8826,6.581,6.5059,0.0,0.0,0.0,0.0,0.0,0.0,0.0,0.0,0.0,0.0,0.0,0.0,0.0,0.0,0.0,0.0,0.0,0.0,0.0,0.0,0.0,7.1625,7.6196,7.6327,8.1207,8.6581,9.1406,9.4241,9.605,9.6577,9.7121,9.7976,9.918,10.0501,10.2282,10.4619,10.4386,10.4697,10.5784,10.5202,10.5019,10.5309,10.4998,10.5393,10.6182,10.5987,10.6182,10.6687,10.6687,10.6591,10.6406,10.6406,10.5903,10.5193,10.4806,10.4295,10.39,10.5192,10.5287,10.4714,10.5216,10.5186,10.501,10.501,10.4097,10.2914,10.2914,10.1981,10.0789,9.9712,9.9942,10.0404,9.9365,9.9481,9.9933,9.9933,9.9019,9.8096,9.8096,9.7634,9.7019,9.6442,9.6211,9.5826,9.4835,9.2929,9.1129,9.0013,8.8887,8.8004,8.7565,0.0,0.0,8.716,8.7374,8.7775,8.84,8.787,8.7477,8.7531,8.5885,8.4487,0.0,8.1407,8.017,8.0182,7.8932,7.8037,7.7573,7.2494,6.9424,0.0,0.0,0.0,0.0,0.0,0.0,0.0,0.0,0.0,0.0,0.0,0.0,0.0,0.0,0.0,0.0,0.0,0.0,0.0,0.0,0.0,0.0,7.9644,8.4574,8.7004,8.9325,9.2608,9.7519,9.918,10.0305,10.1312,10.1301,10.1394,10.2016,10.2909,10.4191,10.6089,10.5707,10.5784,10.6717,10.66,10.6484,10.6484,10.6911,10.7299,10.7798,10.7798,10.7992,10.8504,10.8504,10.8309,0.0,10.7882,10.7411,10.6485,10.598,10.5709,0.0,0.0,0.0,0.0,0.0,10.5618,10.5409,10.5397,10.4713,10.3905,10.3905,10.3212,10.2212,10.0981,10.0904,10.1096,9.9865,9.9904,10.0289,10.0289,9.9519,9.8904,9.9259,9.8404,9.748,9.7365,9.6865,9.6249,9.5672,0.0,0.0,9.3364,9.1052,8.9033,8.8358,8.8521,8.8575,8.8311,8.8279,8.8603,8.9528,8.8796,8.8294,8.8373,8.6377,0.0,0.0,0.0,7.914,7.8063,7.7605,0.0,0.0,0.0,0.0,0.0,0.0,0.0,0.0,6.8629,6.8627,0.0,0.0,0.0,0.0,0.0,0.0,0.0,0.0,0.0,0.0,0.0,0.0,0.0,0.0,0.0,0.0,8.7175,9.2616,9.8344,9.8001,9.8271,10.1291,10.301,10.3886,10.4003,10.4591,10.4589,10.4005,10.4589,10.5405,10.6294,0.0,0.0,0.0,0.0,10.8904,10.8904,10.9598,10.9987,10.9987,10.9987,10.9987,10.9987,10.9987,10.9604,10.8904,10.8914,10.8397,10.7691,10.7584,10.7882,10.8187,10.4415,10.3385,10.4189,10.4601,10.4609,10.4508,10.4398,0.0,0.0,10.3992,10.4002,10.3588,10.2106,10.1587,10.1289,9.9788,9.9365,9.9365,9.9365,9.9211,9.9288,10.0106,9.8904,9.7904,9.875,9.7105,9.5681,9.6442,9.5788,9.5412,9.6172,9.2971,8.9787,8.8226,8.9064,8.9637,8.8889,8.8897,8.9268,9.0119,0.0,0.0,8.9144,8.6923,8.5516,8.5429,8.1672,7.8367,7.5823,7.6055,7.6571,7.7216,7.7325,7.8548,8.0995,8.1845,8.327,8.483,7.442,7.4131,0.0,0.0,0.0,0.0,0.0,0.0,0.0,0.0,0.0,0.0,0.0,0.0,0.0,0.0,0.0,8.6474,9.2304,9.7495,10.1405,10.2885,10.3786,10.4289,10.4613,10.5109,10.5812,10.5405,10.5313,10.5818,10.6013,10.6518,10.7412,10.8117,10.851,10.8705,10.9486,10.9996,10.9996,11.0188,11.0188,11.0188,0.0,0.0,11.0188,11.0188,11.011,10.999,10.9904,10.9684,10.9514,10.8788,10.8115,10.7682,10.8284,10.8516,10.8482,10.8617,10.7993,10.7189,10.7113,10.6198,10.509,10.4888,10.4494,10.402,10.3492,10.3405,0.0,10.2981,10.2904,10.2904,10.2904,10.1904,10.0904,10.101,9.9788,9.8788,9.9644,9.8913,9.8096,9.8288,9.7096,9.6095,9.6288,9.4441,9.266,9.1737,9.0667,8.9729,8.8969,8.9486,8.9987,9.0157,8.9986,8.9901,8.9949,8.8861,8.7617,8.6353,8.4281,8.2258,8.0324,8.2219,8.338,8.356,8.4217,8.5184,8.6396,8.7254,8.8924,9.1135,8.5507,8.4545,0.0,0.0,0.0,0.0,0.0,0.0,0.0,0.0,0.0,0.0,0.0,7.3239,7.7617,0.0,8.7414,9.3471,9.7008,10.0195,10.3613,10.4491,10.5003,10.578,10.6206,10.6509,10.6509,10.6405,10.6382,10.6384,10.7204,10.7907,10.8295,10.9195,10.9703,10.9703,11.0483,11.0991,11.0991,11.1303,11.1616,11.1616,11.1616,11.1616,11.1616,11.1616,11.1616,11.1494,11.1481,11.1182,11.0785,11.0283,10.9896,10.9584,11.0905,11.0515,10.9208,10.9604,10.9283,10.8813,10.8681,10.7912,10.6812,10.6714,10.58,10.4701,10.4715,10.4301,10.3905,10.3905,10.3905,10.3905,10.3905,10.2904,10.2097,10.252,10.0981,9.9673,10.0481,9.9712,9.8942,9.9375,9.875,9.8057,9.7634,9.648,9.519,9.3965,9.2704,9.1882,9.1975,9.1988,9.2134,9.26,9.2216,9.2122,9.2591,9.1908,9.0906,8.9663,8.8048,8.6756,8.5899,8.7101,8.8018,8.8443,8.9335,9.0207,9.1058,9.1909,9.3224,9.4888,9.3565,9.3396,0.0,0.0,0.0,0.0,0.0,0.0,0.0,6.7136,6.9914,7.3945,7.7224,8.1087,8.6673,8.947,9.3005,9.9294,10.069,10.2008,10.4819,10.4702,10.4897,10.6302,10.7092,10.7419,10.6911,10.7416,10.7514,10.7009,10.8298,10.9117,10.9313,11.0095,11.0602,11.0602,11.1383,11.189,11.189,11.2515,11.2904,11.2904,11.2904,11.2904,11.2904,11.2904,11.2904,11.2904,11.2814,11.2488,11.1809,11.1809,11.1809,11.1887,11.2511,11.1418,10.9611,11.0116,11.0119,10.9916,10.9888,10.9283,10.8501,10.8307,10.7182,10.5992,10.5681,10.4985,10.4195,10.4107,10.3982,10.3915,10.3712,10.3097,10.2789,10.3482,10.2106,10.0789,10.1597,10.0596,9.9712,10.0212,10.0221,9.9875,9.9173,9.8327,9.7134,9.5297,9.4258,9.3977,9.4741,9.4187,9.4054,9.4972,9.4264,9.4093,9.5028,9.4403,9.3682,9.3004,9.1538,9.0612,9.0458,9.079,9.1408,9.2265,9.3376,9.4333,9.5153,9.6057,9.6838,9.7573,9.9096,9.9793,5.7431,5.7373,5.9921,6.3632,6.5897,6.9218,0.0,7.9648,8.1211,8.4023,8.8472,9.2134,9.2915,9.6293,9.9277,10.0216,10.2205,10.3806,10.4196,10.4819,10.5287,10.5482,10.631,10.7096,10.7799,10.7884,10.8202,10.8905,10.9217,10.9607,11.0309,11.1208,11.1599,11.1599,11.2497,11.2889,11.2889,11.3006,11.3084,11.3084,11.3084,11.3084,11.3084,11.3084,11.3084,11.3088,11.3006,11.2916,11.2707,11.2707,11.2707,11.2707,11.2785,11.2615,11.2309,11.2403,11.1721,11.0891,11.1019,11.0389,10.9594,10.8594,10.8313,10.7996,10.689,10.5888,10.5186,10.5003,10.4492,10.3712,10.2904,10.2712,10.2597,10.2712,10.252,10.2597,10.3405,10.2904,10.202,10.1289,10.0596,10.0106,9.999,9.9211,9.7836,9.5374,9.4258,9.3758,9.3844,9.3758,9.4027,9.493,9.422,9.4101,9.5037,9.436,9.3902,9.3861,9.2927,9.2078,9.1307,9.2742,9.3985,9.4795,9.6423,9.7705,9.8563,9.9495,9.9999,10.0115,10.1084,10.158,6.6832,6.6444,6.7461,7.0781,7.4023,7.7734,8.2851,8.5469,8.7656,9.0781,9.3943,9.6435,9.7446,9.9892,10.2099,10.3103,10.3687,10.4311,10.4819,10.4702,10.4584,10.4584,10.5884,10.6784,10.7202,10.7708,10.841,10.9191,10.9699,11.0401,11.1182,11.208,11.2589,11.2589,11.2902,11.3097,11.3097,11.3602,11.3602,11.3097,11.3602,11.3915,11.3798,11.3292,11.3097,11.3099,11.3092,11.2995,11.3006,11.3006,11.3006,11.3006,11.3006,11.3007,11.2912,11.2796,11.2503,11.2113,11.2106,11.1585,11.0801,11.0418,10.9503,10.8585,10.7992,10.7089,10.6205,10.611,10.5697,10.529,10.4905,10.4405,10.3905,10.3482,10.2981,10.2597,10.2404,10.252,10.2289,10.151,10.1404,10.1212,10.0298,9.9798,9.9029,9.7451,9.6903,9.6673,9.6673,9.6673,9.6788,9.7182,9.7336,9.7576,9.7969,9.8113,9.8209,9.8245,9.7475,9.6821,9.6474,9.7182,9.7748,9.8095,9.9351,10.0187,10.0582,10.0887,10.1208,10.1181,10.2111,10.2615,7.164,7.2461,7.3867,7.7187,8.125,8.5156,8.8047,9.0469,9.289,9.5664,9.7616,9.9174,10.0415,10.2201,10.3786,10.4586,10.4819,10.478,10.4702,10.4317,10.3889,10.3415,10.4684,10.5706,10.6001,10.7214,10.8385,10.9201,11.0097,11.0915,11.1807,11.2589,11.3097,11.3097,11.3097,11.3097,11.3097,11.368,11.368,11.3097,11.368,11.4188,11.4383,11.368,11.3487,11.3409,11.3214,11.3097,11.3097,11.3097,11.3097,11.3097,11.3409,11.3286,11.3004,11.3198,11.3094,11.2787,11.2809,11.2503,11.1919,11.1685,11.0692,10.9515,10.9086,10.8399,10.759,10.7508,10.7207,10.6688,10.6188,10.5495,10.46,10.3684,10.3098,10.2511,10.1799,10.2212,10.2404,10.1789,10.2212,10.2289,10.1299,10.1106,10.0914,9.9981,10.0106,9.9865,9.8904,9.9029,9.9067,9.8827,9.9567,9.999,9.976,10.0289,10.0596,10.0596,10.0096,9.976,9.976,10.0018,10.021,10.021,10.1083,10.1505,10.1505,10.1609,10.1585,10.1684,10.2289,10.2919,6.8125,7.1992,7.6992,8.2109,8.6601,9.0664,9.414,9.625,9.7734,9.8672,10.0311,10.1517,10.1588,10.3605,10.4801,10.3105,10.5014,10.5717,10.3218,10.3586,10.3513,10.1817,10.2391,10.3299,10.4106,10.6499,10.8414,10.9181,11.0117,11.0891,11.1809,11.2589,11.3097,11.3097,11.3097,11.3097,11.3097,11.3097,11.3097,11.3097,11.3097,11.3602,11.4383,11.4383,11.4383,11.4305,11.3487,11.3097,11.3097,11.3097,11.3097,11.3214,11.3993,11.38,11.3218,11.3999,11.371,11.2797,11.2886,11.3007,11.2812,11.1992,11.1718,11.1403,11.0298,10.99,10.9793,10.9596,10.8687,10.7497,10.5915,10.4787,10.3884,10.2915,10.2712,10.2795,10.2597,10.2597,10.2597,10.2597,10.2597,10.2904,10.3597,10.3789,10.3482,10.2597,10.3212,10.2481,9.9211,9.9529,9.976,9.8904,9.9567,9.976,9.8904,9.8865,9.8865,9.8865,9.8865,9.8827,9.8827,9.9644,10.0106,10.0106,10.0914,10.1289,10.1289,10.1394,10.1479,10.1489,10.1579,10.2511,7.3867,7.8398,8.2812,8.6836,9.1094,9.4765,9.6484,9.8203,9.9492,9.9804,9.8984,9.8202,9.8158,9.9326,10.0492,10.0989,10.3292,10.5089,10.5285,10.5601,10.5014,10.2616,10.4194,10.4905,10.3416,10.5098,0.0,10.9118,11.0085,11.1013,11.1787,11.2596,11.3097,11.3097,11.3097,11.3097,11.3097,11.368,11.368,11.3097,11.368,11.3798,11.3605,11.411,11.4383,11.4383,11.3487,11.3409,11.3993,11.3993,11.3993,11.3993,11.4305,11.4188,11.3915,11.3602,11.3286,11.2999,11.3102,11.3095,11.3017,11.2703,11.2195,11.1699,11.1285,11.0583,10.9904,10.9781,10.9399,10.8698,10.7607,10.6989,10.6315,10.4314,10.3808,10.349,10.2187,10.2412,10.249,10.1885,10.2212,10.2712,10.2981,10.302,10.2904,10.2597,10.2789,10.2597,10.1481,10.1597,10.1404,10.0596,10.0712,10.1019,10.1289,10.1289,10.1597,10.2097,10.2212,10.1904,10.1289,10.1597,10.1481,10.0904,10.1212,10.1279,10.1279,10.1318,10.1414,10.1518,10.2711,10.3489,7.9453,8.3476,8.6913,9.1601,9.4842,9.7224,9.8357,9.949,10.0193,9.9881,9.8045,9.6171,9.5233,9.5232,9.6168,9.854,10.0804,10.3187,10.5883,10.6198,10.5416,10.31,10.4281,10.4715,10.3109,10.4085,10.5882,10.8186,10.9502,11.0506,11.1319,11.2518,11.3097,11.3097,11.3097,11.3097,11.3097,11.368,11.3798,11.3602,11.4383,11.4695,11.45,11.5086,11.5203,11.4813,11.4307,11.4188,11.4383,11.4695,11.4891,11.4891,11.5203,11.5086,11.4813,11.4617,11.4307,11.3917,11.3292,11.3097,11.3097,11.3097,11.2707,11.2285,11.2209,11.1715,11.1093,11.1003,11.05,10.9885,10.8989,10.8485,10.7811,10.5781,10.5117,10.4606,10.3314,10.2911,10.2707,10.2395,10.2492,10.2712,10.2981,10.2789,10.2712,10.2981,10.2789,10.2597,10.2597,10.2289,10.2212,10.2212,10.202,10.202,10.2597,10.2597,10.2712,10.2981,10.2981,10.2712,10.2212,10.2097,10.202,10.1789,10.1789,10.1894,10.2212,10.252,10.2703,10.2809,10.3888,10.4581,8.4336,8.7147,8.9527,9.6128,9.7842,9.8304,9.9945,10.0296,9.9985,9.8931,9.7213,9.507,9.2461,9.1445,9.2108,9.5574,9.7836,10.0609,10.4909,10.5501,10.4916,10.3189,10.3117,10.3118,10.2993,10.3694,10.4905,10.6584,0.0,10.968,11.0481,11.2199,11.3097,11.3097,11.3097,11.3097,11.3097,11.3097,11.3605,11.4305,11.5281,11.6101,11.6882,11.6882,11.6491,11.5791,11.5713,11.5281,11.4617,11.5398,11.5791,11.5791,11.6686,11.6491,11.5908,11.6608,11.6413,11.5517,11.38,11.3214,11.3214,11.3097,11.3097,11.3097,11.3097,11.3105,11.3006,11.2811,11.2117,11.0989,11.0005,10.9216,10.8305,10.72,10.6502,10.5902,10.5713,10.4305,10.3288,10.4004,10.3415,10.3107,10.3915,10.3405,10.3212,10.3905,10.3405,10.2789,10.2597,10.1904,10.202,10.3597,10.302,10.2597,10.2597,10.2597,10.2404,10.1587,10.1587,10.1587,10.1587,10.151,10.1894,10.2789,10.2789,10.3212,10.3982,10.4789,10.5223,10.5223,10.53,10.5713,8.7617,9.1992,9.5663,9.8082,9.9643,10.0617,10.0298,10.0297,9.9322,9.5891,9.1791,8.7809,8.457,8.5351,8.7851,9.1953,9.7304,10.2382,10.6718,10.7304,10.6717,10.4995,10.5296,10.5212,10.389,10.4614,10.5503,0.0,10.8284,10.9686,11.0502,11.2207,11.3097,11.3097,11.3097,11.3097,11.3097,11.368,11.3915,11.3409,11.501,11.5515,11.5086,11.571,11.6296,11.6608,11.5984,11.5906,11.6413,11.6608,11.6686,11.6686,11.6882,11.6882,11.6608,11.6218,11.5908,11.5596,11.5205,11.4617,11.3993,11.3292,11.3097,11.3097,11.3097,11.3105,11.3007,11.3005,11.2603,11.2103,11.1194,11.031,10.9417,10.8491,10.7618,10.679,10.5986,10.5502,10.5008,10.441,10.5004,10.5708,10.582,10.6597,10.6905,10.5905,10.6097,10.5482,10.2904,10.2404,10.2212,10.202,10.1789,10.1904,10.252,10.3212,10.3982,10.501,10.5087,10.5395,10.602,10.4789,10.4482,10.5395,10.4789,10.4905,10.579,10.602,10.6097,10.6097,10.729,10.8098,9.2109,9.5781,9.8553,9.984,10.0619,10.0303,9.7563,9.6624,9.4595,8.8389,8.4483,8.1049,7.7186,7.9257,8.3045,8.773,9.4293,10.0698,10.6086,10.7186,10.7109,10.6092,10.639,10.6216,10.4819,10.5501,10.6306,10.7215,10.8506,10.9716,11.0497,11.2205,11.3097,11.3097,11.3487,11.368,11.368,11.4188,11.4305,11.4307,11.5593,11.6218,11.6101,11.6608,11.6882,11.6999,0.0,11.6882,11.6999,11.7389,11.7584,11.7584,11.7584,11.7584,11.7506,11.6999,11.6806,11.6806,11.6413,11.5984,11.5281,11.411,11.3409,11.3097,11.3097,11.3088,11.2998,11.3007,11.2909,11.2702,11.2111,11.1598,11.1011,11.0089,10.9514,10.8912,10.7902,10.7414,10.6708,10.5697,10.6087,10.6689,10.6613,10.7197,10.7521,10.651,10.679,10.6405,10.452,10.4289,10.4405,10.4597,10.4289,10.4289,10.4789,10.529,10.579,10.6405,10.6395,10.6587,10.7098,10.6213,10.6097,10.7021,10.6482,10.6713,10.7521,10.7905,10.829,10.8703,10.9598,11.0214,9.6562,9.8593,9.9723,10.1402,10.089,9.8851,9.4044,9.1621,8.8105,7.9904,7.7015,7.4753,7.0893,7.3746,7.8512,8.4135,9.0775,9.7609,10.4594,10.6208,10.6718,10.6914,10.6901,10.6604,10.5782,10.6392,10.72,10.8098,10.8996,10.9816,11.0594,11.2197,11.3214,11.3292,11.3993,11.4383,11.4383,11.45,11.4891,11.5517,11.6491,11.7389,11.8092,11.8209,11.7897,11.7194,0.0,0.0,11.7194,11.8014,11.8287,11.8287,11.8287,11.8287,11.8287,11.8287,11.8287,11.8209,11.7389,11.7116,11.6686,11.5008,11.3915,11.3292,11.3097,11.3097,11.3111,11.3197,11.3085,11.3002,11.2882,11.2593,11.2216,11.1596,11.1301,11.099,11.0291,10.9384,10.8482,10.7587,10.7289,10.7187,10.7198,10.7085,10.701,10.6895,10.701,10.7087,10.7087,10.6703,10.7021,10.8406,10.7905,10.7521,10.7521,10.7598,10.7405,10.679,10.6703,10.678,10.7087,10.6895,10.7213,10.8213,10.8213,10.8598,10.9406,11.0291,11.1098,11.178,11.178,11.2203,9.7969,9.9922,10.1406,10.2419,10.089,9.842,9.5365,9.0125,8.4307,7.8498,7.3271,6.9291,6.7848,7.1091,7.6597,8.4599,9.1075,9.7789,10.5412,10.6594,10.699,10.7695,10.78,10.7697,10.758,10.768,10.8098,10.8996,10.9816,11.0714,11.1494,11.2509,11.3409,11.4188,11.4305,11.4383,11.4383,11.5086,11.5203,11.4617,11.6218,11.7116,11.7194,11.8014,11.8209,11.8092,11.8209,0.0,11.8092,11.8209,11.8287,11.8287,11.8287,11.8287,11.8287,11.8287,11.8287,11.8287,11.8092,11.7584,11.6686,11.5008,11.4305,11.3993,11.3292,11.3097,11.3216,11.4011,11.358,11.3084,11.3687,11.2215,11.0896,11.2107,11.1301,11.0407,11.099,11.0388,10.9785,11.0212,11.0087,10.9995,10.9908,11.0282,11.0406,10.9598,11.0214,11.0588,11.0588,10.8087,10.651,10.679,10.6703,10.6587,10.6587,10.729,10.7905,10.8406,10.8482,10.9098,11.0598,10.9213,10.9213,11.078,11.078,11.1203,11.2022,11.2906,11.3407,11.3599,11.3599,11.3599,9.9101,10.0898,10.2303,10.2184,10.0304,9.6587,8.9946,8.4164,7.7916,7.0034,6.5818,6.3241,6.2382,6.6835,7.242,7.7883,8.4593,9.1968,10.0208,10.21,10.3983,10.7617,10.7995,10.8006,10.7996,10.7987,10.8488,10.9816,11.0282,11.0909,11.1807,11.2589,11.3487,11.4383,11.3993,11.3915,11.4383,11.4813,11.5008,11.5086,11.6413,11.7194,11.7701,11.8092,11.8287,11.8287,11.8287,0.0,11.8287,11.8287,11.8287,11.8287,11.8287,11.8287,11.8287,11.8287,11.8287,11.8287,11.8287,11.8014,11.7506,11.6218,11.5398,11.5008,11.462,11.4112,11.3993,11.4813,11.4083,11.3201,11.3899,11.282,11.1519,11.179,11.1301,11.0912,11.1806,11.1612,11.1398,11.1797,11.1692,11.1489,11.1309,11.1491,11.1389,11.0878,11.1203,11.1511,11.1511,11.0395,10.9511,10.9087,10.9087,10.9087,10.9087,10.979,11.0291,11.0291,11.0598,11.1291,11.2088,11.1291,11.1483,11.2791,11.2791,11.2791,11.2714,11.3099,11.3599,11.3984,11.3984,11.4484,9.9453,10.1288,10.2497,10.1793,9.921,9.4362,8.4758,7.8392,7.1871,6.2577,5.9453,5.832,5.8203,6.2929,6.8007,7.1676,7.8036,8.5685,9.4857,9.7802,10.121,10.6992,10.7917,10.8006,10.7983,10.802,10.8605,11.0087,11.0596,11.1182,11.2002,11.2707,11.3487,11.4383,11.368,11.368,11.4383,11.4383,11.4813,11.5713,11.6413,11.7311,11.8287,11.8287,11.8287,11.8287,11.8287,0.0,0.0,11.8209,11.8209,11.8014,11.8209,11.8287,11.8287,11.8287,11.8287,11.8287,11.8092,11.8092,11.8211,11.7318,11.6496,11.5906,11.5791,11.5203,11.4893,11.5717,11.4782,11.3789,11.4498,11.3703,11.249,11.1803,11.1883,11.2311,11.301,11.3088,11.3088,11.2894,11.2701,11.2515,11.2108,11.2007,11.1905,11.1617,11.1812,11.2022,11.178,11.2522,11.2714,11.2088,11.2011,11.2011,11.2011,11.2599,11.2714,11.2099,11.2599,11.2983,11.2983,11.2791,11.3022,11.3714,11.3907,11.3714,11.2983,11.3291,11.3984,11.4791,11.4791,11.5599,9.8242,10.039,10.1718,10.1598,9.7883,9.237,8.5144,7.647,6.8387,6.273,5.8437,5.6367,5.867,6.0856,6.4684,7.1989,7.6397,8.2721,9.3743,9.7456,10.0897,10.6208,10.7489,10.8018,10.7985,10.802,10.841,10.9308,11.0792,11.208,11.2902,11.3097,11.3487,11.4383,11.4305,11.4305,11.4383,11.4383,11.4813,11.5713,11.5791,11.6689,11.8287,11.8287,11.8287,11.8287,11.8287,0.0,0.0,11.8014,11.7819,11.7194,11.8014,11.8287,11.8287,11.8287,11.8287,11.8209,11.7389,11.7584,11.8213,11.7294,11.6898,11.6686,11.5906,11.5596,11.5793,11.6593,11.6212,11.5608,11.6399,11.4788,11.2797,11.2499,11.3593,11.4797,11.4914,11.4914,11.4603,11.3787,11.3594,11.3212,11.2414,11.2599,11.261,11.178,11.288,11.3483,11.2714,11.3291,11.3907,11.3791,11.3791,11.3791,11.3791,11.3791,11.3791,11.3791,11.3791,11.3907,11.3907,11.3099,11.2703,11.2791,11.3599,11.3984,11.3907,11.5407,11.6599,11.7484,11.7484,11.7984,9.6991,9.9882,10.1283,10.0304,9.6893,9.1492,8.252,7.4749,6.7488,6.078,5.7226,5.5781,5.7343,5.8593,6.0937,6.5585,6.7887,7.2687,8.2881,8.6983,9.2028,10.0311,10.3393,10.5684,10.779,10.802,10.8605,10.9894,11.1611,11.2707,11.3097,11.3097,11.3292,11.3602,11.3602,11.3602,11.3602,11.3602,11.411,11.4891,11.4891,11.5593,11.6689,11.6689,11.6689,11.6806,11.7311,0.0,0.0,11.7389,11.7584,11.7819,11.7584,11.7506,11.7584,11.8092,11.8014,11.7508,11.7716,11.7995,11.8193,11.7898,11.7781,11.7699,11.7386,11.6919,11.6686,11.7511,11.6712,11.5781,11.6708,11.5182,11.3503,11.3396,11.3515,11.3593,11.3593,11.3981,11.4214,11.3897,11.4207,11.4302,11.3792,11.3786,11.3806,11.3202,11.3615,11.3907,11.3483,11.4214,11.4599,11.4099,11.3984,11.3984,11.3984,11.3984,11.3791,11.3291,11.3714,11.3984,11.3984,11.4214,11.4484,11.4984,11.5792,11.5984,11.5484,11.6715,11.7484,11.7792,11.7792,11.8292,9.5036,9.8476,10.0183,9.8931,9.5247,8.9416,7.9822,7.2563,6.593,5.8945,5.6328,5.5586,5.6445,5.7305,5.8633,6.0937,6.2694,6.6988,7.6204,8.0265,8.5856,9.5429,9.8941,10.2017,10.5689,10.728,10.8681,11.0399,11.1611,11.2589,11.3097,11.3097,11.3097,11.3097,11.3097,11.3097,11.3097,11.3097,11.3485,11.4383,11.4383,11.4891,11.5713,11.5713,11.5713,11.5713,0.0,0.0,0.0,11.6608,11.6999,11.7506,11.7116,11.7003,11.7085,11.7985,11.7911,11.741,11.7814,11.8092,11.8289,11.7991,11.8111,11.8307,11.831,11.7917,11.7483,11.8111,11.7382,11.6511,11.6802,11.5804,11.4786,11.4589,11.4098,11.3787,11.4098,11.4603,11.4907,11.4603,11.5108,11.5319,11.4817,11.4878,11.4719,11.388,11.4301,11.4484,11.3714,11.4791,11.5291,11.4484,11.4599,11.4484,11.3984,11.4214,11.4214,11.3791,11.4599,11.5215,11.5484,11.5907,11.6292,11.6907,11.7484,11.7484,11.6907,11.7792,11.8292,11.8523,11.8523,11.8985,9.2067,9.5781,9.7729,9.7722,9.2563,8.5414,7.7599,6.9873,6.2888,5.7695,5.5898,5.5586,5.6445,5.7305,5.8437,6.0156,6.3319,6.8592,7.7265,8.0702,8.5195,9.3004,9.4722,9.6942,10.1292,10.5492,10.8681,11.0399,11.0516,0.0,11.3019,11.3097,11.3097,11.3097,11.3097,11.3097,11.3097,11.3097,11.3485,11.4383,11.4383,11.4891,11.5713,11.5713,11.5713,0.0,0.0,0.0,0.0,11.5713,11.5713,11.5791,11.6686,11.7011,11.7106,11.8006,11.8289,11.8184,11.7287,11.7599,11.8186,11.7297,11.7612,11.8317,11.8281,11.8316,11.8304,11.8314,11.8319,11.8004,11.7006,11.6682,11.6583,11.6414,11.6397,11.6584,11.7516,11.7711,11.74,11.6506,11.6397,11.6079,11.5179,11.5507,11.5196,11.361,11.5116,11.561,11.3022,11.4907,11.6187,11.5418,11.5995,11.5792,11.4099,11.4791,11.561,11.6418,11.7292,11.81,11.8985,11.8215,11.7792,11.7792,11.7792,11.7792,11.7792,11.8715,11.9485,12.0292,12.0292,12.0716,8.2096,8.5623,8.7615,8.5856,8.3312,7.936,7.2177,6.7767,6.3552,5.7773,5.6367,5.6289,5.6562,5.6836,5.8554,6.3201,6.488,6.8002,7.487,8.1083,8.6675,9.1562,9.9132,10.45,10.5804,10.771,10.9308,11.0399,11.1104,11.1885,11.3019,11.3097,11.3097,11.3097,11.3097,11.3097,11.3097,11.2509,11.2587,11.3487,11.2916,11.3117,11.3897,11.3909,0.0,0.0,0.0,0.0,0.0,11.4813,11.5204,11.571,11.5281,11.5597,11.6187,11.7084,11.74,11.7483,11.7803,11.8117,11.8314,11.8006,11.8085,11.8281,11.8281,11.8281,11.8318,11.8316,11.7811,11.7198,11.6819,11.6215,11.5687,11.5483,11.5108,11.4719,11.4985,11.4985,11.4991,11.4719,11.5108,11.5385,11.5015,11.5388,11.5615,11.4887,11.5794,11.6187,11.5407,11.5995,11.6418,11.6099,11.6303,11.6303,11.5803,11.5995,11.6187,11.6495,11.7292,11.7907,11.8215,11.8484,11.8407,11.7792,11.8908,11.8908,11.7792,11.9792,12.0908,12.1177,12.1177,12.1293,7.5339,7.9255,8.1249,7.9609,7.7575,7.4524,6.8902,6.5584,6.2304,5.7578,5.6601,5.6601,5.6601,5.6875,5.832,6.2069,6.3784,6.6711,7.2762,7.8856,8.4955,9.1054,9.9363,10.5004,10.5884,10.7712,10.9191,11.0011,11.0917,11.1702,11.2602,11.2602,11.2602,11.2602,11.2912,11.3107,11.3107,11.2607,11.2611,11.3118,11.2192,11.2314,11.3095,11.279,0.0,0.0,0.0,0.0,0.0,11.4006,11.4396,11.5215,11.4592,11.4907,11.5808,11.6707,11.7217,11.7493,11.7693,11.781,11.7811,11.7812,11.8008,11.8281,11.8281,11.8281,11.8203,11.7887,11.7617,11.7208,11.6399,11.5807,11.5291,11.5107,11.4409,11.402,11.4603,11.4797,11.4914,11.5179,11.5691,11.6013,11.5915,11.6189,11.6314,11.6113,11.6478,11.6614,11.6094,11.6688,11.6891,11.6495,11.7111,11.7484,11.7484,11.7176,11.71,11.7484,11.8292,11.8715,11.8715,11.9292,11.9215,11.8292,11.9292,11.9485,11.8715,12.0677,12.1612,12.1612,12.1612,12.1612,0.0,7.5195,7.7187,7.707,7.4062,7.0312,6.6991,6.3164,0.0,5.7109,5.6601,5.664,5.6758,5.7344,5.8008,5.8555,6.1324,6.554,7.1523,7.5778,8.2145,9.2458,9.7215,10.0602,10.301,10.6117,10.841,10.9191,10.9989,11.0898,11.1718,11.1718,11.1718,11.1718,11.2617,11.3008,11.3006,11.2983,11.299,11.3108,11.2287,11.2288,11.3109,11.2288,0.0,0.0,0.0,0.0,0.0,11.3383,11.3617,11.4281,11.4281,11.4912,11.5816,11.6597,11.7499,11.8203,11.7383,11.7109,11.6992,11.6914,11.75,11.8203,11.8203,11.8203,11.8007,11.7184,11.7496,11.7617,11.5791,11.5317,11.5297,11.5098,11.4486,11.4409,11.6001,11.6397,11.6506,11.74,11.7516,11.7516,11.7516,11.739,11.7188,11.7097,11.7091,11.6798,11.5709,11.7097,11.7794,11.6886,11.8188,11.91,11.9292,11.8484,11.8292,11.91,11.9908,12.0408,12.0292,12.0408,11.9985,11.91,11.91,11.9485,12.0408,12.11,12.1485,12.1612,12.1612,12.1612,5.8984,0.0,6.5311,6.4023,6.3437,6.2578,0.0,5.9726,5.8945,5.6992,5.6601,5.6992,5.8359,5.7656,5.8828,6.4724,6.6949,6.9759,7.5148,8.4018,9.3554,10.32,10.5302,10.6384,10.7582,10.7914,10.841,10.9191,10.9509,11.0019,11.0798,11.0798,11.0798,11.0798,11.1686,11.2201,11.211,11.2203,11.2483,11.3108,11.2296,11.2298,11.3196,11.3006,0.0,0.0,0.0,0.0,11.3514,11.3319,11.3319,11.3514,11.3514,11.4413,11.5703,11.5898,11.6992,11.8281,11.8086,11.7617,11.6914,11.6289,11.6601,11.7304,11.7303,11.7302,11.7301,11.7098,11.6209,11.5112,11.4593,11.4387,11.452,11.499,11.4914,11.5108,11.6202,11.5885,11.5496,11.5691,11.5691,11.5691,11.5691,11.6109,11.6414,11.6289,11.7295,11.7992,11.7706,11.8477,11.9196,11.9607,11.929,11.96,12.0908,12.0216,11.9792,11.9985,12.0793,12.0985,12.0292,12.0908,12.06,11.91,11.91,11.9792,12.1304,12.0793,12.0908,12.1612,12.1612,12.1612,5.3984,5.7538,6.0896,5.9998,6.0389,6.0663,5.9335,5.8515,5.7617,5.6289,5.6015,5.6406,5.7773,5.789,5.9531,6.4881,6.7146,7.1285,8.0032,8.9567,9.8437,10.5895,10.7216,10.7909,10.9184,10.85,10.8215,10.8684,10.9084,10.9519,10.9908,10.9908,10.9908,10.9908,11.0396,11.1107,11.1809,11.2294,11.269,11.3081,11.2302,11.2381,11.3202,11.2382,11.2383,0.0,0.0,0.0,11.3203,11.3203,11.3203,11.3203,11.3203,11.3984,11.5117,11.5117,11.6015,11.7109,11.6718,11.6211,11.5781,11.5312,11.6015,11.6992,11.6989,11.6986,11.6903,11.6501,11.6003,11.5312,11.441,11.4692,11.5206,11.5086,11.5108,11.5302,11.6196,11.6001,11.5885,11.6701,11.6895,11.7011,11.74,11.768,11.8104,11.8415,11.8903,11.9303,11.9478,11.9512,11.9791,12.05,12.0016,12.0216,12.1497,12.1189,12.0908,12.0908,12.1293,12.1177,12.0292,12.0793,12.0408,11.91,11.9485,12.01,12.0985,12.1293,12.1716,12.2216,12.2601,12.2716,5.3164,5.6757,6.0272,5.9764,6.0584,6.1248,6.0233,5.8359,5.6601,5.5859,5.5703,5.6055,5.7187,5.8906,6.1055,6.375,6.7031,7.3592,8.6014,9.3632,9.9843,10.5192,10.6395,10.7518,10.9106,10.85,10.802,10.802,10.8701,10.91,10.91,10.91,10.91,10.91,10.9181,11.0009,11.1504,11.2497,11.3007,11.3007,11.2383,11.25,11.3086,11.1718,11.1797,0.0,0.0,0.0,11.3203,11.3203,11.3203,11.3203,11.3203,11.3711,11.4492,11.4492,11.5,11.5586,11.4804,11.4492,11.4492,11.4492,11.5508,11.6797,11.6988,11.6904,11.6698,11.6094,11.6285,11.6385,11.4703,11.5487,11.6482,11.5713,11.5607,11.5885,11.6778,11.7018,11.74,11.8915,11.9187,11.9381,12.008,12.0204,12.0388,12.0789,12.0616,12.0493,12.0793,12.0309,12.0198,12.0794,12.05,12.0677,12.1485,12.1612,12.1689,12.1804,12.1689,12.1304,12.0485,12.0408,11.9985,11.9485,12.0177,12.0485,12.0485,12.21,12.2908,12.2908,12.3716,12.4101,5.5194,5.8163,5.9726,5.6797,5.8359,6.0195,5.8633,5.7969,5.7656,5.7539,5.75,5.8203,6.0508,6.293,6.5703,6.8982,7.5388,8.3436,9.3515,9.7148,10.1015,10.6911,10.7685,10.8182,10.9184,10.85,10.802,10.802,10.81,10.818,10.818,10.818,10.818,10.818,10.8901,10.9418,10.9695,11.1319,11.2107,11.2107,11.2695,11.3086,11.3203,11.289,11.289,0.0,0.0,11.3086,11.3203,11.3203,11.3203,11.3203,11.3203,11.3711,11.4492,11.4492,11.5,11.5703,11.4804,11.4492,11.4492,11.4492,11.5117,11.6015,11.6787,11.6507,11.5993,11.6586,11.642,11.5816,11.539,11.5992,11.6808,11.73,11.7919,11.8604,11.9381,11.9614,11.9692,12.0003,12.0003,12.008,12.0204,12.0204,11.9996,11.9392,12.0494,12.1115,12.0405,12.1193,12.1792,12.1918,12.0984,12.0677,12.1485,12.1612,12.1908,12.2716,12.1985,12.1485,12.142,12.0677,12.06,12.1177,12.1293,12.142,12.142,12.2408,12.2908,12.2908,12.3716,12.4101,5.3359,5.6367,5.8906,5.8203,6.0664,6.3008,6.2226,6.0586,5.9375,5.9844,5.957,5.9883,6.1992,6.5664,7.0547,7.7265,8.4491,9.1093,9.6406,10.0195,10.3787,10.7613,10.8384,10.8916,10.93,10.85,10.7985,10.7996,10.7998,0.0,10.7998,10.7998,10.7993,10.802,10.8381,10.8582,10.8582,10.9895,11.1004,11.191,11.2303,11.2695,11.3203,11.2695,11.2812,11.3203,0.0,11.2812,11.3203,11.3203,11.3203,11.3203,11.3203,11.3398,11.3789,11.3789,11.4101,11.4297,11.3906,11.4101,11.4492,11.4492,11.539,11.6482,11.69,11.7007,11.7193,11.7595,11.6686,11.5897,11.6712,11.7415,11.8199,11.8913,11.9402,11.9692,12.008,11.9886,11.9809,12.0702,12.0508,12.0515,12.1401,12.1596,12.1479,12.1091,12.1712,12.2101,12.1712,12.1507,12.1694,12.212,12.1121,12.0677,12.1485,12.1985,12.2716,12.3485,12.2793,12.2485,12.2908,12.1677,12.16,12.2908,12.2485,12.2485,12.2985,12.3793,12.4293,12.4293,12.5101,12.5486,5.3008,5.5508,5.8398,6.0508,6.3008,6.5351,6.6797,6.457,6.2656,6.4101,6.3906,6.3828,6.5156,7.0117,7.6875,8.5586,9.2109,9.6875,9.9219,10.289,10.609,10.7806,10.8617,10.8995,10.8987,10.8392,10.8001,10.8014,0.0,0.0,10.8016,10.8016,10.8008,10.7989,10.7987,10.7985,10.802,10.8701,10.9816,11.1281,11.1714,11.2185,11.289,11.2383,11.2617,11.3203,11.25,11.2617,11.3203,11.3203,11.3203,11.3203,11.3203,11.3281,11.3515,11.3281,11.3281,11.3515,11.3515,11.3906,11.4609,11.5,11.6014,11.6986,11.7208,11.7586,11.8003,11.8216,11.7313,11.66,11.8001,11.8782,11.9411,12.0081,12.0219,12.0204,12.0204,11.9692,11.9692,12.1207,12.1013,12.1013,12.2489,12.28,12.2683,12.2489,12.2683,12.2683,12.2489,12.1819,12.1479,12.2081,12.1511,12.14,12.242,12.2908,12.3601,12.4601,12.3716,12.3485,12.4101,12.2908,12.2793,12.4101,12.3485,12.3485,12.4101,12.4986,12.5409,12.5409,12.6294,12.669,5.7772,5.828,5.8672,6.199,6.3007,6.4648,7.0273,6.9531,6.8555,7.1797,7.2422,7.2422,7.2539,7.8749,8.5935,9.2226,9.6327,10.0194,10.4414,10.5312,10.6092,10.7799,10.8116,10.8115,10.8091,10.7982,10.7989,10.799,0.0,0.0,10.799,10.799,10.7984,10.801,10.8008,10.8,10.802,10.8098,10.858,10.9499,11.1084,11.1911,11.1989,11.2812,11.3086,11.3203,11.3086,11.3086,11.3203,11.3203,11.3203,11.3203,11.3203,11.3711,11.4297,11.3515,11.3711,11.4414,11.4414,11.4414,11.4804,11.6287,11.691,11.718,11.8017,11.7694,11.7298,11.8098,11.8209,11.8213,11.92,11.9296,11.9412,12.0298,12.0303,12.0204,12.0204,12.0204,12.0391,12.1285,12.1401,12.1712,12.2606,12.28,12.2489,12.1712,12.2295,12.2489,12.1712,12.2109,12.2278,12.2216,12.2688,12.3584,12.501,12.4409,12.4716,12.6421,12.4909,12.3985,12.4101,12.3985,12.3985,12.4101,12.3985,12.3985,12.4101,12.4986,12.5409,12.5409,12.6294,12.669,5.5625,5.7304,5.9648,6.3632,6.582,6.8008,7.1914,7.332,7.4765,7.8203,7.8476,7.8594,8.0195,8.4648,8.9882,9.5351,9.9609,10.3203,10.5898,10.6718,10.7302,10.7883,10.7998,10.7994,10.7986,10.7988,10.7994,10.8,0.0,0.0,10.8,10.8,10.7996,10.7984,10.8016,10.7694,10.7219,10.7714,10.7907,10.7682,11.0019,11.1399,11.1911,11.2812,11.3203,11.3203,11.3203,11.3203,11.3203,11.3203,11.3203,11.3281,11.3789,11.3906,11.3787,11.4492,11.4609,11.4491,11.5117,11.5312,11.5388,11.6598,11.6981,11.7201,11.8009,11.8114,11.7985,11.8797,11.899,11.9198,11.9984,12.011,12.0183,12.0999,12.0694,12.0204,12.0204,11.9809,11.9886,12.1207,12.1091,12.1091,12.2606,12.28,12.2916,12.3111,12.2916,12.2916,12.3111,12.3203,12.3187,12.299,12.351,12.4207,12.5305,12.5101,12.5409,12.6601,12.5101,12.4601,12.5678,12.4216,12.4101,12.5678,12.4716,12.4601,12.5678,12.5986,12.6178,12.6178,12.6486,12.669,5.4961,5.6758,5.9805,6.4101,6.7539,7.0976,7.5508,7.793,8.0429,8.4687,8.4648,8.4375,8.6172,8.9101,9.2656,9.6992,10.1406,10.4883,10.6797,10.7382,10.7693,10.8004,10.8002,10.7999,10.7996,10.7803,10.7611,10.7615,0.0,0.0,0.0,10.7889,10.8003,10.7996,10.7989,10.771,10.7119,10.7692,10.7687,10.7103,10.9194,11.0612,11.1517,11.2382,11.289,11.3203,11.289,11.289,11.3203,11.3203,11.3203,11.3281,11.4218,11.41,11.3785,11.5195,11.5311,11.4918,11.5898,11.6093,11.6284,11.7102,11.7403,11.7497,11.8116,11.83,11.8404,11.899,11.9497,11.9981,12.0612,12.0382,12.03,12.1108,12.0299,11.9381,11.9381,11.9187,11.9381,12.0819,12.0819,12.1091,12.2489,12.28,12.2994,12.3616,12.3188,12.2994,12.3616,12.3785,12.3819,12.3783,12.3996,12.4293,12.4909,12.4793,12.4986,12.5794,12.4793,12.4909,12.6601,12.4986,12.4793,12.6306,12.5101,12.5101,12.6294,12.6294,12.6409,12.669,12.669,12.669,5.707,5.7265,5.8984,6.3281,6.7617,7.3047,8.1719,8.3672,8.539,9.1406,9.1289,9.0078,9.0039,9.2187,9.4765,9.7304,10.1406,10.5117,10.7617,10.7304,10.6992,10.7887,10.8007,10.8007,10.8004,10.7187,10.6719,10.6719,0.0,0.0,0.0,10.75,10.8007,10.8004,10.8004,10.8,10.7991,10.7991,10.7991,10.7991,10.8889,10.9788,11.0609,11.1482,11.2383,11.3086,11.2304,11.2383,11.3203,11.3203,11.3203,11.3281,11.4218,11.4491,11.4488,11.5507,11.5819,11.5817,11.6718,11.6991,11.7103,11.7993,11.8292,11.8315,11.8296,11.8287,11.8287,11.8287,11.9497,12.0785,12.0785,12.0,11.9385,12.0285,11.9088,11.7711,11.7711,11.841,11.9187,12.0003,12.0896,12.179,12.2606,12.28,12.28,12.28,12.28,12.28,12.28,12.3389,12.399,12.4391,12.4203,12.4101,12.4101,12.3408,12.3293,12.4101,12.4101,12.4909,12.6601,12.669,12.6294,12.5409,12.5409,12.5409,12.5409,12.5409,12.5909,12.669,12.669,12.669,5.5976,5.8086,6.1758,6.6719,7.3008,7.9883,8.7304,8.9023,9.0547,9.5976,9.5742,9.4375,9.3789,9.4804,9.6562,9.9101,10.2187,10.5117,10.7617,10.7812,10.7695,10.8007,10.8007,10.8008,10.8007,10.7187,10.6992,0.0,0.0,0.0,0.0,10.789,10.8008,10.8007,10.8005,10.769,10.7103,10.7683,10.7718,10.7094,10.8584,10.9404,10.9711,11.1206,11.199,11.2303,11.2695,11.3008,11.3203,11.3203,11.3202,11.3318,11.4099,11.4014,11.3688,11.5893,11.6205,11.5887,11.7418,11.7494,11.7094,11.8019,11.7884,11.7515,11.8094,11.8287,11.8404,11.899,11.9497,12.02,12.141,12.1005,12.0301,12.0494,11.9612,11.8487,11.7789,11.841,11.9187,12.0003,12.0896,12.179,12.2606,12.28,12.2994,12.3616,12.3693,12.4082,12.5286,12.4988,12.4909,12.5694,12.4899,12.4305,12.4305,12.4003,12.4101,12.4986,12.4986,12.4986,12.4909,12.5486,12.5678,12.5409,12.5409,12.5678,12.6294,12.6294,12.6409,12.669,12.669,12.6421,5.8242,6.125,6.5703,7.1601,7.7344,8.3672,9.1953,9.4375,9.5859,9.9336,9.8672,9.7422,9.7265,9.7656,9.875,10.1015,10.3515,10.5898,10.7695,10.8008,10.8008,10.8008,10.8008,10.8008,10.8008,10.7187,10.6914,0.0,0.0,0.0,0.0,10.7812,10.8008,10.8008,10.8007,10.7694,10.7186,10.7691,10.7689,10.7181,10.8316,10.8783,10.8818,11.0582,11.16,11.1912,11.2812,11.3203,11.3203,11.3203,11.3202,11.3316,11.4097,11.3892,11.3402,11.6002,11.6391,11.5915,11.7683,11.7993,11.759,11.8088,11.7915,11.7584,11.8092,11.8287,11.8404,11.8912,11.9302,11.981,12.1215,12.1407,12.1091,12.0585,11.9803,11.8803,11.7887,11.841,11.9187,12.0003,12.0896,12.179,12.2606,12.28,12.2994,12.3499,12.3895,12.4604,12.578,12.5405,12.5197,12.5593,12.4594,12.3797,12.3412,12.3202,12.3485,12.4409,12.4716,12.4486,12.3716,12.4793,12.5216,12.4909,12.4909,12.5293,12.6178,12.6178,12.6421,12.669,12.669,12.6409,6.207,6.5469,7.0,7.707,8.1367,8.6289,9.5781,9.9297,10.0781,10.1719,10.0508,9.9492,10.039,10.0508,10.1094,10.2695,10.5117,10.6992,10.789,10.8008,10.8008,10.8008,10.8008,10.8008,10.8008,10.7187,10.6719,0.0,0.0,0.0,0.0,10.7617,10.8008,10.8008,10.8008,10.8008,10.8008,10.8008,10.8008,0.0,10.8006,10.8004,10.8083,10.9687,11.1015,11.1914,11.2812,11.3203,11.3203,11.3203,11.3202,11.3315,11.4018,11.3812,11.3397,11.5914,11.6302,11.5901,11.7593,11.8214,11.8319,11.8317,11.8304,11.8287,11.8287,11.8287,11.8287,11.8287,11.8795,11.9614,12.059,12.141,12.1801,12.0914,11.9901,11.8988,11.8002,11.8508,11.9304,12.008,12.1013,12.1906,12.2683,12.28,12.28,12.2916,12.3693,12.4381,12.5117,12.5093,12.4995,12.4787,12.3791,12.2914,12.2103,12.1915,12.2216,12.3101,12.3793,12.3909,12.3216,12.4601,12.4986,12.4101,12.4216,12.4601,12.5486,12.5486,12.5909,12.669,12.669,12.669,6.0273,6.4961,7.1133,7.9414,8.8515,9.6172,9.9062,10.1094,10.2617,10.3515,10.2304,10.1289,10.2187,10.2304,10.2695,10.3711,10.5508,10.6992,10.789,10.8008,10.8008,10.8008,10.8008,10.8008,10.8008,10.7187,10.6992,0.0,0.0,0.0,10.7695,10.789,10.8008,10.8008,10.8008,10.8008,10.8008,10.8008,10.8008,0.0,10.8007,10.8007,10.8007,10.9096,11.0384,11.1912,11.2812,11.3203,11.3203,11.3203,11.3201,11.3111,11.3306,11.329,11.33,11.4492,11.5315,11.5899,11.6916,11.7697,11.8317,11.83,11.8291,11.8287,11.8287,11.8287,11.8287,11.8287,11.8404,11.8912,12.0395,12.0903,12.1203,12.1601,12.0902,11.9904,11.8992,11.9386,12.0003,12.0204,12.1479,12.2606,12.28,12.28,12.2994,12.3693,12.4509,12.5311,12.6213,12.5701,12.522,12.519,12.4085,12.3407,12.3213,12.3391,12.3909,12.4793,12.4986,12.4986,12.4909,12.5216,12.4986,12.4101,12.4793,12.5486,12.6409,12.6409,12.6486,12.669,12.669,12.6294,6.2148,6.793,7.4883,8.4765,9.2851,9.8711,10.0,10.1289,10.2617,10.3906,10.3086,10.2383,10.2812,10.3203,10.3789,10.4687,10.5898,10.6992,10.789,10.8008,10.8008,10.8008,10.8008,10.8008,10.8008,10.7617,0.0,0.0,0.0,10.75,10.8008,10.8008,10.8008,10.8008,10.8008,10.8008,10.8008,10.8008,10.8008,10.8008,10.8008,10.8007,10.8007,10.89,11.0306,11.1911,11.2381,11.2812,11.3203,11.3202,11.3198,11.3106,11.31,11.3083,11.3214,11.4083,11.4987,11.5807,11.6703,11.7601,11.8304,11.8291,11.8287,11.8287,11.8287,11.8287,11.8287,11.8287,11.8287,11.8716,12.0395,12.0785,12.1111,12.2397,12.1597,12.0217,11.9288,11.9382,11.9692,12.008,12.1285,12.2295,12.2683,12.28,12.2994,12.3383,12.4198,12.4898,12.5286,12.5014,12.4898,12.5286,12.3899,12.3302,12.4115,12.3892,12.4199,12.552,12.5519,12.5409,12.5409,12.5409,12.5216,12.4716,12.5178,12.5794,12.669,12.669,12.669,12.669,12.669,12.6498,6.3437,7.0937,7.9336,8.9961,9.5273,9.8359,9.9922,10.1094,10.2187,10.3711,10.3398,10.289,10.3086,10.3789,10.4609,10.5195,10.6211,10.7109,10.7695,10.789,10.8008,10.8008,10.8008,10.8008,10.8008,10.8008,0.0,0.0,0.0,10.8008,10.8008,10.8008,10.8008,10.8008,10.8008,10.8008,10.8008,10.789,10.789,10.8008,10.8008,10.789,10.7809,10.8707,10.9917,11.1518,11.1791,11.2302,11.3007,11.3082,11.3192,11.3103,11.3091,11.3113,11.3214,11.411,11.5008,11.5791,11.6686,11.7584,11.8287,11.8287,11.8287,11.8287,11.8287,11.8287,11.8287,11.8287,11.8287,11.8716,12.0395,12.0785,12.1215,12.3011,12.1991,12.0482,11.9796,11.9513,11.9688,12.0316,12.1086,12.1984,12.2683,12.28,12.28,12.28,12.3499,12.4089,12.4089,12.4089,12.4393,12.5208,12.3901,12.3517,12.4995,12.4392,12.4404,12.5798,12.5682,12.5601,12.5409,12.5409,12.5293,12.5216,12.5216,12.5678,12.669,12.6486,12.6614,12.669,12.669,12.669,5.8008,6.9492,8.2304,9.0547,9.5742,9.9101,10.0117,10.1601,10.2812,10.3008,10.3008,10.3086,10.3906,10.4687,10.5117,10.4492,10.6289,10.7617,10.6992,10.75,10.8008,10.8008,10.8008,10.8008,10.8008,10.8008,0.0,0.0,10.8008,10.8008,10.8008,10.8008,10.8008,10.8008,10.8008,10.8008,10.8008,10.7304,10.7304,10.8008,10.8008,10.7617,10.691,10.7809,10.8704,10.9712,11.1197,11.2018,11.2097,11.2798,11.3102,11.3088,11.3086,11.3113,11.3214,11.411,11.5008,11.5791,11.6686,11.7584,11.8287,11.8287,11.8287,11.8287,11.8287,11.8287,11.8287,11.8287,11.8287,11.8716,12.0395,12.0785,12.1215,12.3011,12.2603,12.1795,12.1598,12.1488,12.1384,12.1501,12.2109,12.2683,12.28,12.28,12.28,12.28,12.3499,12.4089,12.4089,12.4089,12.4393,12.5208,12.4902,12.5008,12.5804,12.631,12.6497,12.6597,12.651,12.6178,12.5409,12.5409,12.4986,12.4293,12.4293,12.5101,12.669,12.5909,12.5986,12.669,12.669,12.669,6.3164,7.3242,8.2969,9.125,9.5469,9.8086,9.9883,10.1289,10.2304,10.2812,10.289,10.3008,10.3398,10.3789,10.4101,10.4219,10.5117,10.6093,10.6601,10.6992,10.75,10.789,10.8008,10.8008,10.8008,10.8008,0.0,0.0,10.8008,10.8008,10.8008,10.8008,10.8008,10.8008,10.8008,10.8008,10.8008,10.7617,10.7383,10.7304,10.7812,10.7304,10.6093,10.7416,10.8504,10.9319,11.01,11.0999,11.1897,11.2202,11.2702,11.3084,11.3113,11.3105,11.3214,11.411,11.5008,11.5791,11.6686,11.7584,11.8287,11.8287,11.8287,11.8287,11.8287,11.8287,11.8287,11.8287,11.8287,11.8716,12.0395,12.0785,12.1215,12.3011,12.3118,12.2787,12.2787,12.2181,12.1817,12.2195,12.2616,12.28,12.28,12.28,12.28,12.28,12.3111,12.3383,12.3383,12.3383,12.3813,12.5003,12.4613,12.499,12.6617,12.6405,12.6376,12.6787,12.6301,12.5794,12.5409,12.4909,12.4486,12.4101,12.4101,12.4486,12.5216,12.4909,12.4909,12.5216,12.5216,12.5216,6.5234,7.2656,7.8984,8.8281,9.2734,9.5586,9.8359,10.039,10.1797,10.2383,10.2695,10.2812,10.2617,10.289,10.3398,10.3789,10.4219,10.4883,10.5898,10.6406,10.6914,10.7617,10.789,10.8008,10.8008,10.8008,0.0,0.0,10.8008,10.8008,10.8008,10.8008,10.8008,10.8008,10.8008,10.8008,10.8008,10.8008,10.75,10.6406,10.7304,10.6913,10.5506,10.6787,10.7795,10.869,10.9116,11.0208,11.1614,11.1719,11.2298,11.3117,11.3103,11.3097,11.3214,11.4305,11.5086,11.5908,11.6999,11.7819,11.8287,11.8287,11.8287,11.8287,11.8287,11.8287,11.8287,11.8287,11.8404,11.8912,12.0395,12.0981,12.1488,12.3011,12.3401,12.3408,12.3391,12.271,12.222,12.2692,12.2809,12.28,12.28,12.28,12.28,12.28,12.28,12.28,12.28,12.28,12.3286,12.4589,12.4215,12.4585,12.6393,12.5795,12.5589,12.6189,12.5516,12.4986,12.4793,12.4101,12.3716,12.3485,12.3485,12.3716,12.4101,12.3909,12.3985,12.4409,12.4216,12.4216,5.7656,6.2461,6.7812,7.8906,8.6054,9.125,9.4687,9.8633,10.1601,10.1719,10.2304,10.2617,10.1797,10.3008,10.3906,10.3086,10.4414,10.5195,10.4414,10.5703,10.6719,10.6797,10.75,10.8008,10.8008,10.8008,0.0,0.0,10.8008,10.8008,10.8008,10.8008,10.8008,10.8008,10.8008,10.8008,10.8008,10.8008,10.7109,10.5504,10.6402,10.6282,10.5415,10.5492,10.5994,10.6916,10.8617,10.982,11.0598,11.1496,11.2316,11.3099,11.3097,11.3097,11.3292,11.501,11.5713,11.5908,11.7584,11.8287,11.8287,11.8287,11.8287,11.8287,11.8287,11.8287,11.8287,11.8287,11.8795,11.9614,12.059,12.141,12.2308,12.3206,12.3401,12.3386,12.32,12.3104,12.3008,12.2887,12.2788,12.28,12.28,12.28,12.28,12.28,12.28,12.28,12.28,12.28,12.3092,12.3813,12.3797,12.3999,12.4517,12.4513,12.4404,12.429,12.4178,12.3793,12.3101,12.2985,12.2601,12.1677,12.1677,12.2485,12.4101,12.3293,12.3793,12.5293,12.4486,12.4486,5.6172,6.0859,6.6328,7.4765,8.1445,8.6953,9.0937,9.5625,9.9414,10.0508,10.1484,10.2109,10.2383,10.25,10.2383,10.2109,10.2617,10.3281,10.4101,10.4687,10.5312,10.5898,10.6211,10.6406,10.6406,10.6914,0.0,0.0,0.0,10.7383,10.8008,10.75,10.7383,10.8008,10.8008,10.8008,10.8008,10.8007,10.738,10.6207,10.6594,10.6198,10.5412,10.5406,10.5907,10.668,10.7405,10.8684,11.0594,11.1416,11.2314,11.3097,11.3097,11.3097,11.3214,11.4383,11.5203,11.5908,11.7116,11.7819,11.8287,11.8287,11.8287,11.8287,11.8287,11.8287,11.8287,11.8287,11.8912,11.9692,12.059,12.141,12.2308,12.3206,12.3401,12.341,12.3285,12.3199,12.3094,12.29,12.2794,12.28,12.28,12.28,12.2994,12.3616,12.3616,12.381,12.4315,12.38,12.3705,12.43,12.3885,12.3803,12.4199,12.4289,12.4316,12.4113,12.3601,12.3216,12.2908,12.2408,12.1908,12.1612,12.1612,12.1908,12.2485,12.2216,12.2408,12.2997,12.2601,12.2689,5.3047,5.7148,6.2656,7.0156,7.5039,7.9961,8.7461,9.1797,9.5195,9.8359,10.0195,10.1289,10.1914,10.1797,10.1601,10.1601,10.1601,10.1992,10.3203,10.3594,10.4101,10.5,10.5312,10.5586,10.5898,10.6406,0.0,0.0,0.0,0.0,10.8008,10.75,10.7383,10.8008,10.8008,10.8008,10.8008,10.7693,10.73,10.6712,10.6117,10.5484,10.501,10.4687,10.519,10.6282,10.6581,10.8098,11.0516,11.1104,11.2002,11.3097,11.3097,11.3097,11.3214,11.411,11.5008,11.5791,11.6686,11.7584,11.8287,11.8287,11.8287,11.8287,11.8287,11.8287,11.8404,11.8599,11.9302,12.0083,12.0981,12.1918,12.2698,12.3284,12.3401,12.3401,12.3401,12.3203,12.3108,12.3016,12.2891,12.2916,12.3188,12.3188,12.3383,12.4011,12.4089,12.4198,12.4393,12.3909,12.3589,12.3903,12.3395,12.3096,12.329,12.3412,12.339,12.3305,12.2793,12.2485,12.2485,12.1908,12.1612,12.1612,12.1612,12.1612,12.1612,12.1612,12.1804,12.1985,12.1677,12.1612,0.0,0.0,0.0,6.4414,6.664,7.0312,8.3828,8.6992,8.8867,9.5,9.8242,10.0,10.0312,10.1015,10.1601,10.1484,10.1484,10.1601,10.1601,10.2304,10.3203,10.3984,10.4883,10.5703,10.6484,10.6601,0.0,0.0,10.789,10.789,10.8008,10.8008,10.8008,10.8008,10.8008,10.8008,10.8008,10.7107,10.6712,10.6702,10.4893,10.4097,10.4118,10.3218,10.3804,10.5482,10.6302,10.8098,11.0516,11.0516,11.1611,11.3097,11.3097,11.3097,11.3214,11.3993,11.4891,11.5791,11.6686,11.7506,11.8287,11.8287,11.8287,11.8287,11.8287,11.8287,11.8482,11.9302,12.0083,12.0981,12.1918,12.2815,12.3401,12.3401,12.3401,12.3401,12.3401,12.3203,12.3089,12.3089,12.2918,12.3111,12.3888,12.4089,12.4089,12.4089,12.4089,12.381,12.2994,12.28,12.2813,12.2611,12.2316,12.2111,12.1889,12.1711,12.1585,12.1612,12.1612,12.1612,12.1612,12.1612,12.1612,12.1612,12.1612,12.1612,12.1612,12.1612,12.1985,12.2781,12.1985,12.1612,4.8789,0.0,0.0,0.0,0.0,0.0,7.1289,7.5508,8.0586,8.9101,9.1406,9.3633,9.9258,10.0508,10.0508,9.9804,10.0195,10.0703,10.0703,10.1406,10.1992,10.2304,10.25,10.3008,10.3906,0.0,0.0,0.0,10.6211,10.6719,10.789,10.8008,10.8008,10.8008,10.8008,10.8007,10.8006,10.7102,10.6702,10.6689,10.4915,10.4395,10.5014,10.3491,10.4116,10.6302,10.5912,10.759,11.0516,11.1182,11.208,11.3097,11.3097,11.3097,11.3097,11.3409,11.4385,11.5713,11.5984,11.6999,11.8287,11.8287,11.8287,11.8287,11.8287,11.8716,11.9185,11.9419,12.059,12.1918,12.2815,12.3206,12.3401,12.3401,12.3401,12.3401,12.3401,12.3203,12.3089,12.3089,12.2918,12.2916,12.3111,12.3188,12.3383,12.4011,12.4089,12.4198,12.4587,12.3979,12.3417,12.3198,12.2709,12.2216,12.1684,12.1917,12.1889,12.1597,12.1612,12.1612,12.1612,12.1612,12.1612,12.1612,12.1612,12.1612,12.1612,12.1612,12.1677,12.1985,12.1677,12.1612,5.0469,5.2461,5.543,5.6875,0.0,0.0,6.8437,7.1328,7.5312,8.5547,8.8515,9.1054,9.707,9.8476,9.8672,9.8476,9.8867,9.9336,9.9726,10.0195,10.0703,10.1015,10.1093,10.1405,10.2304,10.2694,10.3515,10.4882,10.5586,10.6601,10.789,10.8008,10.8008,10.8008,10.8008,10.8007,10.8004,10.6786,10.6189,10.6096,10.4791,10.4389,10.4819,10.3804,10.4584,10.6693,10.5795,10.7317,11.0516,11.0987,11.2002,11.3097,11.3097,11.3097,11.3097,11.3487,11.4502,11.5791,11.6101,11.7116,11.8287,11.8287,11.8287,11.8287,11.8287,11.8599,11.9107,11.981,12.1293,12.2815,12.3284,12.3401,12.3401,12.3401,12.3401,12.3401,12.3401,12.3203,12.3089,12.3089,12.2918,12.2916,12.3305,12.3305,12.3499,12.4011,12.4393,12.4509,12.4315,12.439,12.4296,12.381,12.3294,12.2815,12.2408,12.2082,12.1787,12.1585,12.1612,12.1612,12.1612,12.1612,12.1612,12.1612,12.1612,12.1612,12.1612,12.1612,12.1612,12.1612,12.1612,12.1804,5.2812,5.4375,0.0,0.0,0.0,0.0,6.9687,7.0351,7.1523,8.2031,8.6054,8.8906,9.289,9.4336,9.5117,9.5742,9.6484,9.7422,9.8672,9.9023,9.9414,10.0195,10.0389,10.07,10.1481,10.2184,10.3004,10.3785,10.5507,10.6797,10.7812,10.789,10.789,10.8008,10.8008,10.8007,10.8003,10.6317,10.5408,10.5509,10.4594,10.4118,10.4118,10.4118,10.5016,10.6497,10.5717,10.7317,11.0399,11.0399,11.1416,11.3097,11.3097,11.3097,11.3214,11.411,11.5008,11.5791,11.6686,11.7584,11.8287,11.8287,11.8287,11.8287,11.8287,11.8404,11.8912,12.059,12.2191,12.3401,12.3401,12.3401,12.3401,12.3401,12.341,12.3417,12.3417,12.3201,12.311,12.311,12.2898,12.2994,12.381,12.4011,12.4011,12.4011,12.4587,12.4587,12.3111,12.4315,12.5007,12.4293,12.3793,12.3493,12.3493,12.2316,12.1597,12.1612,12.1612,12.1612,12.1612,12.1612,12.1612,12.1612,12.1612,12.1612,12.1612,12.1612,12.1612,12.1612,12.1612,12.21,5.5781,5.7109,5.8359,0.0,0.0,0.0,5.8515,6.0703,6.4805,7.0547,7.2617,7.5547,8.25,8.4492,8.4883,8.4336,8.8906,9.3828,9.7422,9.914,10.0117,10.0312,10.0898,10.1406,10.1601,10.1092,10.1207,10.1988,10.3708,10.5389,10.6914,10.6992,10.7304,10.8008,10.8008,10.8006,10.7994,10.6314,10.5794,10.6388,10.4901,10.4118,10.4118,10.4118,10.4702,10.5599,10.5482,10.7005,10.9503,10.9503,11.0909,11.3097,11.3097,11.3097,11.3214,11.411,11.5008,11.5791,11.6686,11.7584,11.8287,11.8287,11.8287,11.8287,11.8287,11.9185,12.0707,12.2386,12.3089,12.3401,12.3401,12.3401,12.3401,12.3401,12.3294,12.32,12.32,12.3108,12.2917,12.2917,12.2907,12.2916,12.2994,12.3111,12.3111,12.3111,12.381,12.4198,12.3888,12.4703,12.5196,12.4917,12.4215,12.3585,12.3306,12.2408,12.1816,12.1585,12.1612,12.1612,12.1612,12.1612,12.1612,12.1612,12.1612,12.1612,12.1612,12.1612,12.1612,12.1612,12.1612,12.21,5.8476,5.914,6.0351,5.9883,0.0,0.0,0.0,6.043,6.2656,6.8281,6.9414,7.125,7.7344,7.8476,7.9023,8.0703,8.5351,8.9648,9.2265,9.6289,9.8867,9.8437,9.8749,9.9179,9.9608,9.9646,10.0387,10.2105,10.3514,10.4608,10.5389,10.6211,10.6914,10.7304,10.7812,10.8006,10.7991,10.6702,10.63,10.6693,10.5795,10.5209,10.4819,10.5209,10.5599,10.599,10.599,10.7512,10.9894,10.9894,11.1182,11.3097,11.2589,11.2707,11.3292,11.4617,11.5281,11.5908,11.7194,11.7897,11.8287,11.8287,11.8287,11.8287,11.8287,11.9497,12.0981,12.1918,12.2698,12.3401,12.3401,12.3401,12.3401,12.3401,12.3302,12.3203,12.3203,12.3003,12.2903,12.2903,12.2794,12.28,12.28,12.28,12.28,12.28,12.3499,12.4089,12.4089,12.5208,12.5888,12.5721,12.4805,12.4092,12.3812,12.2515,12.17,12.1612,12.1612,12.1612,12.1612,12.1612,12.1612,12.1612,12.1612,12.1612,12.1612,12.1612,12.1612,12.1612,12.1985,12.2716,0.0,0.0,0.0,0.0,0.0,6.1133,0.0,0.0,0.0,6.6992,6.7695,6.8555,7.2226,7.2461,7.3242,7.6719,0.0,0.0,0.0,9.039,0.0,9.5195,9.5936,9.6559,9.6911,9.7145,9.8628,10.191,10.199,10.2616,10.4099,10.5311,10.6211,10.6719,10.7383,10.7693,10.7718,10.7094,10.669,10.6693,10.6497,10.6107,10.5404,10.6107,10.638,10.6497,10.6614,10.8098,11.0284,11.0284,11.1299,11.2785,11.2314,11.2509,11.3292,11.5088,11.5713,11.5908,11.7704,11.8287,11.8287,11.8287,11.8287,11.8287,11.8482,11.9614,12.0785,12.0981,12.2191,12.3401,12.3401,12.3401,12.3401,12.3401,12.3309,12.32,12.32,12.3008,12.2883,12.2883,12.2803,12.28,12.28,12.28,12.28,12.28,12.3499,12.4114,12.4007,12.5514,12.6502,12.6283,12.529,12.4594,12.4408,12.2712,12.1612,12.1612,12.1612,12.1612,12.1612,12.1612,12.1612,12.1612,12.1612,12.1612,12.1612,12.1804,12.1908,12.1908,12.2601,12.3408,0.0,0.0,0.0,0.0,6.6797,0.0,0.0,0.0,6.1836,5.8828,0.0,0.0,0.0,0.0,0.0,0.0,0.0,0.0,7.4883,7.9531,8.4844,9.0117,9.41,9.5857,0.0,9.2303,9.3355,9.9019,9.6007,9.6947,10.3789,10.3592,10.4412,10.6601,10.6797,10.6795,10.6781,10.6703,10.669,10.6693,10.5912,10.5482,10.5404,10.5482,10.5482,10.5599,10.638,10.7708,10.9386,10.9386,11.0401,11.2002,11.2707,11.3019,11.3292,11.5088,11.5713,11.5908,11.7704,11.8287,11.8287,11.8287,11.8287,11.8404,11.9107,12.0005,12.0981,12.1683,12.2698,12.3401,12.3401,12.3401,12.3401,12.3401,12.3281,12.3104,12.3104,12.2999,12.2809,12.2809,12.2782,12.28,12.28,12.28,12.28,12.28,12.3499,12.4,12.3884,12.5303,12.6321,12.6084,12.5105,12.4419,12.4387,12.2712,12.1612,12.1612,12.1612,12.1612,12.1612,12.1612,12.1612,12.1612,12.1612,12.1612,12.1612,12.2408,12.2793,12.2793,12.2908,12.3716,0.0,0.0,0.0,0.0,0.0,0.0,0.0,0.0,5.9062,0.0,0.0,0.0,0.0,0.0,0.0,0.0,6.6562,0.0,0.0,0.0,7.9726,0.0,0.0,0.0,0.0,0.0,0.0,0.0,9.464,9.5424,10.0194,10.1986,10.3587,10.5194,10.6209,10.6908,10.7396,10.748,10.7509,10.7395,10.7083,10.6419,10.5404,10.6419,10.6419,10.5482,10.7395,10.8918,11.0011,11.0518,11.1494,11.2589,11.3019,11.3097,11.3292,11.5088,11.5713,11.5908,11.7704,11.8287,11.8287,11.8287,11.8287,11.8404,11.8716,11.9419,12.0083,12.0512,12.1605,12.2581,12.2581,12.3011,12.3401,12.3401,12.3203,12.3089,12.3089,12.2884,12.28,12.28,12.2689,12.259,12.259,12.2704,12.28,12.28,12.2999,12.3304,12.3689,12.4284,12.4807,12.5017,12.4296,12.3688,12.3494,12.2313,12.1612,12.1612,12.1612,12.1612,12.1612,12.1612,12.1612,12.1612,12.21,12.2408,12.2408,12.3216,12.3909,12.4409,12.4409,12.4716,7.4413,0.0,0.0,0.0,0.0,0.0,0.0,0.0,0.0,0.0,0.0,0.0,0.0,0.0,0.0,0.0,0.0,6.6836,0.0,6.8984,0.0,0.0,0.0,0.0,0.0,0.0,0.0,0.0,0.0,9.2729,9.8121,10.0417,10.2407,10.4486,10.5697,10.6783,10.758,10.7904,10.7895,10.759,10.759,10.7005,10.5795,10.7083,10.7005,10.5912,10.7981,10.9503,11.0516,11.1182,11.208,11.3097,11.3097,11.3097,11.3292,11.5088,11.5713,11.5908,11.7704,11.8287,11.8287,11.8287,11.8287,11.8287,11.8287,11.8912,11.9497,11.9497,12.0785,12.211,12.211,12.2698,12.3401,12.3401,12.3203,12.3089,12.3089,12.2884,12.2786,12.2711,12.2605,12.2509,12.242,12.2511,12.259,12.259,12.2487,12.258,12.3186,12.3406,12.3578,12.3886,12.349,12.3115,12.2882,12.21,12.1612,12.1612,12.1612,12.1612,12.1612,12.1612,12.1612,12.1612,12.2485,12.2908,12.2908,12.3909,12.4793,12.5409,12.5409,12.5486,0.0,0.0,0.0,7.148,0.0,0.0,0.0,0.0,6.2578,0.0,0.0,0.0,0.0,0.0,0.0,0.0,0.0,0.0,0.0,0.0,0.0,0.0,0.0,0.0,0.0,0.0,0.0,0.0,8.472,0.0,9.9527,9.8732,10.0209,10.5219,10.5414,10.5917,10.6682,10.7582,10.7611,10.6693,10.6693,10.6693,10.6693,10.6693,10.6693,10.6693,10.759,10.8994,11.0516,11.0516,11.1611,11.3097,11.3097,11.3097,11.3292,11.5088,11.5713,11.5908,11.7704,11.8287,11.8287,11.8287,11.8287,11.8287,11.8287,11.8912,11.9497,11.9497,12.0785,12.211,12.211,12.2698,12.3401,12.3401,12.3203,12.3089,12.3089,12.2884,12.2718,12.248,12.2487,12.239,12.2196,12.2207,12.2216,12.2216,12.2207,12.2092,12.2008,12.271,12.3115,12.2982,12.292,12.2908,12.2908,12.21,12.1612,12.1612,12.1612,12.1612,12.1612,12.1612,12.1612,12.1612,12.2485,12.2908,12.2908,12.4601,12.5409,12.5409,12.5409,12.5909,0.0,0.0,8.5613,7.8075,0.0,0.0,0.0,0.0,0.0,0.0,0.0,0.0,0.0,0.0,0.0,0.0,0.0,0.0,0.0,0.0,0.0,0.0,0.0,0.0,0.0,0.0,0.0,0.0,8.269,0.0,0.0,9.5687,9.837,10.3616,10.4312,10.551,10.7483,10.7888,10.7884,10.759,10.759,10.7317,10.6693,10.7317,10.72,10.681,10.8801,11.0009,11.0594,11.1689,11.2589,11.3097,11.3097,11.3097,11.3292,11.5088,11.5713,11.5908,11.7704,11.7897,11.7506,11.8092,11.8287,11.8287,11.8287,11.8482,11.8716,11.8716,11.9497,12.0512,12.1098,12.1918,12.2698,12.3284,12.3203,12.3118,12.2885,12.2702,12.2519,12.2295,12.2188,12.2121,12.2003,12.1907,12.1907,12.2198,12.2121,12.2001,12.1889,12.202,12.2078,12.1997,12.1985,12.1985,12.1985,12.1804,12.1612,12.1612,12.1612,12.1612,12.1612,12.1612,12.1908,12.2408,12.3293,12.3985,12.4601,12.5678,12.6306,12.6306,12.6306,12.6409,8.962,9.0286,0.0,8.3844,8.0336,0.0,6.9912,0.0,0.0,0.0,0.0,0.0,0.0,0.0,0.0,0.0,0.0,0.0,0.0,5.6094,0.0,0.0,0.0,0.0,0.0,0.0,7.4218,8.0116,7.9371,8.2301,0.0,0.0,9.6609,10.1811,10.34,10.5418,10.802,10.7994,10.7994,10.802,10.802,10.7708,10.72,10.7708,10.7708,10.7317,10.8918,10.9892,11.0594,11.1689,11.2509,11.3097,11.3097,11.3097,11.3292,11.5088,11.5908,11.6296,11.7389,11.7506,11.7116,11.8014,11.8287,11.8287,11.8287,11.8287,11.8287,11.8287,11.8912,11.9692,12.059,12.141,12.2315,12.3088,12.32,12.2985,12.2786,12.261,12.2412,12.2102,12.2011,12.1896,12.181,12.1716,12.1716,12.1892,12.1896,12.1799,12.1799,12.1704,12.1612,12.1612,12.1612,12.1612,12.1612,12.1612,12.1612,12.1612,12.1612,12.1612,12.1612,12.1908,12.2293,12.2908,12.3985,12.4793,12.5409,12.6306,12.669,12.669,12.669,12.669]}]]